<?xml version="1.0" encoding="UTF-8" standalone="no" ?>
<gpx xmlns="http://www.topografix.com/GPX/1/1" xmlns:xsi="http://www.w3.org/2001/XMLSchema-instance" xsi:schemaLocation="http://www.topografix.com/GPX/1/1 http://www.topografix.com/GPX/1/1/gpx.xsd" version="1.1" creator="VisuGPX - https://www.visugpx.com">
  <metadata>
    <name>Coupe Du Chasseron 2018 20km</name>
    <desc><![CDATA[Coupe Du Chasseron 2018 
20km                                                                                                                      ]]></desc>
  </metadata>
  <trk>
    <name><![CDATA[Coupe du Chasseron Parcours Populaires 20.6 KM]]></name>
    <trkseg>
      <trkpt lat="46.82925" lon="6.5385">
        <ele>1209.5999755859</ele>
        <time>2017-07-07T07:10:04.000Z</time>
      </trkpt>
      <trkpt lat="46.82925" lon="6.53853">
        <ele>1208</ele>
        <time>2017-07-07T07:10:05.000Z</time>
      </trkpt>
      <trkpt lat="46.82926" lon="6.53855">
        <ele>1207.1999511719</ele>
        <time>2017-07-07T07:10:06.000Z</time>
      </trkpt>
      <trkpt lat="46.82927" lon="6.53859">
        <ele>1206.8000488281</ele>
        <time>2017-07-07T07:10:07.000Z</time>
      </trkpt>
      <trkpt lat="46.8293" lon="6.53866">
        <ele>1207</ele>
        <time>2017-07-07T07:10:09.000Z</time>
      </trkpt>
      <trkpt lat="46.82933" lon="6.53876">
        <ele>1206.5999755859</ele>
        <time>2017-07-07T07:10:11.000Z</time>
      </trkpt>
      <trkpt lat="46.82939" lon="6.53903">
        <ele>1206.8000488281</ele>
        <time>2017-07-07T07:10:16.000Z</time>
      </trkpt>
      <trkpt lat="46.82949" lon="6.5395">
        <ele>1207</ele>
        <time>2017-07-07T07:10:24.000Z</time>
      </trkpt>
      <trkpt lat="46.82958" lon="6.53981">
        <ele>1206.1999511719</ele>
        <time>2017-07-07T07:10:30.000Z</time>
      </trkpt>
      <trkpt lat="46.82971" lon="6.54013">
        <ele>1206</ele>
        <time>2017-07-07T07:10:37.000Z</time>
      </trkpt>
      <trkpt lat="46.82986" lon="6.54057">
        <ele>1206.8000488281</ele>
        <time>2017-07-07T07:10:46.000Z</time>
      </trkpt>
      <trkpt lat="46.82994" lon="6.5408">
        <ele>1207.8000488281</ele>
        <time>2017-07-07T07:10:51.000Z</time>
      </trkpt>
      <trkpt lat="46.82996" lon="6.54089">
        <ele>1208.4000244141</ele>
        <time>2017-07-07T07:10:53.000Z</time>
      </trkpt>
      <trkpt lat="46.82994" lon="6.54101">
        <ele>1208.4000244141</ele>
        <time>2017-07-07T07:10:55.000Z</time>
      </trkpt>
      <trkpt lat="46.82996" lon="6.54115">
        <ele>1208.8000488281</ele>
        <time>2017-07-07T07:10:58.000Z</time>
      </trkpt>
      <trkpt lat="46.83002" lon="6.54126">
        <ele>1209.1999511719</ele>
        <time>2017-07-07T07:11:01.000Z</time>
      </trkpt>
      <trkpt lat="46.83008" lon="6.54136">
        <ele>1210</ele>
        <time>2017-07-07T07:11:04.000Z</time>
      </trkpt>
      <trkpt lat="46.83017" lon="6.54153">
        <ele>1210.4000244141</ele>
        <time>2017-07-07T07:11:08.000Z</time>
      </trkpt>
      <trkpt lat="46.83025" lon="6.54166">
        <ele>1211</ele>
        <time>2017-07-07T07:11:11.000Z</time>
      </trkpt>
      <trkpt lat="46.83037" lon="6.54189">
        <ele>1212</ele>
        <time>2017-07-07T07:11:16.000Z</time>
      </trkpt>
      <trkpt lat="46.83039" lon="6.54194">
        <ele>1212.1999511719</ele>
        <time>2017-07-07T07:11:17.000Z</time>
      </trkpt>
      <trkpt lat="46.83053" lon="6.54221">
        <ele>1213.1999511719</ele>
        <time>2017-07-07T07:11:23.000Z</time>
      </trkpt>
      <trkpt lat="46.83057" lon="6.54229">
        <ele>1213.4000244141</ele>
        <time>2017-07-07T07:11:25.000Z</time>
      </trkpt>
      <trkpt lat="46.83068" lon="6.54244">
        <ele>1214.1999511719</ele>
        <time>2017-07-07T07:11:29.000Z</time>
      </trkpt>
      <trkpt lat="46.83076" lon="6.54255">
        <ele>1214.8000488281</ele>
        <time>2017-07-07T07:11:32.000Z</time>
      </trkpt>
      <trkpt lat="46.83081" lon="6.5426">
        <ele>1215.4000244141</ele>
        <time>2017-07-07T07:11:34.000Z</time>
      </trkpt>
      <trkpt lat="46.83095" lon="6.54275">
        <ele>1216.4000244141</ele>
        <time>2017-07-07T07:11:39.000Z</time>
      </trkpt>
      <trkpt lat="46.831" lon="6.54281">
        <ele>1217</ele>
        <time>2017-07-07T07:11:41.000Z</time>
      </trkpt>
      <trkpt lat="46.83107" lon="6.54287">
        <ele>1217.5999755859</ele>
        <time>2017-07-07T07:11:43.000Z</time>
      </trkpt>
      <trkpt lat="46.83118" lon="6.54298">
        <ele>1218.4000244141</ele>
        <time>2017-07-07T07:11:47.000Z</time>
      </trkpt>
      <trkpt lat="46.83124" lon="6.54303">
        <ele>1218.8000488281</ele>
        <time>2017-07-07T07:11:49.000Z</time>
      </trkpt>
      <trkpt lat="46.83135" lon="6.54313">
        <ele>1220</ele>
        <time>2017-07-07T07:11:53.000Z</time>
      </trkpt>
      <trkpt lat="46.83137" lon="6.54315">
        <ele>1220.4000244141</ele>
        <time>2017-07-07T07:11:54.000Z</time>
      </trkpt>
      <trkpt lat="46.83142" lon="6.54319">
        <ele>1221.1999511719</ele>
        <time>2017-07-07T07:11:56.000Z</time>
      </trkpt>
      <trkpt lat="46.83152" lon="6.54328">
        <ele>1222.4000244141</ele>
        <time>2017-07-07T07:12:01.000Z</time>
      </trkpt>
      <trkpt lat="46.83161" lon="6.54333">
        <ele>1223.5999755859</ele>
        <time>2017-07-07T07:12:05.000Z</time>
      </trkpt>
      <trkpt lat="46.83169" lon="6.54336">
        <ele>1224.1999511719</ele>
        <time>2017-07-07T07:12:08.000Z</time>
      </trkpt>
      <trkpt lat="46.83174" lon="6.54339">
        <ele>1224.8000488281</ele>
        <time>2017-07-07T07:12:10.000Z</time>
      </trkpt>
      <trkpt lat="46.83184" lon="6.54343">
        <ele>1226</ele>
        <time>2017-07-07T07:12:14.000Z</time>
      </trkpt>
      <trkpt lat="46.83187" lon="6.54344">
        <ele>1226.4000244141</ele>
        <time>2017-07-07T07:12:15.000Z</time>
      </trkpt>
      <trkpt lat="46.83194" lon="6.54349">
        <ele>1227.1999511719</ele>
        <time>2017-07-07T07:12:18.000Z</time>
      </trkpt>
      <trkpt lat="46.832" lon="6.54354">
        <ele>1228.1999511719</ele>
        <time>2017-07-07T07:12:21.000Z</time>
      </trkpt>
      <trkpt lat="46.83203" lon="6.54355">
        <ele>1228.4000244141</ele>
        <time>2017-07-07T07:12:22.000Z</time>
      </trkpt>
      <trkpt lat="46.83214" lon="6.54361">
        <ele>1229.1999511719</ele>
        <time>2017-07-07T07:12:27.000Z</time>
      </trkpt>
      <trkpt lat="46.83217" lon="6.54362">
        <ele>1229.4000244141</ele>
        <time>2017-07-07T07:12:28.000Z</time>
      </trkpt>
      <trkpt lat="46.83226" lon="6.54368">
        <ele>1230.1999511719</ele>
        <time>2017-07-07T07:12:32.000Z</time>
      </trkpt>
      <trkpt lat="46.83228" lon="6.54369">
        <ele>1230.5999755859</ele>
        <time>2017-07-07T07:12:33.000Z</time>
      </trkpt>
      <trkpt lat="46.8323" lon="6.5437">
        <ele>1230.8000488281</ele>
        <time>2017-07-07T07:12:34.000Z</time>
      </trkpt>
      <trkpt lat="46.83236" lon="6.54374">
        <ele>1231.5999755859</ele>
        <time>2017-07-07T07:12:37.000Z</time>
      </trkpt>
      <trkpt lat="46.83243" lon="6.54378">
        <ele>1232.1999511719</ele>
        <time>2017-07-07T07:12:40.000Z</time>
      </trkpt>
      <trkpt lat="46.83248" lon="6.54381">
        <ele>1232.8000488281</ele>
        <time>2017-07-07T07:12:42.000Z</time>
      </trkpt>
      <trkpt lat="46.83257" lon="6.54389">
        <ele>1233.5999755859</ele>
        <time>2017-07-07T07:12:46.000Z</time>
      </trkpt>
      <trkpt lat="46.8326" lon="6.54391">
        <ele>1234</ele>
        <time>2017-07-07T07:12:47.000Z</time>
      </trkpt>
      <trkpt lat="46.83273" lon="6.54405">
        <ele>1235</ele>
        <time>2017-07-07T07:12:53.000Z</time>
      </trkpt>
      <trkpt lat="46.83275" lon="6.54407">
        <ele>1235.4000244141</ele>
        <time>2017-07-07T07:12:54.000Z</time>
      </trkpt>
      <trkpt lat="46.83279" lon="6.54411">
        <ele>1236.1999511719</ele>
        <time>2017-07-07T07:12:56.000Z</time>
      </trkpt>
      <trkpt lat="46.83286" lon="6.54418">
        <ele>1237.4000244141</ele>
        <time>2017-07-07T07:13:00.000Z</time>
      </trkpt>
      <trkpt lat="46.83289" lon="6.54418">
        <ele>1237.8000488281</ele>
        <time>2017-07-07T07:13:01.000Z</time>
      </trkpt>
      <trkpt lat="46.83294" lon="6.54416">
        <ele>1238.4000244141</ele>
        <time>2017-07-07T07:13:03.000Z</time>
      </trkpt>
      <trkpt lat="46.83297" lon="6.54408">
        <ele>1239.1999511719</ele>
        <time>2017-07-07T07:13:06.000Z</time>
      </trkpt>
      <trkpt lat="46.83298" lon="6.54406">
        <ele>1239.5999755859</ele>
        <time>2017-07-07T07:13:07.000Z</time>
      </trkpt>
      <trkpt lat="46.833" lon="6.54398">
        <ele>1240.5999755859</ele>
        <time>2017-07-07T07:13:10.000Z</time>
      </trkpt>
      <trkpt lat="46.83301" lon="6.54389">
        <ele>1241.4000244141</ele>
        <time>2017-07-07T07:13:13.000Z</time>
      </trkpt>
      <trkpt lat="46.833" lon="6.54386">
        <ele>1241.8000488281</ele>
        <time>2017-07-07T07:13:14.000Z</time>
      </trkpt>
      <trkpt lat="46.83301" lon="6.54369">
        <ele>1242.8000488281</ele>
        <time>2017-07-07T07:13:19.000Z</time>
      </trkpt>
      <trkpt lat="46.83301" lon="6.54365">
        <ele>1243</ele>
        <time>2017-07-07T07:13:20.000Z</time>
      </trkpt>
      <trkpt lat="46.83301" lon="6.54345">
        <ele>1243.8000488281</ele>
        <time>2017-07-07T07:13:26.000Z</time>
      </trkpt>
      <trkpt lat="46.83301" lon="6.54342">
        <ele>1244</ele>
        <time>2017-07-07T07:13:27.000Z</time>
      </trkpt>
      <trkpt lat="46.83302" lon="6.5433">
        <ele>1244.5999755859</ele>
        <time>2017-07-07T07:13:31.000Z</time>
      </trkpt>
      <trkpt lat="46.83302" lon="6.54324">
        <ele>1245</ele>
        <time>2017-07-07T07:13:33.000Z</time>
      </trkpt>
      <trkpt lat="46.83301" lon="6.54317">
        <ele>1245.1999511719</ele>
        <time>2017-07-07T07:13:35.000Z</time>
      </trkpt>
      <trkpt lat="46.83301" lon="6.54311">
        <ele>1245.5999755859</ele>
        <time>2017-07-07T07:13:37.000Z</time>
      </trkpt>
      <trkpt lat="46.83301" lon="6.54303">
        <ele>1246.1999511719</ele>
        <time>2017-07-07T07:13:40.000Z</time>
      </trkpt>
      <trkpt lat="46.83301" lon="6.54291">
        <ele>1247.1999511719</ele>
        <time>2017-07-07T07:13:44.000Z</time>
      </trkpt>
      <trkpt lat="46.83302" lon="6.54276">
        <ele>1248.4000244141</ele>
        <time>2017-07-07T07:13:49.000Z</time>
      </trkpt>
      <trkpt lat="46.83303" lon="6.5427">
        <ele>1248.5999755859</ele>
        <time>2017-07-07T07:13:51.000Z</time>
      </trkpt>
      <trkpt lat="46.83302" lon="6.54257">
        <ele>1249.5999755859</ele>
        <time>2017-07-07T07:13:55.000Z</time>
      </trkpt>
      <trkpt lat="46.83298" lon="6.54251">
        <ele>1250.4000244141</ele>
        <time>2017-07-07T07:13:57.000Z</time>
      </trkpt>
      <trkpt lat="46.83297" lon="6.5425">
        <ele>1250.5999755859</ele>
        <time>2017-07-07T07:13:58.000Z</time>
      </trkpt>
      <trkpt lat="46.83301" lon="6.54248">
        <ele>1251.4000244141</ele>
        <time>2017-07-07T07:14:01.000Z</time>
      </trkpt>
      <trkpt lat="46.83302" lon="6.54249">
        <ele>1251.8000488281</ele>
        <time>2017-07-07T07:14:02.000Z</time>
      </trkpt>
      <trkpt lat="46.83305" lon="6.54254">
        <ele>1252.5999755859</ele>
        <time>2017-07-07T07:14:05.000Z</time>
      </trkpt>
      <trkpt lat="46.83307" lon="6.54255">
        <ele>1252.8000488281</ele>
        <time>2017-07-07T07:14:06.000Z</time>
      </trkpt>
      <trkpt lat="46.83312" lon="6.54263">
        <ele>1253.5999755859</ele>
        <time>2017-07-07T07:14:10.000Z</time>
      </trkpt>
      <trkpt lat="46.83313" lon="6.54265">
        <ele>1253.5999755859</ele>
        <time>2017-07-07T07:14:11.000Z</time>
      </trkpt>
      <trkpt lat="46.83315" lon="6.54271">
        <ele>1254</ele>
        <time>2017-07-07T07:14:13.000Z</time>
      </trkpt>
      <trkpt lat="46.83321" lon="6.54289">
        <ele>1255</ele>
        <time>2017-07-07T07:14:19.000Z</time>
      </trkpt>
      <trkpt lat="46.83327" lon="6.54297">
        <ele>1256</ele>
        <time>2017-07-07T07:14:23.000Z</time>
      </trkpt>
      <trkpt lat="46.8333" lon="6.54301">
        <ele>1256.4000244141</ele>
        <time>2017-07-07T07:14:25.000Z</time>
      </trkpt>
      <trkpt lat="46.83332" lon="6.54303">
        <ele>1256.4000244141</ele>
        <time>2017-07-07T07:14:26.000Z</time>
      </trkpt>
      <trkpt lat="46.83337" lon="6.54307">
        <ele>1256.8000488281</ele>
        <time>2017-07-07T07:14:29.000Z</time>
      </trkpt>
      <trkpt lat="46.83338" lon="6.54308">
        <ele>1257</ele>
        <time>2017-07-07T07:14:30.000Z</time>
      </trkpt>
      <trkpt lat="46.8334" lon="6.5431">
        <ele>1257.1999511719</ele>
        <time>2017-07-07T07:14:31.000Z</time>
      </trkpt>
      <trkpt lat="46.83347" lon="6.54318">
        <ele>1257.8000488281</ele>
        <time>2017-07-07T07:14:36.000Z</time>
      </trkpt>
      <trkpt lat="46.8335" lon="6.54321">
        <ele>1258.4000244141</ele>
        <time>2017-07-07T07:14:38.000Z</time>
      </trkpt>
      <trkpt lat="46.83352" lon="6.54324">
        <ele>1259</ele>
        <time>2017-07-07T07:14:40.000Z</time>
      </trkpt>
      <trkpt lat="46.83354" lon="6.54329">
        <ele>1259.5999755859</ele>
        <time>2017-07-07T07:14:42.000Z</time>
      </trkpt>
      <trkpt lat="46.83362" lon="6.54344">
        <ele>1260.5999755859</ele>
        <time>2017-07-07T07:14:48.000Z</time>
      </trkpt>
      <trkpt lat="46.83364" lon="6.54346">
        <ele>1260.5999755859</ele>
        <time>2017-07-07T07:14:49.000Z</time>
      </trkpt>
      <trkpt lat="46.83373" lon="6.54358">
        <ele>1261.1999511719</ele>
        <time>2017-07-07T07:14:54.000Z</time>
      </trkpt>
      <trkpt lat="46.83381" lon="6.5437">
        <ele>1262</ele>
        <time>2017-07-07T07:14:58.000Z</time>
      </trkpt>
      <trkpt lat="46.83386" lon="6.54374">
        <ele>1262.1999511719</ele>
        <time>2017-07-07T07:15:00.000Z</time>
      </trkpt>
      <trkpt lat="46.83393" lon="6.54385">
        <ele>1263.1999511719</ele>
        <time>2017-07-07T07:15:04.000Z</time>
      </trkpt>
      <trkpt lat="46.83396" lon="6.54388">
        <ele>1263.1999511719</ele>
        <time>2017-07-07T07:15:05.000Z</time>
      </trkpt>
      <trkpt lat="46.83409" lon="6.54409">
        <ele>1264.1999511719</ele>
        <time>2017-07-07T07:15:12.000Z</time>
      </trkpt>
      <trkpt lat="46.83415" lon="6.54417">
        <ele>1264.4000244141</ele>
        <time>2017-07-07T07:15:15.000Z</time>
      </trkpt>
      <trkpt lat="46.83419" lon="6.54421">
        <ele>1264.8000488281</ele>
        <time>2017-07-07T07:15:17.000Z</time>
      </trkpt>
      <trkpt lat="46.83425" lon="6.54426">
        <ele>1265</ele>
        <time>2017-07-07T07:15:19.000Z</time>
      </trkpt>
      <trkpt lat="46.83434" lon="6.54426">
        <ele>1265.4000244141</ele>
        <time>2017-07-07T07:15:22.000Z</time>
      </trkpt>
      <trkpt lat="46.83443" lon="6.54426">
        <ele>1266.4000244141</ele>
        <time>2017-07-07T07:15:25.000Z</time>
      </trkpt>
      <trkpt lat="46.83444" lon="6.54423">
        <ele>1266.5999755859</ele>
        <time>2017-07-07T07:15:26.000Z</time>
      </trkpt>
      <trkpt lat="46.83444" lon="6.54421">
        <ele>1266.8000488281</ele>
        <time>2017-07-07T07:15:27.000Z</time>
      </trkpt>
      <trkpt lat="46.83443" lon="6.54407">
        <ele>1267.5999755859</ele>
        <time>2017-07-07T07:15:32.000Z</time>
      </trkpt>
      <trkpt lat="46.83443" lon="6.54404">
        <ele>1268.1999511719</ele>
        <time>2017-07-07T07:15:33.000Z</time>
      </trkpt>
      <trkpt lat="46.83443" lon="6.54391">
        <ele>1269</ele>
        <time>2017-07-07T07:15:37.000Z</time>
      </trkpt>
      <trkpt lat="46.83443" lon="6.54388">
        <ele>1269.1999511719</ele>
        <time>2017-07-07T07:15:38.000Z</time>
      </trkpt>
      <trkpt lat="46.83441" lon="6.54376">
        <ele>1270</ele>
        <time>2017-07-07T07:15:42.000Z</time>
      </trkpt>
      <trkpt lat="46.83441" lon="6.54363">
        <ele>1270.8000488281</ele>
        <time>2017-07-07T07:15:46.000Z</time>
      </trkpt>
      <trkpt lat="46.8344" lon="6.54356">
        <ele>1271.1999511719</ele>
        <time>2017-07-07T07:15:48.000Z</time>
      </trkpt>
      <trkpt lat="46.83439" lon="6.54343">
        <ele>1272.1999511719</ele>
        <time>2017-07-07T07:15:52.000Z</time>
      </trkpt>
      <trkpt lat="46.83438" lon="6.5434">
        <ele>1272.5999755859</ele>
        <time>2017-07-07T07:15:53.000Z</time>
      </trkpt>
      <trkpt lat="46.83438" lon="6.5433">
        <ele>1273.1999511719</ele>
        <time>2017-07-07T07:15:56.000Z</time>
      </trkpt>
      <trkpt lat="46.83437" lon="6.54317">
        <ele>1274.4000244141</ele>
        <time>2017-07-07T07:16:00.000Z</time>
      </trkpt>
      <trkpt lat="46.83434" lon="6.54299">
        <ele>1275.4000244141</ele>
        <time>2017-07-07T07:16:05.000Z</time>
      </trkpt>
      <trkpt lat="46.83432" lon="6.54288">
        <ele>1276</ele>
        <time>2017-07-07T07:16:08.000Z</time>
      </trkpt>
      <trkpt lat="46.83432" lon="6.54277">
        <ele>1276.8000488281</ele>
        <time>2017-07-07T07:16:11.000Z</time>
      </trkpt>
      <trkpt lat="46.83431" lon="6.54259">
        <ele>1277.1999511719</ele>
        <time>2017-07-07T07:16:16.000Z</time>
      </trkpt>
      <trkpt lat="46.83427" lon="6.54248">
        <ele>1278</ele>
        <time>2017-07-07T07:16:19.000Z</time>
      </trkpt>
      <trkpt lat="46.83424" lon="6.5424">
        <ele>1278.8000488281</ele>
        <time>2017-07-07T07:16:21.000Z</time>
      </trkpt>
      <trkpt lat="46.83423" lon="6.54237">
        <ele>1279.1999511719</ele>
        <time>2017-07-07T07:16:22.000Z</time>
      </trkpt>
      <trkpt lat="46.83419" lon="6.54219">
        <ele>1280.1999511719</ele>
        <time>2017-07-07T07:16:27.000Z</time>
      </trkpt>
      <trkpt lat="46.83413" lon="6.54197">
        <ele>1281.4000244141</ele>
        <time>2017-07-07T07:16:33.000Z</time>
      </trkpt>
      <trkpt lat="46.83413" lon="6.54194">
        <ele>1281.5999755859</ele>
        <time>2017-07-07T07:16:34.000Z</time>
      </trkpt>
      <trkpt lat="46.83411" lon="6.54181">
        <ele>1282.5999755859</ele>
        <time>2017-07-07T07:16:38.000Z</time>
      </trkpt>
      <trkpt lat="46.83406" lon="6.54165">
        <ele>1283.8000488281</ele>
        <time>2017-07-07T07:16:43.000Z</time>
      </trkpt>
      <trkpt lat="46.83404" lon="6.54162">
        <ele>1284</ele>
        <time>2017-07-07T07:16:44.000Z</time>
      </trkpt>
      <trkpt lat="46.83406" lon="6.54157">
        <ele>1284.5999755859</ele>
        <time>2017-07-07T07:16:47.000Z</time>
      </trkpt>
      <trkpt lat="46.83406" lon="6.54156">
        <ele>1284.8000488281</ele>
        <time>2017-07-07T07:16:48.000Z</time>
      </trkpt>
      <trkpt lat="46.83406" lon="6.54156">
        <ele>1285</ele>
        <time>2017-07-07T07:16:49.000Z</time>
      </trkpt>
      <trkpt lat="46.83405" lon="6.54156">
        <ele>1285.1999511719</ele>
        <time>2017-07-07T07:17:06.000Z</time>
      </trkpt>
      <trkpt lat="46.83405" lon="6.54156">
        <ele>1285.5999755859</ele>
        <time>2017-07-07T07:17:23.000Z</time>
      </trkpt>
      <trkpt lat="46.83405" lon="6.54156">
        <ele>1285.4000244141</ele>
        <time>2017-07-07T07:17:33.000Z</time>
      </trkpt>
      <trkpt lat="46.83407" lon="6.54152">
        <ele>1285.8000488281</ele>
        <time>2017-07-07T07:17:35.000Z</time>
      </trkpt>
      <trkpt lat="46.83411" lon="6.54148">
        <ele>1286.5999755859</ele>
        <time>2017-07-07T07:17:39.000Z</time>
      </trkpt>
      <trkpt lat="46.83412" lon="6.54148">
        <ele>1286.8000488281</ele>
        <time>2017-07-07T07:17:40.000Z</time>
      </trkpt>
      <trkpt lat="46.83413" lon="6.54149">
        <ele>1287</ele>
        <time>2017-07-07T07:17:41.000Z</time>
      </trkpt>
      <trkpt lat="46.83416" lon="6.5415">
        <ele>1287.5999755859</ele>
        <time>2017-07-07T07:17:43.000Z</time>
      </trkpt>
      <trkpt lat="46.83418" lon="6.54153">
        <ele>1288.1999511719</ele>
        <time>2017-07-07T07:17:45.000Z</time>
      </trkpt>
      <trkpt lat="46.83421" lon="6.54157">
        <ele>1289.1999511719</ele>
        <time>2017-07-07T07:17:48.000Z</time>
      </trkpt>
      <trkpt lat="46.83422" lon="6.54159">
        <ele>1289.4000244141</ele>
        <time>2017-07-07T07:17:49.000Z</time>
      </trkpt>
      <trkpt lat="46.83425" lon="6.54165">
        <ele>1290.1999511719</ele>
        <time>2017-07-07T07:17:52.000Z</time>
      </trkpt>
      <trkpt lat="46.83426" lon="6.54169">
        <ele>1290.8000488281</ele>
        <time>2017-07-07T07:17:54.000Z</time>
      </trkpt>
      <trkpt lat="46.83428" lon="6.54171">
        <ele>1291</ele>
        <time>2017-07-07T07:17:55.000Z</time>
      </trkpt>
      <trkpt lat="46.83434" lon="6.54178">
        <ele>1291.8000488281</ele>
        <time>2017-07-07T07:17:59.000Z</time>
      </trkpt>
      <trkpt lat="46.83436" lon="6.54183">
        <ele>1292.5999755859</ele>
        <time>2017-07-07T07:18:01.000Z</time>
      </trkpt>
      <trkpt lat="46.83438" lon="6.54186">
        <ele>1293</ele>
        <time>2017-07-07T07:18:02.000Z</time>
      </trkpt>
      <trkpt lat="46.83441" lon="6.5419">
        <ele>1293.1999511719</ele>
        <time>2017-07-07T07:18:04.000Z</time>
      </trkpt>
      <trkpt lat="46.83445" lon="6.54197">
        <ele>1294</ele>
        <time>2017-07-07T07:18:07.000Z</time>
      </trkpt>
      <trkpt lat="46.8345" lon="6.54207">
        <ele>1294.4000244141</ele>
        <time>2017-07-07T07:18:10.000Z</time>
      </trkpt>
      <trkpt lat="46.83458" lon="6.54223">
        <ele>1295</ele>
        <time>2017-07-07T07:18:14.000Z</time>
      </trkpt>
      <trkpt lat="46.83469" lon="6.54244">
        <ele>1295.4000244141</ele>
        <time>2017-07-07T07:18:19.000Z</time>
      </trkpt>
      <trkpt lat="46.83481" lon="6.5427">
        <ele>1296</ele>
        <time>2017-07-07T07:18:25.000Z</time>
      </trkpt>
      <trkpt lat="46.83483" lon="6.54277">
        <ele>1296.1999511719</ele>
        <time>2017-07-07T07:18:27.000Z</time>
      </trkpt>
      <trkpt lat="46.83489" lon="6.54285">
        <ele>1297</ele>
        <time>2017-07-07T07:18:30.000Z</time>
      </trkpt>
      <trkpt lat="46.8349" lon="6.54287">
        <ele>1297.1999511719</ele>
        <time>2017-07-07T07:18:31.000Z</time>
      </trkpt>
      <trkpt lat="46.83495" lon="6.54292">
        <ele>1297.8000488281</ele>
        <time>2017-07-07T07:18:34.000Z</time>
      </trkpt>
      <trkpt lat="46.83498" lon="6.54297">
        <ele>1298.8000488281</ele>
        <time>2017-07-07T07:18:36.000Z</time>
      </trkpt>
      <trkpt lat="46.83502" lon="6.54312">
        <ele>1299.8000488281</ele>
        <time>2017-07-07T07:18:40.000Z</time>
      </trkpt>
      <trkpt lat="46.8351" lon="6.5432">
        <ele>1300.4000244141</ele>
        <time>2017-07-07T07:18:44.000Z</time>
      </trkpt>
      <trkpt lat="46.83521" lon="6.5433">
        <ele>1301</ele>
        <time>2017-07-07T07:18:48.000Z</time>
      </trkpt>
      <trkpt lat="46.83524" lon="6.54332">
        <ele>1301.1999511719</ele>
        <time>2017-07-07T07:18:49.000Z</time>
      </trkpt>
      <trkpt lat="46.83534" lon="6.54342">
        <ele>1302.1999511719</ele>
        <time>2017-07-07T07:18:53.000Z</time>
      </trkpt>
      <trkpt lat="46.83539" lon="6.54342">
        <ele>1302.4000244141</ele>
        <time>2017-07-07T07:18:54.000Z</time>
      </trkpt>
      <trkpt lat="46.83559" lon="6.5434">
        <ele>1303.4000244141</ele>
        <time>2017-07-07T07:18:59.000Z</time>
      </trkpt>
      <trkpt lat="46.83583" lon="6.54345">
        <ele>1304.1999511719</ele>
        <time>2017-07-07T07:19:05.000Z</time>
      </trkpt>
      <trkpt lat="46.83593" lon="6.54351">
        <ele>1304.4000244141</ele>
        <time>2017-07-07T07:19:08.000Z</time>
      </trkpt>
      <trkpt lat="46.83595" lon="6.54353">
        <ele>1304.5999755859</ele>
        <time>2017-07-07T07:19:09.000Z</time>
      </trkpt>
      <trkpt lat="46.83609" lon="6.54364">
        <ele>1305.1999511719</ele>
        <time>2017-07-07T07:19:14.000Z</time>
      </trkpt>
      <trkpt lat="46.8361" lon="6.54366">
        <ele>1305.4000244141</ele>
        <time>2017-07-07T07:19:15.000Z</time>
      </trkpt>
      <trkpt lat="46.83614" lon="6.54373">
        <ele>1306.4000244141</ele>
        <time>2017-07-07T07:19:18.000Z</time>
      </trkpt>
      <trkpt lat="46.83616" lon="6.54375">
        <ele>1306.4000244141</ele>
        <time>2017-07-07T07:19:19.000Z</time>
      </trkpt>
      <trkpt lat="46.83619" lon="6.54378">
        <ele>1306.5999755859</ele>
        <time>2017-07-07T07:19:20.000Z</time>
      </trkpt>
      <trkpt lat="46.83631" lon="6.54395">
        <ele>1307.4000244141</ele>
        <time>2017-07-07T07:19:25.000Z</time>
      </trkpt>
      <trkpt lat="46.83635" lon="6.54404">
        <ele>1307.8000488281</ele>
        <time>2017-07-07T07:19:27.000Z</time>
      </trkpt>
      <trkpt lat="46.83643" lon="6.5442">
        <ele>1308.4000244141</ele>
        <time>2017-07-07T07:19:31.000Z</time>
      </trkpt>
      <trkpt lat="46.83648" lon="6.54428">
        <ele>1308.8000488281</ele>
        <time>2017-07-07T07:19:33.000Z</time>
      </trkpt>
      <trkpt lat="46.83657" lon="6.54439">
        <ele>1309.4000244141</ele>
        <time>2017-07-07T07:19:37.000Z</time>
      </trkpt>
      <trkpt lat="46.8366" lon="6.54444">
        <ele>1309.8000488281</ele>
        <time>2017-07-07T07:19:39.000Z</time>
      </trkpt>
      <trkpt lat="46.83668" lon="6.54453">
        <ele>1310.8000488281</ele>
        <time>2017-07-07T07:19:43.000Z</time>
      </trkpt>
      <trkpt lat="46.8368" lon="6.5447">
        <ele>1312.1999511719</ele>
        <time>2017-07-07T07:19:49.000Z</time>
      </trkpt>
      <trkpt lat="46.83682" lon="6.54473">
        <ele>1312.1999511719</ele>
        <time>2017-07-07T07:19:50.000Z</time>
      </trkpt>
      <trkpt lat="46.83692" lon="6.54484">
        <ele>1313.1999511719</ele>
        <time>2017-07-07T07:19:54.000Z</time>
      </trkpt>
      <trkpt lat="46.83701" lon="6.54491">
        <ele>1314</ele>
        <time>2017-07-07T07:19:57.000Z</time>
      </trkpt>
      <trkpt lat="46.83706" lon="6.54495">
        <ele>1314.1999511719</ele>
        <time>2017-07-07T07:19:59.000Z</time>
      </trkpt>
      <trkpt lat="46.8372" lon="6.54504">
        <ele>1315.4000244141</ele>
        <time>2017-07-07T07:20:04.000Z</time>
      </trkpt>
      <trkpt lat="46.83737" lon="6.54514">
        <ele>1316.4000244141</ele>
        <time>2017-07-07T07:20:09.000Z</time>
      </trkpt>
      <trkpt lat="46.83743" lon="6.54521">
        <ele>1316.5999755859</ele>
        <time>2017-07-07T07:20:11.000Z</time>
      </trkpt>
      <trkpt lat="46.83754" lon="6.5453">
        <ele>1317.1999511719</ele>
        <time>2017-07-07T07:20:15.000Z</time>
      </trkpt>
      <trkpt lat="46.83762" lon="6.54533">
        <ele>1317.4000244141</ele>
        <time>2017-07-07T07:20:17.000Z</time>
      </trkpt>
      <trkpt lat="46.83782" lon="6.5454">
        <ele>1318.4000244141</ele>
        <time>2017-07-07T07:20:22.000Z</time>
      </trkpt>
      <trkpt lat="46.83791" lon="6.54541">
        <ele>1318.5999755859</ele>
        <time>2017-07-07T07:20:24.000Z</time>
      </trkpt>
      <trkpt lat="46.83811" lon="6.54551">
        <ele>1319</ele>
        <time>2017-07-07T07:20:29.000Z</time>
      </trkpt>
      <trkpt lat="46.8383" lon="6.5457">
        <ele>1319</ele>
        <time>2017-07-07T07:20:35.000Z</time>
      </trkpt>
      <trkpt lat="46.83837" lon="6.54584">
        <ele>1319.8000488281</ele>
        <time>2017-07-07T07:20:38.000Z</time>
      </trkpt>
      <trkpt lat="46.83839" lon="6.54588">
        <ele>1319.8000488281</ele>
        <time>2017-07-07T07:20:39.000Z</time>
      </trkpt>
      <trkpt lat="46.83843" lon="6.54597">
        <ele>1319.8000488281</ele>
        <time>2017-07-07T07:20:41.000Z</time>
      </trkpt>
      <trkpt lat="46.83856" lon="6.54627">
        <ele>1320</ele>
        <time>2017-07-07T07:20:47.000Z</time>
      </trkpt>
      <trkpt lat="46.8387" lon="6.54647">
        <ele>1319.8000488281</ele>
        <time>2017-07-07T07:20:52.000Z</time>
      </trkpt>
      <trkpt lat="46.8388" lon="6.54659">
        <ele>1320.8000488281</ele>
        <time>2017-07-07T07:20:56.000Z</time>
      </trkpt>
      <trkpt lat="46.83884" lon="6.54665">
        <ele>1321</ele>
        <time>2017-07-07T07:20:58.000Z</time>
      </trkpt>
      <trkpt lat="46.83895" lon="6.5468">
        <ele>1322</ele>
        <time>2017-07-07T07:21:04.000Z</time>
      </trkpt>
      <trkpt lat="46.83897" lon="6.54682">
        <ele>1322.4000244141</ele>
        <time>2017-07-07T07:21:05.000Z</time>
      </trkpt>
      <trkpt lat="46.83905" lon="6.54691">
        <ele>1323.4000244141</ele>
        <time>2017-07-07T07:21:09.000Z</time>
      </trkpt>
      <trkpt lat="46.83908" lon="6.54695">
        <ele>1323.8000488281</ele>
        <time>2017-07-07T07:21:11.000Z</time>
      </trkpt>
      <trkpt lat="46.83911" lon="6.547">
        <ele>1324.4000244141</ele>
        <time>2017-07-07T07:21:13.000Z</time>
      </trkpt>
      <trkpt lat="46.83917" lon="6.54708">
        <ele>1325.5999755859</ele>
        <time>2017-07-07T07:21:17.000Z</time>
      </trkpt>
      <trkpt lat="46.83919" lon="6.54711">
        <ele>1325.8000488281</ele>
        <time>2017-07-07T07:21:18.000Z</time>
      </trkpt>
      <trkpt lat="46.83932" lon="6.54725">
        <ele>1326.8000488281</ele>
        <time>2017-07-07T07:21:23.000Z</time>
      </trkpt>
      <trkpt lat="46.83937" lon="6.54728">
        <ele>1327.1999511719</ele>
        <time>2017-07-07T07:21:25.000Z</time>
      </trkpt>
      <trkpt lat="46.83947" lon="6.54735">
        <ele>1328.4000244141</ele>
        <time>2017-07-07T07:21:28.000Z</time>
      </trkpt>
      <trkpt lat="46.83953" lon="6.54737">
        <ele>1329.1999511719</ele>
        <time>2017-07-07T07:21:31.000Z</time>
      </trkpt>
      <trkpt lat="46.83955" lon="6.54738">
        <ele>1329.4000244141</ele>
        <time>2017-07-07T07:21:32.000Z</time>
      </trkpt>
      <trkpt lat="46.83965" lon="6.54739">
        <ele>1330.5999755859</ele>
        <time>2017-07-07T07:21:35.000Z</time>
      </trkpt>
      <trkpt lat="46.83968" lon="6.5474">
        <ele>1330.8000488281</ele>
        <time>2017-07-07T07:21:36.000Z</time>
      </trkpt>
      <trkpt lat="46.83979" lon="6.54746">
        <ele>1331.5999755859</ele>
        <time>2017-07-07T07:21:41.000Z</time>
      </trkpt>
      <trkpt lat="46.83981" lon="6.54747">
        <ele>1332</ele>
        <time>2017-07-07T07:21:42.000Z</time>
      </trkpt>
      <trkpt lat="46.8399" lon="6.54753">
        <ele>1332.8000488281</ele>
        <time>2017-07-07T07:21:46.000Z</time>
      </trkpt>
      <trkpt lat="46.83995" lon="6.54755">
        <ele>1333</ele>
        <time>2017-07-07T07:21:48.000Z</time>
      </trkpt>
      <trkpt lat="46.84001" lon="6.54759">
        <ele>1334.1999511719</ele>
        <time>2017-07-07T07:21:51.000Z</time>
      </trkpt>
      <trkpt lat="46.84006" lon="6.54764">
        <ele>1335</ele>
        <time>2017-07-07T07:21:54.000Z</time>
      </trkpt>
      <trkpt lat="46.84008" lon="6.54765">
        <ele>1335.1999511719</ele>
        <time>2017-07-07T07:21:55.000Z</time>
      </trkpt>
      <trkpt lat="46.84016" lon="6.54767">
        <ele>1336.4000244141</ele>
        <time>2017-07-07T07:21:59.000Z</time>
      </trkpt>
      <trkpt lat="46.84022" lon="6.54768">
        <ele>1337.4000244141</ele>
        <time>2017-07-07T07:22:02.000Z</time>
      </trkpt>
      <trkpt lat="46.84028" lon="6.5477">
        <ele>1338</ele>
        <time>2017-07-07T07:22:05.000Z</time>
      </trkpt>
      <trkpt lat="46.84029" lon="6.5477">
        <ele>1338.1999511719</ele>
        <time>2017-07-07T07:22:06.000Z</time>
      </trkpt>
      <trkpt lat="46.84032" lon="6.54769">
        <ele>1338.5999755859</ele>
        <time>2017-07-07T07:22:09.000Z</time>
      </trkpt>
      <trkpt lat="46.84034" lon="6.54769">
        <ele>1338.8000488281</ele>
        <time>2017-07-07T07:22:11.000Z</time>
      </trkpt>
      <trkpt lat="46.84038" lon="6.54769">
        <ele>1339</ele>
        <time>2017-07-07T07:22:19.000Z</time>
      </trkpt>
      <trkpt lat="46.84037" lon="6.5477">
        <ele>1338.8000488281</ele>
        <time>2017-07-07T07:22:31.000Z</time>
      </trkpt>
      <trkpt lat="46.84037" lon="6.5477">
        <ele>1339</ele>
        <time>2017-07-07T07:22:39.000Z</time>
      </trkpt>
      <trkpt lat="46.84038" lon="6.54771">
        <ele>1339.1999511719</ele>
        <time>2017-07-07T07:22:49.000Z</time>
      </trkpt>
      <trkpt lat="46.84039" lon="6.54772">
        <ele>1339.4000244141</ele>
        <time>2017-07-07T07:22:52.000Z</time>
      </trkpt>
      <trkpt lat="46.8404" lon="6.54773">
        <ele>1339.1999511719</ele>
        <time>2017-07-07T07:22:54.000Z</time>
      </trkpt>
      <trkpt lat="46.84043" lon="6.54775">
        <ele>1339</ele>
        <time>2017-07-07T07:23:05.000Z</time>
      </trkpt>
      <trkpt lat="46.84048" lon="6.54777">
        <ele>1339.5999755859</ele>
        <time>2017-07-07T07:23:09.000Z</time>
      </trkpt>
      <trkpt lat="46.84049" lon="6.54777">
        <ele>1339.8000488281</ele>
        <time>2017-07-07T07:23:10.000Z</time>
      </trkpt>
      <trkpt lat="46.84055" lon="6.54779">
        <ele>1340.4000244141</ele>
        <time>2017-07-07T07:23:13.000Z</time>
      </trkpt>
      <trkpt lat="46.84061" lon="6.54783">
        <ele>1341</ele>
        <time>2017-07-07T07:23:16.000Z</time>
      </trkpt>
      <trkpt lat="46.84063" lon="6.54784">
        <ele>1341.1999511719</ele>
        <time>2017-07-07T07:23:17.000Z</time>
      </trkpt>
      <trkpt lat="46.84065" lon="6.54785">
        <ele>1341.5999755859</ele>
        <time>2017-07-07T07:23:18.000Z</time>
      </trkpt>
      <trkpt lat="46.84073" lon="6.5479">
        <ele>1342.8000488281</ele>
        <time>2017-07-07T07:23:22.000Z</time>
      </trkpt>
      <trkpt lat="46.84078" lon="6.54792">
        <ele>1343.5999755859</ele>
        <time>2017-07-07T07:23:25.000Z</time>
      </trkpt>
      <trkpt lat="46.8408" lon="6.54792">
        <ele>1343.8000488281</ele>
        <time>2017-07-07T07:23:26.000Z</time>
      </trkpt>
      <trkpt lat="46.84082" lon="6.54792">
        <ele>1344</ele>
        <time>2017-07-07T07:23:27.000Z</time>
      </trkpt>
      <trkpt lat="46.84086" lon="6.54794">
        <ele>1344.4000244141</ele>
        <time>2017-07-07T07:23:29.000Z</time>
      </trkpt>
      <trkpt lat="46.84089" lon="6.54801">
        <ele>1344.8000488281</ele>
        <time>2017-07-07T07:23:32.000Z</time>
      </trkpt>
      <trkpt lat="46.8409" lon="6.54803">
        <ele>1345</ele>
        <time>2017-07-07T07:23:33.000Z</time>
      </trkpt>
      <trkpt lat="46.84093" lon="6.54807">
        <ele>1345.1999511719</ele>
        <time>2017-07-07T07:23:35.000Z</time>
      </trkpt>
      <trkpt lat="46.84097" lon="6.54817">
        <ele>1346</ele>
        <time>2017-07-07T07:23:39.000Z</time>
      </trkpt>
      <trkpt lat="46.841" lon="6.54822">
        <ele>1346.4000244141</ele>
        <time>2017-07-07T07:23:41.000Z</time>
      </trkpt>
      <trkpt lat="46.84106" lon="6.54837">
        <ele>1347.1999511719</ele>
        <time>2017-07-07T07:23:46.000Z</time>
      </trkpt>
      <trkpt lat="46.8411" lon="6.54847">
        <ele>1347</ele>
        <time>2017-07-07T07:23:49.000Z</time>
      </trkpt>
      <trkpt lat="46.84118" lon="6.54869">
        <ele>1346.5999755859</ele>
        <time>2017-07-07T07:23:54.000Z</time>
      </trkpt>
      <trkpt lat="46.84123" lon="6.54886">
        <ele>1345.8000488281</ele>
        <time>2017-07-07T07:23:57.000Z</time>
      </trkpt>
      <trkpt lat="46.84125" lon="6.54892">
        <ele>1345.5999755859</ele>
        <time>2017-07-07T07:23:58.000Z</time>
      </trkpt>
      <trkpt lat="46.84125" lon="6.54913">
        <ele>1344.5999755859</ele>
        <time>2017-07-07T07:24:01.000Z</time>
      </trkpt>
      <trkpt lat="46.84124" lon="6.54919">
        <ele>1344.1999511719</ele>
        <time>2017-07-07T07:24:02.000Z</time>
      </trkpt>
      <trkpt lat="46.84124" lon="6.54923">
        <ele>1343.4000244141</ele>
        <time>2017-07-07T07:24:03.000Z</time>
      </trkpt>
      <trkpt lat="46.84125" lon="6.54927">
        <ele>1342.8000488281</ele>
        <time>2017-07-07T07:24:04.000Z</time>
      </trkpt>
      <trkpt lat="46.84125" lon="6.54933">
        <ele>1342.4000244141</ele>
        <time>2017-07-07T07:24:06.000Z</time>
      </trkpt>
      <trkpt lat="46.84126" lon="6.54937">
        <ele>1342</ele>
        <time>2017-07-07T07:24:10.000Z</time>
      </trkpt>
      <trkpt lat="46.84126" lon="6.54937">
        <ele>1341.4000244141</ele>
        <time>2017-07-07T07:24:14.000Z</time>
      </trkpt>
      <trkpt lat="46.84125" lon="6.54938">
        <ele>1341.5999755859</ele>
        <time>2017-07-07T07:24:20.000Z</time>
      </trkpt>
      <trkpt lat="46.84126" lon="6.54939">
        <ele>1340.8000488281</ele>
        <time>2017-07-07T07:24:32.000Z</time>
      </trkpt>
      <trkpt lat="46.84126" lon="6.5494">
        <ele>1340.4000244141</ele>
        <time>2017-07-07T07:24:44.000Z</time>
      </trkpt>
      <trkpt lat="46.84127" lon="6.5494">
        <ele>1340.5999755859</ele>
        <time>2017-07-07T07:24:56.000Z</time>
      </trkpt>
      <trkpt lat="46.84127" lon="6.54943">
        <ele>1341.1999511719</ele>
        <time>2017-07-07T07:25:06.000Z</time>
      </trkpt>
      <trkpt lat="46.84126" lon="6.54944">
        <ele>1341.4000244141</ele>
        <time>2017-07-07T07:25:12.000Z</time>
      </trkpt>
      <trkpt lat="46.84125" lon="6.54946">
        <ele>1341.4000244141</ele>
        <time>2017-07-07T07:25:13.000Z</time>
      </trkpt>
      <trkpt lat="46.84118" lon="6.54958">
        <ele>1340</ele>
        <time>2017-07-07T07:25:18.000Z</time>
      </trkpt>
      <trkpt lat="46.84117" lon="6.54961">
        <ele>1339.5999755859</ele>
        <time>2017-07-07T07:25:19.000Z</time>
      </trkpt>
      <trkpt lat="46.84117" lon="6.54969">
        <ele>1339.1999511719</ele>
        <time>2017-07-07T07:25:21.000Z</time>
      </trkpt>
      <trkpt lat="46.84118" lon="6.54973">
        <ele>1339.1999511719</ele>
        <time>2017-07-07T07:25:22.000Z</time>
      </trkpt>
      <trkpt lat="46.84119" lon="6.54994">
        <ele>1338.5999755859</ele>
        <time>2017-07-07T07:25:26.000Z</time>
      </trkpt>
      <trkpt lat="46.84121" lon="6.54997">
        <ele>1338.4000244141</ele>
        <time>2017-07-07T07:25:27.000Z</time>
      </trkpt>
      <trkpt lat="46.84129" lon="6.55017">
        <ele>1337.5999755859</ele>
        <time>2017-07-07T07:25:31.000Z</time>
      </trkpt>
      <trkpt lat="46.84134" lon="6.55033">
        <ele>1336.4000244141</ele>
        <time>2017-07-07T07:25:34.000Z</time>
      </trkpt>
      <trkpt lat="46.84135" lon="6.55039">
        <ele>1336</ele>
        <time>2017-07-07T07:25:35.000Z</time>
      </trkpt>
      <trkpt lat="46.84136" lon="6.55056">
        <ele>1335.1999511719</ele>
        <time>2017-07-07T07:25:38.000Z</time>
      </trkpt>
      <trkpt lat="46.84136" lon="6.55059">
        <ele>1334.8000488281</ele>
        <time>2017-07-07T07:25:39.000Z</time>
      </trkpt>
      <trkpt lat="46.84135" lon="6.55065">
        <ele>1333.5999755859</ele>
        <time>2017-07-07T07:25:41.000Z</time>
      </trkpt>
      <trkpt lat="46.84136" lon="6.55069">
        <ele>1333</ele>
        <time>2017-07-07T07:25:43.000Z</time>
      </trkpt>
      <trkpt lat="46.84136" lon="6.55071">
        <ele>1332.5999755859</ele>
        <time>2017-07-07T07:25:44.000Z</time>
      </trkpt>
      <trkpt lat="46.84135" lon="6.55073">
        <ele>1332.4000244141</ele>
        <time>2017-07-07T07:25:45.000Z</time>
      </trkpt>
      <trkpt lat="46.84135" lon="6.55082">
        <ele>1331.4000244141</ele>
        <time>2017-07-07T07:25:48.000Z</time>
      </trkpt>
      <trkpt lat="46.84136" lon="6.55089">
        <ele>1330.5999755859</ele>
        <time>2017-07-07T07:25:50.000Z</time>
      </trkpt>
      <trkpt lat="46.84138" lon="6.55093">
        <ele>1330.4000244141</ele>
        <time>2017-07-07T07:25:51.000Z</time>
      </trkpt>
      <trkpt lat="46.84139" lon="6.55097">
        <ele>1330.1999511719</ele>
        <time>2017-07-07T07:25:52.000Z</time>
      </trkpt>
      <trkpt lat="46.84142" lon="6.55103">
        <ele>1329.8000488281</ele>
        <time>2017-07-07T07:25:54.000Z</time>
      </trkpt>
      <trkpt lat="46.84146" lon="6.55116">
        <ele>1329.5999755859</ele>
        <time>2017-07-07T07:25:58.000Z</time>
      </trkpt>
      <trkpt lat="46.84152" lon="6.55133">
        <ele>1329.1999511719</ele>
        <time>2017-07-07T07:26:02.000Z</time>
      </trkpt>
      <trkpt lat="46.8416" lon="6.55153">
        <ele>1328</ele>
        <time>2017-07-07T07:26:06.000Z</time>
      </trkpt>
      <trkpt lat="46.84171" lon="6.55173">
        <ele>1327</ele>
        <time>2017-07-07T07:26:10.000Z</time>
      </trkpt>
      <trkpt lat="46.84174" lon="6.55177">
        <ele>1326.5999755859</ele>
        <time>2017-07-07T07:26:11.000Z</time>
      </trkpt>
      <trkpt lat="46.84183" lon="6.55191">
        <ele>1326.5999755859</ele>
        <time>2017-07-07T07:26:15.000Z</time>
      </trkpt>
      <trkpt lat="46.84185" lon="6.55195">
        <ele>1326.8000488281</ele>
        <time>2017-07-07T07:26:17.000Z</time>
      </trkpt>
      <trkpt lat="46.84189" lon="6.55198">
        <ele>1327</ele>
        <time>2017-07-07T07:26:19.000Z</time>
      </trkpt>
      <trkpt lat="46.84196" lon="6.55204">
        <ele>1327.1999511719</ele>
        <time>2017-07-07T07:26:22.000Z</time>
      </trkpt>
      <trkpt lat="46.84202" lon="6.5521">
        <ele>1327.1999511719</ele>
        <time>2017-07-07T07:26:24.000Z</time>
      </trkpt>
      <trkpt lat="46.8421" lon="6.55223">
        <ele>1326.4000244141</ele>
        <time>2017-07-07T07:26:28.000Z</time>
      </trkpt>
      <trkpt lat="46.84215" lon="6.55227">
        <ele>1326</ele>
        <time>2017-07-07T07:26:30.000Z</time>
      </trkpt>
      <trkpt lat="46.84217" lon="6.5523">
        <ele>1325.8000488281</ele>
        <time>2017-07-07T07:26:31.000Z</time>
      </trkpt>
      <trkpt lat="46.84224" lon="6.55237">
        <ele>1325.8000488281</ele>
        <time>2017-07-07T07:26:33.000Z</time>
      </trkpt>
      <trkpt lat="46.84234" lon="6.55248">
        <ele>1324.8000488281</ele>
        <time>2017-07-07T07:26:36.000Z</time>
      </trkpt>
      <trkpt lat="46.84239" lon="6.55254">
        <ele>1323.5999755859</ele>
        <time>2017-07-07T07:26:38.000Z</time>
      </trkpt>
      <trkpt lat="46.84248" lon="6.5526">
        <ele>1322.5999755859</ele>
        <time>2017-07-07T07:26:42.000Z</time>
      </trkpt>
      <trkpt lat="46.84251" lon="6.55259">
        <ele>1322.4000244141</ele>
        <time>2017-07-07T07:26:43.000Z</time>
      </trkpt>
      <trkpt lat="46.84259" lon="6.55254">
        <ele>1322.5999755859</ele>
        <time>2017-07-07T07:26:47.000Z</time>
      </trkpt>
      <trkpt lat="46.84264" lon="6.55254">
        <ele>1323.4000244141</ele>
        <time>2017-07-07T07:26:50.000Z</time>
      </trkpt>
      <trkpt lat="46.84267" lon="6.55253">
        <ele>1323.8000488281</ele>
        <time>2017-07-07T07:26:52.000Z</time>
      </trkpt>
      <trkpt lat="46.84269" lon="6.55255">
        <ele>1323.8000488281</ele>
        <time>2017-07-07T07:26:53.000Z</time>
      </trkpt>
      <trkpt lat="46.84281" lon="6.55266">
        <ele>1324</ele>
        <time>2017-07-07T07:26:59.000Z</time>
      </trkpt>
      <trkpt lat="46.84293" lon="6.55276">
        <ele>1324</ele>
        <time>2017-07-07T07:27:04.000Z</time>
      </trkpt>
      <trkpt lat="46.84305" lon="6.5528">
        <ele>1324</ele>
        <time>2017-07-07T07:27:08.000Z</time>
      </trkpt>
      <trkpt lat="46.84314" lon="6.55283">
        <ele>1324.4000244141</ele>
        <time>2017-07-07T07:27:11.000Z</time>
      </trkpt>
      <trkpt lat="46.84317" lon="6.55283">
        <ele>1324.5999755859</ele>
        <time>2017-07-07T07:27:12.000Z</time>
      </trkpt>
      <trkpt lat="46.84327" lon="6.55291">
        <ele>1324.4000244141</ele>
        <time>2017-07-07T07:27:16.000Z</time>
      </trkpt>
      <trkpt lat="46.84338" lon="6.55301">
        <ele>1323.5999755859</ele>
        <time>2017-07-07T07:27:20.000Z</time>
      </trkpt>
      <trkpt lat="46.84347" lon="6.55315">
        <ele>1322.5999755859</ele>
        <time>2017-07-07T07:27:24.000Z</time>
      </trkpt>
      <trkpt lat="46.84351" lon="6.5532">
        <ele>1322</ele>
        <time>2017-07-07T07:27:25.000Z</time>
      </trkpt>
      <trkpt lat="46.84361" lon="6.55332">
        <ele>1321.1999511719</ele>
        <time>2017-07-07T07:27:28.000Z</time>
      </trkpt>
      <trkpt lat="46.84363" lon="6.55335">
        <ele>1320.5999755859</ele>
        <time>2017-07-07T07:27:29.000Z</time>
      </trkpt>
      <trkpt lat="46.84365" lon="6.55339">
        <ele>1319.8000488281</ele>
        <time>2017-07-07T07:27:30.000Z</time>
      </trkpt>
      <trkpt lat="46.84366" lon="6.55343">
        <ele>1319.4000244141</ele>
        <time>2017-07-07T07:27:31.000Z</time>
      </trkpt>
      <trkpt lat="46.8437" lon="6.55359">
        <ele>1318</ele>
        <time>2017-07-07T07:27:35.000Z</time>
      </trkpt>
      <trkpt lat="46.84372" lon="6.55366">
        <ele>1316.8000488281</ele>
        <time>2017-07-07T07:27:37.000Z</time>
      </trkpt>
      <trkpt lat="46.84375" lon="6.55369">
        <ele>1315.4000244141</ele>
        <time>2017-07-07T07:27:39.000Z</time>
      </trkpt>
      <trkpt lat="46.8438" lon="6.5538">
        <ele>1314.4000244141</ele>
        <time>2017-07-07T07:27:43.000Z</time>
      </trkpt>
      <trkpt lat="46.84382" lon="6.55384">
        <ele>1314</ele>
        <time>2017-07-07T07:27:44.000Z</time>
      </trkpt>
      <trkpt lat="46.84385" lon="6.5539">
        <ele>1312.4000244141</ele>
        <time>2017-07-07T07:27:46.000Z</time>
      </trkpt>
      <trkpt lat="46.84386" lon="6.55393">
        <ele>1311.8000488281</ele>
        <time>2017-07-07T07:27:47.000Z</time>
      </trkpt>
      <trkpt lat="46.84389" lon="6.55399">
        <ele>1311.4000244141</ele>
        <time>2017-07-07T07:27:49.000Z</time>
      </trkpt>
      <trkpt lat="46.84391" lon="6.554">
        <ele>1311.4000244141</ele>
        <time>2017-07-07T07:27:52.000Z</time>
      </trkpt>
      <trkpt lat="46.84396" lon="6.55403">
        <ele>1312.4000244141</ele>
        <time>2017-07-07T07:28:01.000Z</time>
      </trkpt>
      <trkpt lat="46.84396" lon="6.55403">
        <ele>1312.8000488281</ele>
        <time>2017-07-07T07:28:03.000Z</time>
      </trkpt>
      <trkpt lat="46.84399" lon="6.55409">
        <ele>1312.5999755859</ele>
        <time>2017-07-07T07:28:11.000Z</time>
      </trkpt>
      <trkpt lat="46.84403" lon="6.5542">
        <ele>1312.5999755859</ele>
        <time>2017-07-07T07:28:16.000Z</time>
      </trkpt>
      <trkpt lat="46.84408" lon="6.55429">
        <ele>1312.5999755859</ele>
        <time>2017-07-07T07:28:20.000Z</time>
      </trkpt>
      <trkpt lat="46.84414" lon="6.55441">
        <ele>1312.8000488281</ele>
        <time>2017-07-07T07:28:24.000Z</time>
      </trkpt>
      <trkpt lat="46.84416" lon="6.5546">
        <ele>1311.5999755859</ele>
        <time>2017-07-07T07:28:29.000Z</time>
      </trkpt>
      <trkpt lat="46.84415" lon="6.55464">
        <ele>1311</ele>
        <time>2017-07-07T07:28:30.000Z</time>
      </trkpt>
      <trkpt lat="46.84413" lon="6.5547">
        <ele>1309.8000488281</ele>
        <time>2017-07-07T07:28:32.000Z</time>
      </trkpt>
      <trkpt lat="46.84412" lon="6.55473">
        <ele>1309.4000244141</ele>
        <time>2017-07-07T07:28:33.000Z</time>
      </trkpt>
      <trkpt lat="46.8441" lon="6.55481">
        <ele>1308</ele>
        <time>2017-07-07T07:28:35.000Z</time>
      </trkpt>
      <trkpt lat="46.84405" lon="6.55489">
        <ele>1306.1999511719</ele>
        <time>2017-07-07T07:28:37.000Z</time>
      </trkpt>
      <trkpt lat="46.844" lon="6.55498">
        <ele>1304.5999755859</ele>
        <time>2017-07-07T07:28:39.000Z</time>
      </trkpt>
      <trkpt lat="46.84396" lon="6.55511">
        <ele>1302.8000488281</ele>
        <time>2017-07-07T07:28:42.000Z</time>
      </trkpt>
      <trkpt lat="46.84393" lon="6.55519">
        <ele>1301.1999511719</ele>
        <time>2017-07-07T07:28:44.000Z</time>
      </trkpt>
      <trkpt lat="46.84391" lon="6.55525">
        <ele>1300</ele>
        <time>2017-07-07T07:28:46.000Z</time>
      </trkpt>
      <trkpt lat="46.8439" lon="6.5553">
        <ele>1299.5999755859</ele>
        <time>2017-07-07T07:28:47.000Z</time>
      </trkpt>
      <trkpt lat="46.84389" lon="6.55535">
        <ele>1298.8000488281</ele>
        <time>2017-07-07T07:28:48.000Z</time>
      </trkpt>
      <trkpt lat="46.8439" lon="6.55547">
        <ele>1297.5999755859</ele>
        <time>2017-07-07T07:28:50.000Z</time>
      </trkpt>
      <trkpt lat="46.84391" lon="6.55554">
        <ele>1297</ele>
        <time>2017-07-07T07:28:51.000Z</time>
      </trkpt>
      <trkpt lat="46.84392" lon="6.55561">
        <ele>1296.4000244141</ele>
        <time>2017-07-07T07:28:52.000Z</time>
      </trkpt>
      <trkpt lat="46.84392" lon="6.55574">
        <ele>1295.4000244141</ele>
        <time>2017-07-07T07:28:54.000Z</time>
      </trkpt>
      <trkpt lat="46.84392" lon="6.55581">
        <ele>1294.8000488281</ele>
        <time>2017-07-07T07:28:55.000Z</time>
      </trkpt>
      <trkpt lat="46.84391" lon="6.55587">
        <ele>1294.1999511719</ele>
        <time>2017-07-07T07:28:56.000Z</time>
      </trkpt>
      <trkpt lat="46.84391" lon="6.55599">
        <ele>1292.4000244141</ele>
        <time>2017-07-07T07:28:58.000Z</time>
      </trkpt>
      <trkpt lat="46.84394" lon="6.55611">
        <ele>1291</ele>
        <time>2017-07-07T07:29:00.000Z</time>
      </trkpt>
      <trkpt lat="46.84395" lon="6.55617">
        <ele>1290.1999511719</ele>
        <time>2017-07-07T07:29:01.000Z</time>
      </trkpt>
      <trkpt lat="46.84396" lon="6.55624">
        <ele>1289.8000488281</ele>
        <time>2017-07-07T07:29:02.000Z</time>
      </trkpt>
      <trkpt lat="46.84396" lon="6.55636">
        <ele>1288.5999755859</ele>
        <time>2017-07-07T07:29:04.000Z</time>
      </trkpt>
      <trkpt lat="46.84396" lon="6.5565">
        <ele>1286.5999755859</ele>
        <time>2017-07-07T07:29:06.000Z</time>
      </trkpt>
      <trkpt lat="46.84396" lon="6.55656">
        <ele>1285.5999755859</ele>
        <time>2017-07-07T07:29:07.000Z</time>
      </trkpt>
      <trkpt lat="46.84396" lon="6.55662">
        <ele>1284.1999511719</ele>
        <time>2017-07-07T07:29:08.000Z</time>
      </trkpt>
      <trkpt lat="46.84395" lon="6.55668">
        <ele>1283.1999511719</ele>
        <time>2017-07-07T07:29:09.000Z</time>
      </trkpt>
      <trkpt lat="46.84395" lon="6.55674">
        <ele>1282.4000244141</ele>
        <time>2017-07-07T07:29:10.000Z</time>
      </trkpt>
      <trkpt lat="46.84396" lon="6.5568">
        <ele>1281.4000244141</ele>
        <time>2017-07-07T07:29:11.000Z</time>
      </trkpt>
      <trkpt lat="46.84398" lon="6.55689">
        <ele>1280</ele>
        <time>2017-07-07T07:29:13.000Z</time>
      </trkpt>
      <trkpt lat="46.844" lon="6.55699">
        <ele>1278.8000488281</ele>
        <time>2017-07-07T07:29:15.000Z</time>
      </trkpt>
      <trkpt lat="46.84406" lon="6.55716">
        <ele>1277.4000244141</ele>
        <time>2017-07-07T07:29:18.000Z</time>
      </trkpt>
      <trkpt lat="46.84408" lon="6.5572">
        <ele>1277</ele>
        <time>2017-07-07T07:29:19.000Z</time>
      </trkpt>
      <trkpt lat="46.84412" lon="6.55728">
        <ele>1276.4000244141</ele>
        <time>2017-07-07T07:29:21.000Z</time>
      </trkpt>
      <trkpt lat="46.84414" lon="6.5574">
        <ele>1274.8000488281</ele>
        <time>2017-07-07T07:29:24.000Z</time>
      </trkpt>
      <trkpt lat="46.84414" lon="6.55746">
        <ele>1274.5999755859</ele>
        <time>2017-07-07T07:29:26.000Z</time>
      </trkpt>
      <trkpt lat="46.84411" lon="6.55748">
        <ele>1273.8000488281</ele>
        <time>2017-07-07T07:29:28.000Z</time>
      </trkpt>
      <trkpt lat="46.8441" lon="6.55751">
        <ele>1273</ele>
        <time>2017-07-07T07:29:30.000Z</time>
      </trkpt>
      <trkpt lat="46.8441" lon="6.55754">
        <ele>1272.5999755859</ele>
        <time>2017-07-07T07:29:31.000Z</time>
      </trkpt>
      <trkpt lat="46.8441" lon="6.55758">
        <ele>1272.1999511719</ele>
        <time>2017-07-07T07:29:32.000Z</time>
      </trkpt>
      <trkpt lat="46.84412" lon="6.55769">
        <ele>1271.1999511719</ele>
        <time>2017-07-07T07:29:34.000Z</time>
      </trkpt>
      <trkpt lat="46.84412" lon="6.55776">
        <ele>1270.4000244141</ele>
        <time>2017-07-07T07:29:36.000Z</time>
      </trkpt>
      <trkpt lat="46.84411" lon="6.55779">
        <ele>1270</ele>
        <time>2017-07-07T07:29:37.000Z</time>
      </trkpt>
      <trkpt lat="46.84408" lon="6.55786">
        <ele>1268.5999755859</ele>
        <time>2017-07-07T07:29:39.000Z</time>
      </trkpt>
      <trkpt lat="46.84406" lon="6.55788">
        <ele>1267.8000488281</ele>
        <time>2017-07-07T07:29:40.000Z</time>
      </trkpt>
      <trkpt lat="46.84404" lon="6.5579">
        <ele>1266.8000488281</ele>
        <time>2017-07-07T07:29:41.000Z</time>
      </trkpt>
      <trkpt lat="46.84401" lon="6.5579">
        <ele>1266.4000244141</ele>
        <time>2017-07-07T07:29:42.000Z</time>
      </trkpt>
      <trkpt lat="46.84397" lon="6.55787">
        <ele>1265.5999755859</ele>
        <time>2017-07-07T07:29:44.000Z</time>
      </trkpt>
      <trkpt lat="46.84395" lon="6.55784">
        <ele>1265.5999755859</ele>
        <time>2017-07-07T07:29:45.000Z</time>
      </trkpt>
      <trkpt lat="46.84392" lon="6.55778">
        <ele>1265.8000488281</ele>
        <time>2017-07-07T07:29:47.000Z</time>
      </trkpt>
      <trkpt lat="46.84376" lon="6.55758">
        <ele>1266.5999755859</ele>
        <time>2017-07-07T07:29:52.000Z</time>
      </trkpt>
      <trkpt lat="46.84373" lon="6.55754">
        <ele>1266.5999755859</ele>
        <time>2017-07-07T07:29:53.000Z</time>
      </trkpt>
      <trkpt lat="46.84369" lon="6.55751">
        <ele>1266.8000488281</ele>
        <time>2017-07-07T07:29:54.000Z</time>
      </trkpt>
      <trkpt lat="46.8436" lon="6.55744">
        <ele>1266.8000488281</ele>
        <time>2017-07-07T07:29:56.000Z</time>
      </trkpt>
      <trkpt lat="46.84343" lon="6.55727">
        <ele>1266.8000488281</ele>
        <time>2017-07-07T07:30:00.000Z</time>
      </trkpt>
      <trkpt lat="46.8432" lon="6.557">
        <ele>1266.1999511719</ele>
        <time>2017-07-07T07:30:05.000Z</time>
      </trkpt>
      <trkpt lat="46.84314" lon="6.55694">
        <ele>1265.8000488281</ele>
        <time>2017-07-07T07:30:07.000Z</time>
      </trkpt>
      <trkpt lat="46.84314" lon="6.55693">
        <ele>1265.4000244141</ele>
        <time>2017-07-07T07:30:08.000Z</time>
      </trkpt>
      <trkpt lat="46.84314" lon="6.55697">
        <ele>1264.5999755859</ele>
        <time>2017-07-07T07:30:11.000Z</time>
      </trkpt>
      <trkpt lat="46.84314" lon="6.55701">
        <ele>1264.5999755859</ele>
        <time>2017-07-07T07:30:13.000Z</time>
      </trkpt>
      <trkpt lat="46.84314" lon="6.55712">
        <ele>1264.4000244141</ele>
        <time>2017-07-07T07:30:17.000Z</time>
      </trkpt>
      <trkpt lat="46.84315" lon="6.55721">
        <ele>1264</ele>
        <time>2017-07-07T07:30:19.000Z</time>
      </trkpt>
      <trkpt lat="46.84316" lon="6.55731">
        <ele>1263.1999511719</ele>
        <time>2017-07-07T07:30:21.000Z</time>
      </trkpt>
      <trkpt lat="46.84316" lon="6.55736">
        <ele>1262.4000244141</ele>
        <time>2017-07-07T07:30:22.000Z</time>
      </trkpt>
      <trkpt lat="46.84316" lon="6.55741">
        <ele>1261.5999755859</ele>
        <time>2017-07-07T07:30:23.000Z</time>
      </trkpt>
      <trkpt lat="46.84316" lon="6.55754">
        <ele>1259.8000488281</ele>
        <time>2017-07-07T07:30:26.000Z</time>
      </trkpt>
      <trkpt lat="46.84316" lon="6.55758">
        <ele>1259.1999511719</ele>
        <time>2017-07-07T07:30:27.000Z</time>
      </trkpt>
      <trkpt lat="46.84316" lon="6.55761">
        <ele>1258.5999755859</ele>
        <time>2017-07-07T07:30:28.000Z</time>
      </trkpt>
      <trkpt lat="46.84315" lon="6.55768">
        <ele>1257.5999755859</ele>
        <time>2017-07-07T07:30:30.000Z</time>
      </trkpt>
      <trkpt lat="46.84315" lon="6.55773">
        <ele>1256.4000244141</ele>
        <time>2017-07-07T07:30:32.000Z</time>
      </trkpt>
      <trkpt lat="46.84314" lon="6.55776">
        <ele>1255.8000488281</ele>
        <time>2017-07-07T07:30:33.000Z</time>
      </trkpt>
      <trkpt lat="46.84311" lon="6.55777">
        <ele>1255</ele>
        <time>2017-07-07T07:30:35.000Z</time>
      </trkpt>
      <trkpt lat="46.8431" lon="6.55775">
        <ele>1254.8000488281</ele>
        <time>2017-07-07T07:30:37.000Z</time>
      </trkpt>
      <trkpt lat="46.84306" lon="6.55763">
        <ele>1254.5999755859</ele>
        <time>2017-07-07T07:30:41.000Z</time>
      </trkpt>
      <trkpt lat="46.843" lon="6.55751">
        <ele>1254.8000488281</ele>
        <time>2017-07-07T07:30:45.000Z</time>
      </trkpt>
      <trkpt lat="46.84287" lon="6.55737">
        <ele>1254.8000488281</ele>
        <time>2017-07-07T07:30:49.000Z</time>
      </trkpt>
      <trkpt lat="46.84272" lon="6.55717">
        <ele>1254.5999755859</ele>
        <time>2017-07-07T07:30:54.000Z</time>
      </trkpt>
      <trkpt lat="46.84265" lon="6.55694">
        <ele>1254</ele>
        <time>2017-07-07T07:30:59.000Z</time>
      </trkpt>
      <trkpt lat="46.84262" lon="6.55672">
        <ele>1256.1999511719</ele>
        <time>2017-07-07T07:31:04.000Z</time>
      </trkpt>
      <trkpt lat="46.84261" lon="6.55669">
        <ele>1257</ele>
        <time>2017-07-07T07:31:05.000Z</time>
      </trkpt>
      <trkpt lat="46.8426" lon="6.55665">
        <ele>1257.8000488281</ele>
        <time>2017-07-07T07:31:06.000Z</time>
      </trkpt>
      <trkpt lat="46.84258" lon="6.55656">
        <ele>1258.8000488281</ele>
        <time>2017-07-07T07:31:08.000Z</time>
      </trkpt>
      <trkpt lat="46.84256" lon="6.55652">
        <ele>1259.4000244141</ele>
        <time>2017-07-07T07:31:09.000Z</time>
      </trkpt>
      <trkpt lat="46.84255" lon="6.55646">
        <ele>1260.4000244141</ele>
        <time>2017-07-07T07:31:11.000Z</time>
      </trkpt>
      <trkpt lat="46.84254" lon="6.55644">
        <ele>1260.8000488281</ele>
        <time>2017-07-07T07:31:12.000Z</time>
      </trkpt>
      <trkpt lat="46.84242" lon="6.55644">
        <ele>1261.1999511719</ele>
        <time>2017-07-07T07:31:17.000Z</time>
      </trkpt>
      <trkpt lat="46.84239" lon="6.55646">
        <ele>1261</ele>
        <time>2017-07-07T07:31:18.000Z</time>
      </trkpt>
      <trkpt lat="46.84226" lon="6.55648">
        <ele>1260</ele>
        <time>2017-07-07T07:31:21.000Z</time>
      </trkpt>
      <trkpt lat="46.84223" lon="6.55647">
        <ele>1259.4000244141</ele>
        <time>2017-07-07T07:31:22.000Z</time>
      </trkpt>
      <trkpt lat="46.8422" lon="6.55648">
        <ele>1258.1999511719</ele>
        <time>2017-07-07T07:31:24.000Z</time>
      </trkpt>
      <trkpt lat="46.84217" lon="6.5565">
        <ele>1257.5999755859</ele>
        <time>2017-07-07T07:31:26.000Z</time>
      </trkpt>
      <trkpt lat="46.84215" lon="6.55652">
        <ele>1256.8000488281</ele>
        <time>2017-07-07T07:31:28.000Z</time>
      </trkpt>
      <trkpt lat="46.84214" lon="6.55652">
        <ele>1255.5999755859</ele>
        <time>2017-07-07T07:31:30.000Z</time>
      </trkpt>
      <trkpt lat="46.84213" lon="6.55653">
        <ele>1255.1999511719</ele>
        <time>2017-07-07T07:31:32.000Z</time>
      </trkpt>
      <trkpt lat="46.84213" lon="6.55653">
        <ele>1254.5999755859</ele>
        <time>2017-07-07T07:31:35.000Z</time>
      </trkpt>
      <trkpt lat="46.84213" lon="6.55652">
        <ele>1254.5999755859</ele>
        <time>2017-07-07T07:31:44.000Z</time>
      </trkpt>
      <trkpt lat="46.84212" lon="6.55654">
        <ele>1254.4000244141</ele>
        <time>2017-07-07T07:31:55.000Z</time>
      </trkpt>
      <trkpt lat="46.84211" lon="6.55657">
        <ele>1254.1999511719</ele>
        <time>2017-07-07T07:32:04.000Z</time>
      </trkpt>
      <trkpt lat="46.84207" lon="6.55658">
        <ele>1254</ele>
        <time>2017-07-07T07:32:08.000Z</time>
      </trkpt>
      <trkpt lat="46.84197" lon="6.55662">
        <ele>1253.4000244141</ele>
        <time>2017-07-07T07:32:11.000Z</time>
      </trkpt>
      <trkpt lat="46.84192" lon="6.55663">
        <ele>1253.1999511719</ele>
        <time>2017-07-07T07:32:12.000Z</time>
      </trkpt>
      <trkpt lat="46.84183" lon="6.55663">
        <ele>1252.1999511719</ele>
        <time>2017-07-07T07:32:14.000Z</time>
      </trkpt>
      <trkpt lat="46.84175" lon="6.55659">
        <ele>1251.1999511719</ele>
        <time>2017-07-07T07:32:16.000Z</time>
      </trkpt>
      <trkpt lat="46.8417" lon="6.55658">
        <ele>1250.5999755859</ele>
        <time>2017-07-07T07:32:17.000Z</time>
      </trkpt>
      <trkpt lat="46.8416" lon="6.55656">
        <ele>1249.4000244141</ele>
        <time>2017-07-07T07:32:19.000Z</time>
      </trkpt>
      <trkpt lat="46.84156" lon="6.55657">
        <ele>1248.8000488281</ele>
        <time>2017-07-07T07:32:20.000Z</time>
      </trkpt>
      <trkpt lat="46.84151" lon="6.55659">
        <ele>1248.1999511719</ele>
        <time>2017-07-07T07:32:21.000Z</time>
      </trkpt>
      <trkpt lat="46.84142" lon="6.55664">
        <ele>1247</ele>
        <time>2017-07-07T07:32:23.000Z</time>
      </trkpt>
      <trkpt lat="46.84139" lon="6.55667">
        <ele>1246.4000244141</ele>
        <time>2017-07-07T07:32:24.000Z</time>
      </trkpt>
      <trkpt lat="46.84135" lon="6.55669">
        <ele>1246</ele>
        <time>2017-07-07T07:32:25.000Z</time>
      </trkpt>
      <trkpt lat="46.84122" lon="6.55675">
        <ele>1244.1999511719</ele>
        <time>2017-07-07T07:32:29.000Z</time>
      </trkpt>
      <trkpt lat="46.84119" lon="6.55676">
        <ele>1243.8000488281</ele>
        <time>2017-07-07T07:32:30.000Z</time>
      </trkpt>
      <trkpt lat="46.84112" lon="6.55678">
        <ele>1243</ele>
        <time>2017-07-07T07:32:32.000Z</time>
      </trkpt>
      <trkpt lat="46.841" lon="6.55685">
        <ele>1242.5999755859</ele>
        <time>2017-07-07T07:32:35.000Z</time>
      </trkpt>
      <trkpt lat="46.84085" lon="6.55695">
        <ele>1241.5999755859</ele>
        <time>2017-07-07T07:32:38.000Z</time>
      </trkpt>
      <trkpt lat="46.84081" lon="6.55698">
        <ele>1241.4000244141</ele>
        <time>2017-07-07T07:32:39.000Z</time>
      </trkpt>
      <trkpt lat="46.84078" lon="6.557">
        <ele>1241.1999511719</ele>
        <time>2017-07-07T07:32:40.000Z</time>
      </trkpt>
      <trkpt lat="46.84069" lon="6.55706">
        <ele>1241</ele>
        <time>2017-07-07T07:32:44.000Z</time>
      </trkpt>
      <trkpt lat="46.84063" lon="6.55716">
        <ele>1241.1999511719</ele>
        <time>2017-07-07T07:32:48.000Z</time>
      </trkpt>
      <trkpt lat="46.84062" lon="6.55735">
        <ele>1240.8000488281</ele>
        <time>2017-07-07T07:32:52.000Z</time>
      </trkpt>
      <trkpt lat="46.84061" lon="6.55748">
        <ele>1240.5999755859</ele>
        <time>2017-07-07T07:32:55.000Z</time>
      </trkpt>
      <trkpt lat="46.84061" lon="6.55754">
        <ele>1240.5999755859</ele>
        <time>2017-07-07T07:32:56.000Z</time>
      </trkpt>
      <trkpt lat="46.8406" lon="6.55762">
        <ele>1240.1999511719</ele>
        <time>2017-07-07T07:32:58.000Z</time>
      </trkpt>
      <trkpt lat="46.84059" lon="6.55771">
        <ele>1239.1999511719</ele>
        <time>2017-07-07T07:33:00.000Z</time>
      </trkpt>
      <trkpt lat="46.84059" lon="6.55791">
        <ele>1237.8000488281</ele>
        <time>2017-07-07T07:33:05.000Z</time>
      </trkpt>
      <trkpt lat="46.84058" lon="6.55797">
        <ele>1237.5999755859</ele>
        <time>2017-07-07T07:33:06.000Z</time>
      </trkpt>
      <trkpt lat="46.84058" lon="6.55811">
        <ele>1236.8000488281</ele>
        <time>2017-07-07T07:33:08.000Z</time>
      </trkpt>
      <trkpt lat="46.84056" lon="6.55816">
        <ele>1235.5999755859</ele>
        <time>2017-07-07T07:33:09.000Z</time>
      </trkpt>
      <trkpt lat="46.84049" lon="6.55825">
        <ele>1234.4000244141</ele>
        <time>2017-07-07T07:33:12.000Z</time>
      </trkpt>
      <trkpt lat="46.84043" lon="6.55836">
        <ele>1233.1999511719</ele>
        <time>2017-07-07T07:33:15.000Z</time>
      </trkpt>
      <trkpt lat="46.84041" lon="6.55843">
        <ele>1232.4000244141</ele>
        <time>2017-07-07T07:33:16.000Z</time>
      </trkpt>
      <trkpt lat="46.8404" lon="6.55849">
        <ele>1231.4000244141</ele>
        <time>2017-07-07T07:33:17.000Z</time>
      </trkpt>
      <trkpt lat="46.84039" lon="6.55861">
        <ele>1230</ele>
        <time>2017-07-07T07:33:19.000Z</time>
      </trkpt>
      <trkpt lat="46.84039" lon="6.55868">
        <ele>1229</ele>
        <time>2017-07-07T07:33:20.000Z</time>
      </trkpt>
      <trkpt lat="46.84037" lon="6.55873">
        <ele>1228.8000488281</ele>
        <time>2017-07-07T07:33:21.000Z</time>
      </trkpt>
      <trkpt lat="46.84032" lon="6.55881">
        <ele>1228</ele>
        <time>2017-07-07T07:33:23.000Z</time>
      </trkpt>
      <trkpt lat="46.84026" lon="6.55885">
        <ele>1227.4000244141</ele>
        <time>2017-07-07T07:33:25.000Z</time>
      </trkpt>
      <trkpt lat="46.84014" lon="6.5589">
        <ele>1227</ele>
        <time>2017-07-07T07:33:28.000Z</time>
      </trkpt>
      <trkpt lat="46.84006" lon="6.55889">
        <ele>1226.1999511719</ele>
        <time>2017-07-07T07:33:30.000Z</time>
      </trkpt>
      <trkpt lat="46.83993" lon="6.55885">
        <ele>1225.8000488281</ele>
        <time>2017-07-07T07:33:34.000Z</time>
      </trkpt>
      <trkpt lat="46.83985" lon="6.55883">
        <ele>1226</ele>
        <time>2017-07-07T07:33:36.000Z</time>
      </trkpt>
      <trkpt lat="46.83972" lon="6.55882">
        <ele>1226.4000244141</ele>
        <time>2017-07-07T07:33:39.000Z</time>
      </trkpt>
      <trkpt lat="46.83944" lon="6.55877">
        <ele>1226.8000488281</ele>
        <time>2017-07-07T07:33:46.000Z</time>
      </trkpt>
      <trkpt lat="46.83928" lon="6.55872">
        <ele>1227.1999511719</ele>
        <time>2017-07-07T07:33:51.000Z</time>
      </trkpt>
      <trkpt lat="46.83926" lon="6.5587">
        <ele>1227.5999755859</ele>
        <time>2017-07-07T07:33:52.000Z</time>
      </trkpt>
      <trkpt lat="46.83918" lon="6.55864">
        <ele>1227.4000244141</ele>
        <time>2017-07-07T07:33:58.000Z</time>
      </trkpt>
      <trkpt lat="46.83918" lon="6.55865">
        <ele>1227.5999755859</ele>
        <time>2017-07-07T07:34:04.000Z</time>
      </trkpt>
      <trkpt lat="46.83918" lon="6.55867">
        <ele>1227.4000244141</ele>
        <time>2017-07-07T07:34:12.000Z</time>
      </trkpt>
      <trkpt lat="46.83917" lon="6.55868">
        <ele>1227.1999511719</ele>
        <time>2017-07-07T07:34:18.000Z</time>
      </trkpt>
      <trkpt lat="46.83915" lon="6.55866">
        <ele>1227.5999755859</ele>
        <time>2017-07-07T07:34:23.000Z</time>
      </trkpt>
      <trkpt lat="46.83915" lon="6.55865">
        <ele>1227.5999755859</ele>
        <time>2017-07-07T07:34:26.000Z</time>
      </trkpt>
      <trkpt lat="46.83915" lon="6.55865">
        <ele>1227</ele>
        <time>2017-07-07T07:34:32.000Z</time>
      </trkpt>
      <trkpt lat="46.8391" lon="6.55861">
        <ele>1227.1999511719</ele>
        <time>2017-07-07T07:34:35.000Z</time>
      </trkpt>
      <trkpt lat="46.83887" lon="6.55853">
        <ele>1227.4000244141</ele>
        <time>2017-07-07T07:34:41.000Z</time>
      </trkpt>
      <trkpt lat="46.83855" lon="6.5584">
        <ele>1226.1999511719</ele>
        <time>2017-07-07T07:34:47.000Z</time>
      </trkpt>
      <trkpt lat="46.83826" lon="6.55829">
        <ele>1224.8000488281</ele>
        <time>2017-07-07T07:34:52.000Z</time>
      </trkpt>
      <trkpt lat="46.8381" lon="6.55822">
        <ele>1224.5999755859</ele>
        <time>2017-07-07T07:34:55.000Z</time>
      </trkpt>
      <trkpt lat="46.83779" lon="6.55809">
        <ele>1224.1999511719</ele>
        <time>2017-07-07T07:35:01.000Z</time>
      </trkpt>
      <trkpt lat="46.8377" lon="6.55805">
        <ele>1223.8000488281</ele>
        <time>2017-07-07T07:35:03.000Z</time>
      </trkpt>
      <trkpt lat="46.83759" lon="6.558">
        <ele>1223.1999511719</ele>
        <time>2017-07-07T07:35:06.000Z</time>
      </trkpt>
      <trkpt lat="46.83727" lon="6.5579">
        <ele>1223.1999511719</ele>
        <time>2017-07-07T07:35:14.000Z</time>
      </trkpt>
      <trkpt lat="46.83702" lon="6.55778">
        <ele>1222.8000488281</ele>
        <time>2017-07-07T07:35:20.000Z</time>
      </trkpt>
      <trkpt lat="46.83698" lon="6.55776">
        <ele>1222.5999755859</ele>
        <time>2017-07-07T07:35:21.000Z</time>
      </trkpt>
      <trkpt lat="46.8366" lon="6.55759">
        <ele>1222.1999511719</ele>
        <time>2017-07-07T07:35:31.000Z</time>
      </trkpt>
      <trkpt lat="46.83645" lon="6.55745">
        <ele>1222.5999755859</ele>
        <time>2017-07-07T07:35:36.000Z</time>
      </trkpt>
      <trkpt lat="46.83632" lon="6.55728">
        <ele>1222.4000244141</ele>
        <time>2017-07-07T07:35:40.000Z</time>
      </trkpt>
      <trkpt lat="46.83629" lon="6.55722">
        <ele>1222.1999511719</ele>
        <time>2017-07-07T07:35:41.000Z</time>
      </trkpt>
      <trkpt lat="46.83628" lon="6.5571">
        <ele>1221.4000244141</ele>
        <time>2017-07-07T07:35:43.000Z</time>
      </trkpt>
      <trkpt lat="46.83627" lon="6.55705">
        <ele>1221.1999511719</ele>
        <time>2017-07-07T07:35:44.000Z</time>
      </trkpt>
      <trkpt lat="46.83626" lon="6.55692">
        <ele>1220.4000244141</ele>
        <time>2017-07-07T07:35:46.000Z</time>
      </trkpt>
      <trkpt lat="46.83627" lon="6.55677">
        <ele>1219.8000488281</ele>
        <time>2017-07-07T07:35:48.000Z</time>
      </trkpt>
      <trkpt lat="46.83629" lon="6.55652">
        <ele>1219.5999755859</ele>
        <time>2017-07-07T07:35:51.000Z</time>
      </trkpt>
      <trkpt lat="46.83629" lon="6.5563">
        <ele>1219.5999755859</ele>
        <time>2017-07-07T07:35:54.000Z</time>
      </trkpt>
      <trkpt lat="46.83622" lon="6.55615">
        <ele>1219.1999511719</ele>
        <time>2017-07-07T07:35:57.000Z</time>
      </trkpt>
      <trkpt lat="46.83618" lon="6.55611">
        <ele>1219</ele>
        <time>2017-07-07T07:35:58.000Z</time>
      </trkpt>
      <trkpt lat="46.83615" lon="6.55607">
        <ele>1218.8000488281</ele>
        <time>2017-07-07T07:35:59.000Z</time>
      </trkpt>
      <trkpt lat="46.83606" lon="6.55597">
        <ele>1218</ele>
        <time>2017-07-07T07:36:01.000Z</time>
      </trkpt>
      <trkpt lat="46.83598" lon="6.55587">
        <ele>1217.5999755859</ele>
        <time>2017-07-07T07:36:03.000Z</time>
      </trkpt>
      <trkpt lat="46.83586" lon="6.55572">
        <ele>1217</ele>
        <time>2017-07-07T07:36:06.000Z</time>
      </trkpt>
      <trkpt lat="46.83571" lon="6.55558">
        <ele>1216.4000244141</ele>
        <time>2017-07-07T07:36:09.000Z</time>
      </trkpt>
      <trkpt lat="46.83561" lon="6.55549">
        <ele>1215.8000488281</ele>
        <time>2017-07-07T07:36:11.000Z</time>
      </trkpt>
      <trkpt lat="46.83544" lon="6.55535">
        <ele>1216</ele>
        <time>2017-07-07T07:36:15.000Z</time>
      </trkpt>
      <trkpt lat="46.83509" lon="6.5551">
        <ele>1216.1999511719</ele>
        <time>2017-07-07T07:36:23.000Z</time>
      </trkpt>
      <trkpt lat="46.8348" lon="6.55484">
        <ele>1217</ele>
        <time>2017-07-07T07:36:31.000Z</time>
      </trkpt>
      <trkpt lat="46.83476" lon="6.55481">
        <ele>1216.8000488281</ele>
        <time>2017-07-07T07:36:32.000Z</time>
      </trkpt>
      <trkpt lat="46.83449" lon="6.55462">
        <ele>1215.8000488281</ele>
        <time>2017-07-07T07:36:37.000Z</time>
      </trkpt>
      <trkpt lat="46.83434" lon="6.55446">
        <ele>1214.4000244141</ele>
        <time>2017-07-07T07:36:40.000Z</time>
      </trkpt>
      <trkpt lat="46.83426" lon="6.55437">
        <ele>1213.4000244141</ele>
        <time>2017-07-07T07:36:42.000Z</time>
      </trkpt>
      <trkpt lat="46.83424" lon="6.55432">
        <ele>1213.1999511719</ele>
        <time>2017-07-07T07:36:43.000Z</time>
      </trkpt>
      <trkpt lat="46.83421" lon="6.55423">
        <ele>1212.8000488281</ele>
        <time>2017-07-07T07:36:45.000Z</time>
      </trkpt>
      <trkpt lat="46.8342" lon="6.5542">
        <ele>1212.8000488281</ele>
        <time>2017-07-07T07:36:46.000Z</time>
      </trkpt>
      <trkpt lat="46.83414" lon="6.55406">
        <ele>1212.8000488281</ele>
        <time>2017-07-07T07:36:50.000Z</time>
      </trkpt>
      <trkpt lat="46.83405" lon="6.55374">
        <ele>1213.5999755859</ele>
        <time>2017-07-07T07:36:57.000Z</time>
      </trkpt>
      <trkpt lat="46.83391" lon="6.55352">
        <ele>1213.4000244141</ele>
        <time>2017-07-07T07:37:03.000Z</time>
      </trkpt>
      <trkpt lat="46.83383" lon="6.55333">
        <ele>1214.1999511719</ele>
        <time>2017-07-07T07:37:07.000Z</time>
      </trkpt>
      <trkpt lat="46.8338" lon="6.55323">
        <ele>1214.8000488281</ele>
        <time>2017-07-07T07:37:09.000Z</time>
      </trkpt>
      <trkpt lat="46.83375" lon="6.55296">
        <ele>1215.4000244141</ele>
        <time>2017-07-07T07:37:14.000Z</time>
      </trkpt>
      <trkpt lat="46.83374" lon="6.55291">
        <ele>1216</ele>
        <time>2017-07-07T07:37:15.000Z</time>
      </trkpt>
      <trkpt lat="46.83375" lon="6.55247">
        <ele>1216</ele>
        <time>2017-07-07T07:37:23.000Z</time>
      </trkpt>
      <trkpt lat="46.83379" lon="6.55229">
        <ele>1216.5999755859</ele>
        <time>2017-07-07T07:37:26.000Z</time>
      </trkpt>
      <trkpt lat="46.8338" lon="6.55224">
        <ele>1216.8000488281</ele>
        <time>2017-07-07T07:37:27.000Z</time>
      </trkpt>
      <trkpt lat="46.8338" lon="6.55214">
        <ele>1217.1999511719</ele>
        <time>2017-07-07T07:37:29.000Z</time>
      </trkpt>
      <trkpt lat="46.83378" lon="6.55195">
        <ele>1217.1999511719</ele>
        <time>2017-07-07T07:37:33.000Z</time>
      </trkpt>
      <trkpt lat="46.83369" lon="6.55176">
        <ele>1217.5999755859</ele>
        <time>2017-07-07T07:37:37.000Z</time>
      </trkpt>
      <trkpt lat="46.83359" lon="6.55161">
        <ele>1217.8000488281</ele>
        <time>2017-07-07T07:37:42.000Z</time>
      </trkpt>
      <trkpt lat="46.83344" lon="6.55145">
        <ele>1219</ele>
        <time>2017-07-07T07:37:48.000Z</time>
      </trkpt>
      <trkpt lat="46.83341" lon="6.55142">
        <ele>1219.1999511719</ele>
        <time>2017-07-07T07:37:49.000Z</time>
      </trkpt>
      <trkpt lat="46.83328" lon="6.55128">
        <ele>1220</ele>
        <time>2017-07-07T07:37:54.000Z</time>
      </trkpt>
      <trkpt lat="46.83325" lon="6.55125">
        <ele>1220</ele>
        <time>2017-07-07T07:37:55.000Z</time>
      </trkpt>
      <trkpt lat="46.83307" lon="6.55104">
        <ele>1220</ele>
        <time>2017-07-07T07:38:01.000Z</time>
      </trkpt>
      <trkpt lat="46.83282" lon="6.55076">
        <ele>1220</ele>
        <time>2017-07-07T07:38:09.000Z</time>
      </trkpt>
      <trkpt lat="46.83265" lon="6.55059">
        <ele>1219.8000488281</ele>
        <time>2017-07-07T07:38:14.000Z</time>
      </trkpt>
      <trkpt lat="46.83261" lon="6.55056">
        <ele>1219.8000488281</ele>
        <time>2017-07-07T07:38:15.000Z</time>
      </trkpt>
      <trkpt lat="46.8325" lon="6.55052">
        <ele>1219.5999755859</ele>
        <time>2017-07-07T07:38:18.000Z</time>
      </trkpt>
      <trkpt lat="46.83242" lon="6.55049">
        <ele>1219.4000244141</ele>
        <time>2017-07-07T07:38:20.000Z</time>
      </trkpt>
      <trkpt lat="46.83238" lon="6.55047">
        <ele>1219.4000244141</ele>
        <time>2017-07-07T07:38:21.000Z</time>
      </trkpt>
      <trkpt lat="46.8322" lon="6.55029">
        <ele>1219</ele>
        <time>2017-07-07T07:38:26.000Z</time>
      </trkpt>
      <trkpt lat="46.83217" lon="6.55024">
        <ele>1218.8000488281</ele>
        <time>2017-07-07T07:38:27.000Z</time>
      </trkpt>
      <trkpt lat="46.83205" lon="6.55011">
        <ele>1217.8000488281</ele>
        <time>2017-07-07T07:38:30.000Z</time>
      </trkpt>
      <trkpt lat="46.83201" lon="6.55006">
        <ele>1217.8000488281</ele>
        <time>2017-07-07T07:38:31.000Z</time>
      </trkpt>
      <trkpt lat="46.83197" lon="6.55001">
        <ele>1217.5999755859</ele>
        <time>2017-07-07T07:38:32.000Z</time>
      </trkpt>
      <trkpt lat="46.8319" lon="6.54982">
        <ele>1217.1999511719</ele>
        <time>2017-07-07T07:38:35.000Z</time>
      </trkpt>
      <trkpt lat="46.83189" lon="6.54976">
        <ele>1217.1999511719</ele>
        <time>2017-07-07T07:38:36.000Z</time>
      </trkpt>
      <trkpt lat="46.83188" lon="6.5497">
        <ele>1217.1999511719</ele>
        <time>2017-07-07T07:38:37.000Z</time>
      </trkpt>
      <trkpt lat="46.83184" lon="6.5495">
        <ele>1216.8000488281</ele>
        <time>2017-07-07T07:38:41.000Z</time>
      </trkpt>
      <trkpt lat="46.83173" lon="6.54934">
        <ele>1216.4000244141</ele>
        <time>2017-07-07T07:38:45.000Z</time>
      </trkpt>
      <trkpt lat="46.83161" lon="6.54923">
        <ele>1216.8000488281</ele>
        <time>2017-07-07T07:38:48.000Z</time>
      </trkpt>
      <trkpt lat="46.83153" lon="6.54916">
        <ele>1216.8000488281</ele>
        <time>2017-07-07T07:38:50.000Z</time>
      </trkpt>
      <trkpt lat="46.83146" lon="6.54907">
        <ele>1217</ele>
        <time>2017-07-07T07:38:52.000Z</time>
      </trkpt>
      <trkpt lat="46.83135" lon="6.54887">
        <ele>1217</ele>
        <time>2017-07-07T07:38:56.000Z</time>
      </trkpt>
      <trkpt lat="46.83126" lon="6.54861">
        <ele>1217</ele>
        <time>2017-07-07T07:39:01.000Z</time>
      </trkpt>
      <trkpt lat="46.8312" lon="6.54825">
        <ele>1217.4000244141</ele>
        <time>2017-07-07T07:39:07.000Z</time>
      </trkpt>
      <trkpt lat="46.8312" lon="6.54798">
        <ele>1217.5999755859</ele>
        <time>2017-07-07T07:39:11.000Z</time>
      </trkpt>
      <trkpt lat="46.8312" lon="6.54791">
        <ele>1217.5999755859</ele>
        <time>2017-07-07T07:39:12.000Z</time>
      </trkpt>
      <trkpt lat="46.8312" lon="6.54785">
        <ele>1217.8000488281</ele>
        <time>2017-07-07T07:39:13.000Z</time>
      </trkpt>
      <trkpt lat="46.83122" lon="6.54773">
        <ele>1218.1999511719</ele>
        <time>2017-07-07T07:39:16.000Z</time>
      </trkpt>
      <trkpt lat="46.83122" lon="6.54754">
        <ele>1218.5999755859</ele>
        <time>2017-07-07T07:39:21.000Z</time>
      </trkpt>
      <trkpt lat="46.83119" lon="6.54744">
        <ele>1218.8000488281</ele>
        <time>2017-07-07T07:39:23.000Z</time>
      </trkpt>
      <trkpt lat="46.83113" lon="6.54722">
        <ele>1218.8000488281</ele>
        <time>2017-07-07T07:39:27.000Z</time>
      </trkpt>
      <trkpt lat="46.83105" lon="6.54695">
        <ele>1218.8000488281</ele>
        <time>2017-07-07T07:39:32.000Z</time>
      </trkpt>
      <trkpt lat="46.83102" lon="6.54683">
        <ele>1219</ele>
        <time>2017-07-07T07:39:34.000Z</time>
      </trkpt>
      <trkpt lat="46.83089" lon="6.54641">
        <ele>1219.5999755859</ele>
        <time>2017-07-07T07:39:40.000Z</time>
      </trkpt>
      <trkpt lat="46.83083" lon="6.54619">
        <ele>1219.8000488281</ele>
        <time>2017-07-07T07:39:43.000Z</time>
      </trkpt>
      <trkpt lat="46.83077" lon="6.54594">
        <ele>1219.8000488281</ele>
        <time>2017-07-07T07:39:46.000Z</time>
      </trkpt>
      <trkpt lat="46.83061" lon="6.54546">
        <ele>1219.5999755859</ele>
        <time>2017-07-07T07:39:52.000Z</time>
      </trkpt>
      <trkpt lat="46.83052" lon="6.54517">
        <ele>1219.4000244141</ele>
        <time>2017-07-07T07:39:56.000Z</time>
      </trkpt>
      <trkpt lat="46.83048" lon="6.54503">
        <ele>1219.1999511719</ele>
        <time>2017-07-07T07:39:58.000Z</time>
      </trkpt>
      <trkpt lat="46.83032" lon="6.5445">
        <ele>1205</ele>
        <time>2017-07-07T07:40:05.000Z</time>
      </trkpt>
      <trkpt lat="46.83012" lon="6.54382">
        <ele>1218.5999755859</ele>
        <time>2017-07-07T07:40:14.000Z</time>
      </trkpt>
      <trkpt lat="46.8301" lon="6.54368">
        <ele>1218</ele>
        <time>2017-07-07T07:40:16.000Z</time>
      </trkpt>
      <trkpt lat="46.83014" lon="6.54355">
        <ele>1217.5999755859</ele>
        <time>2017-07-07T07:40:18.000Z</time>
      </trkpt>
      <trkpt lat="46.83025" lon="6.54338">
        <ele>1216.4000244141</ele>
        <time>2017-07-07T07:40:21.000Z</time>
      </trkpt>
      <trkpt lat="46.83028" lon="6.54332">
        <ele>1216</ele>
        <time>2017-07-07T07:40:22.000Z</time>
      </trkpt>
      <trkpt lat="46.83035" lon="6.54319">
        <ele>1215.1999511719</ele>
        <time>2017-07-07T07:40:24.000Z</time>
      </trkpt>
      <trkpt lat="46.83038" lon="6.54313">
        <ele>1214.8000488281</ele>
        <time>2017-07-07T07:40:25.000Z</time>
      </trkpt>
      <trkpt lat="46.83039" lon="6.54307">
        <ele>1214.8000488281</ele>
        <time>2017-07-07T07:40:26.000Z</time>
      </trkpt>
      <trkpt lat="46.83034" lon="6.54297">
        <ele>1214.5999755859</ele>
        <time>2017-07-07T07:40:28.000Z</time>
      </trkpt>
      <trkpt lat="46.8303" lon="6.54293">
        <ele>1214.5999755859</ele>
        <time>2017-07-07T07:40:29.000Z</time>
      </trkpt>
      <trkpt lat="46.83012" lon="6.54272">
        <ele>1214</ele>
        <time>2017-07-07T07:40:33.000Z</time>
      </trkpt>
      <trkpt lat="46.82997" lon="6.5425">
        <ele>1213</ele>
        <time>2017-07-07T07:40:37.000Z</time>
      </trkpt>
      <trkpt lat="46.82997" lon="6.54244">
        <ele>1212.4000244141</ele>
        <time>2017-07-07T07:40:38.000Z</time>
      </trkpt>
      <trkpt lat="46.83002" lon="6.54232">
        <ele>1211.4000244141</ele>
        <time>2017-07-07T07:40:41.000Z</time>
      </trkpt>
      <trkpt lat="46.83004" lon="6.54229">
        <ele>1211</ele>
        <time>2017-07-07T07:40:42.000Z</time>
      </trkpt>
      <trkpt lat="46.83008" lon="6.54221">
        <ele>1211.1999511719</ele>
        <time>2017-07-07T07:40:45.000Z</time>
      </trkpt>
      <trkpt lat="46.83007" lon="6.54218">
        <ele>1211.4000244141</ele>
        <time>2017-07-07T07:40:46.000Z</time>
      </trkpt>
      <trkpt lat="46.83004" lon="6.54204">
        <ele>1211.5999755859</ele>
        <time>2017-07-07T07:40:49.000Z</time>
      </trkpt>
      <trkpt lat="46.83004" lon="6.5419">
        <ele>1211.5999755859</ele>
        <time>2017-07-07T07:40:52.000Z</time>
      </trkpt>
      <trkpt lat="46.83009" lon="6.54159">
        <ele>1211.5999755859</ele>
        <time>2017-07-07T07:40:59.000Z</time>
      </trkpt>
      <trkpt lat="46.83008" lon="6.54144">
        <ele>1211.8000488281</ele>
        <time>2017-07-07T07:41:02.000Z</time>
      </trkpt>
      <trkpt lat="46.83007" lon="6.54138">
        <ele>1212</ele>
        <time>2017-07-07T07:41:03.000Z</time>
      </trkpt>
      <trkpt lat="46.82999" lon="6.54118">
        <ele>1212.4000244141</ele>
        <time>2017-07-07T07:41:06.000Z</time>
      </trkpt>
      <trkpt lat="46.82997" lon="6.54111">
        <ele>1212.4000244141</ele>
        <time>2017-07-07T07:41:07.000Z</time>
      </trkpt>
      <trkpt lat="46.82996" lon="6.54103">
        <ele>1212.5999755859</ele>
        <time>2017-07-07T07:41:08.000Z</time>
      </trkpt>
      <trkpt lat="46.82988" lon="6.54074">
        <ele>1211.1999511719</ele>
        <time>2017-07-07T07:41:12.000Z</time>
      </trkpt>
      <trkpt lat="46.82986" lon="6.54066">
        <ele>1210.5999755859</ele>
        <time>2017-07-07T07:41:13.000Z</time>
      </trkpt>
      <trkpt lat="46.82983" lon="6.54059">
        <ele>1210</ele>
        <time>2017-07-07T07:41:14.000Z</time>
      </trkpt>
      <trkpt lat="46.82968" lon="6.5401">
        <ele>1209.1999511719</ele>
        <time>2017-07-07T07:41:21.000Z</time>
      </trkpt>
      <trkpt lat="46.8296" lon="6.53983">
        <ele>1208.8000488281</ele>
        <time>2017-07-07T07:41:25.000Z</time>
      </trkpt>
      <trkpt lat="46.82953" lon="6.53964">
        <ele>1208.1999511719</ele>
        <time>2017-07-07T07:41:28.000Z</time>
      </trkpt>
      <trkpt lat="46.82941" lon="6.53913">
        <ele>1208.1999511719</ele>
        <time>2017-07-07T07:41:36.000Z</time>
      </trkpt>
      <trkpt lat="46.82932" lon="6.53882">
        <ele>1208.4000244141</ele>
        <time>2017-07-07T07:41:42.000Z</time>
      </trkpt>
      <trkpt lat="46.82925" lon="6.53857">
        <ele>1208.5999755859</ele>
        <time>2017-07-07T07:41:47.000Z</time>
      </trkpt>
      <trkpt lat="46.8292" lon="6.53841">
        <ele>1208.5999755859</ele>
        <time>2017-07-07T07:41:51.000Z</time>
      </trkpt>
      <trkpt lat="46.82922" lon="6.53839">
        <ele>1208.5999755859</ele>
        <time>2017-07-07T07:41:52.000Z</time>
      </trkpt>
      <trkpt lat="46.8293" lon="6.53841">
        <ele>1208.5999755859</ele>
        <time>2017-07-07T07:41:57.000Z</time>
      </trkpt>
      <trkpt lat="46.82928" lon="6.53858">
        <ele>1208.4000244141</ele>
        <time>2017-07-07T07:42:01.000Z</time>
      </trkpt>
      <trkpt lat="46.82931" lon="6.53874">
        <ele>1208</ele>
        <time>2017-07-07T07:42:04.000Z</time>
      </trkpt>
      <trkpt lat="46.8294" lon="6.53913">
        <ele>1207.8000488281</ele>
        <time>2017-07-07T07:42:10.000Z</time>
      </trkpt>
      <trkpt lat="46.82955" lon="6.53971">
        <ele>1208</ele>
        <time>2017-07-07T07:42:18.000Z</time>
      </trkpt>
      <trkpt lat="46.82967" lon="6.54006">
        <ele>1207.8000488281</ele>
        <time>2017-07-07T07:42:23.000Z</time>
      </trkpt>
      <trkpt lat="46.8297" lon="6.54019">
        <ele>1207.8000488281</ele>
        <time>2017-07-07T07:42:25.000Z</time>
      </trkpt>
      <trkpt lat="46.82984" lon="6.54062">
        <ele>1208.8000488281</ele>
        <time>2017-07-07T07:42:32.000Z</time>
      </trkpt>
      <trkpt lat="46.82985" lon="6.54067">
        <ele>1208.8000488281</ele>
        <time>2017-07-07T07:42:33.000Z</time>
      </trkpt>
      <trkpt lat="46.82996" lon="6.54109">
        <ele>1209.5999755859</ele>
        <time>2017-07-07T07:42:41.000Z</time>
      </trkpt>
      <trkpt lat="46.82997" lon="6.54115">
        <ele>1210</ele>
        <time>2017-07-07T07:42:42.000Z</time>
      </trkpt>
      <trkpt lat="46.83004" lon="6.54133">
        <ele>1210.8000488281</ele>
        <time>2017-07-07T07:42:46.000Z</time>
      </trkpt>
      <trkpt lat="46.83007" lon="6.54137">
        <ele>1211</ele>
        <time>2017-07-07T07:42:47.000Z</time>
      </trkpt>
      <trkpt lat="46.83021" lon="6.54163">
        <ele>1212.1999511719</ele>
        <time>2017-07-07T07:42:53.000Z</time>
      </trkpt>
      <trkpt lat="46.83026" lon="6.54173">
        <ele>1212.4000244141</ele>
        <time>2017-07-07T07:42:55.000Z</time>
      </trkpt>
      <trkpt lat="46.83038" lon="6.54199">
        <ele>1213</ele>
        <time>2017-07-07T07:43:00.000Z</time>
      </trkpt>
      <trkpt lat="46.83051" lon="6.54225">
        <ele>1214.1999511719</ele>
        <time>2017-07-07T07:43:05.000Z</time>
      </trkpt>
      <trkpt lat="46.83066" lon="6.54247">
        <ele>1215.4000244141</ele>
        <time>2017-07-07T07:43:10.000Z</time>
      </trkpt>
      <trkpt lat="46.83069" lon="6.54251">
        <ele>1215.4000244141</ele>
        <time>2017-07-07T07:43:11.000Z</time>
      </trkpt>
      <trkpt lat="46.83078" lon="6.54261">
        <ele>1216.4000244141</ele>
        <time>2017-07-07T07:43:14.000Z</time>
      </trkpt>
      <trkpt lat="46.83093" lon="6.54277">
        <ele>1217.4000244141</ele>
        <time>2017-07-07T07:43:19.000Z</time>
      </trkpt>
      <trkpt lat="46.83101" lon="6.54286">
        <ele>1218</ele>
        <time>2017-07-07T07:43:22.000Z</time>
      </trkpt>
      <trkpt lat="46.83107" lon="6.54291">
        <ele>1218.5999755859</ele>
        <time>2017-07-07T07:43:24.000Z</time>
      </trkpt>
      <trkpt lat="46.83115" lon="6.54299">
        <ele>1219.8000488281</ele>
        <time>2017-07-07T07:43:27.000Z</time>
      </trkpt>
      <trkpt lat="46.83123" lon="6.54308">
        <ele>1221</ele>
        <time>2017-07-07T07:43:30.000Z</time>
      </trkpt>
      <trkpt lat="46.83133" lon="6.54317">
        <ele>1222</ele>
        <time>2017-07-07T07:43:34.000Z</time>
      </trkpt>
      <trkpt lat="46.83141" lon="6.54324">
        <ele>1223</ele>
        <time>2017-07-07T07:43:37.000Z</time>
      </trkpt>
      <trkpt lat="46.83147" lon="6.54327">
        <ele>1223.5999755859</ele>
        <time>2017-07-07T07:43:39.000Z</time>
      </trkpt>
      <trkpt lat="46.83152" lon="6.54331">
        <ele>1224.1999511719</ele>
        <time>2017-07-07T07:43:41.000Z</time>
      </trkpt>
      <trkpt lat="46.83162" lon="6.54336">
        <ele>1225.4000244141</ele>
        <time>2017-07-07T07:43:45.000Z</time>
      </trkpt>
      <trkpt lat="46.83165" lon="6.54337">
        <ele>1226</ele>
        <time>2017-07-07T07:43:46.000Z</time>
      </trkpt>
      <trkpt lat="46.83174" lon="6.5434">
        <ele>1226.8000488281</ele>
        <time>2017-07-07T07:43:49.000Z</time>
      </trkpt>
      <trkpt lat="46.83181" lon="6.54347">
        <ele>1227.4000244141</ele>
        <time>2017-07-07T07:43:52.000Z</time>
      </trkpt>
      <trkpt lat="46.83184" lon="6.54349">
        <ele>1227.8000488281</ele>
        <time>2017-07-07T07:43:53.000Z</time>
      </trkpt>
      <trkpt lat="46.83194" lon="6.54355">
        <ele>1228.8000488281</ele>
        <time>2017-07-07T07:43:57.000Z</time>
      </trkpt>
      <trkpt lat="46.83202" lon="6.54359">
        <ele>1229.8000488281</ele>
        <time>2017-07-07T07:44:00.000Z</time>
      </trkpt>
      <trkpt lat="46.83205" lon="6.5436">
        <ele>1230</ele>
        <time>2017-07-07T07:44:01.000Z</time>
      </trkpt>
      <trkpt lat="46.83219" lon="6.54366">
        <ele>1231.4000244141</ele>
        <time>2017-07-07T07:44:06.000Z</time>
      </trkpt>
      <trkpt lat="46.83225" lon="6.54368">
        <ele>1232</ele>
        <time>2017-07-07T07:44:08.000Z</time>
      </trkpt>
      <trkpt lat="46.8323" lon="6.54371">
        <ele>1232.5999755859</ele>
        <time>2017-07-07T07:44:10.000Z</time>
      </trkpt>
      <trkpt lat="46.83241" lon="6.54378">
        <ele>1233.5999755859</ele>
        <time>2017-07-07T07:44:14.000Z</time>
      </trkpt>
      <trkpt lat="46.83244" lon="6.5438">
        <ele>1233.8000488281</ele>
        <time>2017-07-07T07:44:15.000Z</time>
      </trkpt>
      <trkpt lat="46.8326" lon="6.5439">
        <ele>1235</ele>
        <time>2017-07-07T07:44:20.000Z</time>
      </trkpt>
      <trkpt lat="46.83263" lon="6.54392">
        <ele>1235.4000244141</ele>
        <time>2017-07-07T07:44:21.000Z</time>
      </trkpt>
      <trkpt lat="46.83274" lon="6.54402">
        <ele>1236.1999511719</ele>
        <time>2017-07-07T07:44:25.000Z</time>
      </trkpt>
      <trkpt lat="46.83278" lon="6.54408">
        <ele>1236.4000244141</ele>
        <time>2017-07-07T07:44:27.000Z</time>
      </trkpt>
      <trkpt lat="46.83282" lon="6.54412">
        <ele>1237.1999511719</ele>
        <time>2017-07-07T07:44:29.000Z</time>
      </trkpt>
      <trkpt lat="46.8329" lon="6.54419">
        <ele>1238.4000244141</ele>
        <time>2017-07-07T07:44:32.000Z</time>
      </trkpt>
      <trkpt lat="46.83293" lon="6.54419">
        <ele>1238.8000488281</ele>
        <time>2017-07-07T07:44:33.000Z</time>
      </trkpt>
      <trkpt lat="46.83297" lon="6.54415">
        <ele>1239.5999755859</ele>
        <time>2017-07-07T07:44:35.000Z</time>
      </trkpt>
      <trkpt lat="46.833" lon="6.54405">
        <ele>1241</ele>
        <time>2017-07-07T07:44:38.000Z</time>
      </trkpt>
      <trkpt lat="46.83301" lon="6.54401">
        <ele>1241.1999511719</ele>
        <time>2017-07-07T07:44:39.000Z</time>
      </trkpt>
      <trkpt lat="46.833" lon="6.54393">
        <ele>1242.1999511719</ele>
        <time>2017-07-07T07:44:41.000Z</time>
      </trkpt>
      <trkpt lat="46.83298" lon="6.54386">
        <ele>1243.4000244141</ele>
        <time>2017-07-07T07:44:43.000Z</time>
      </trkpt>
      <trkpt lat="46.83296" lon="6.54378">
        <ele>1243.8000488281</ele>
        <time>2017-07-07T07:44:45.000Z</time>
      </trkpt>
      <trkpt lat="46.83295" lon="6.54368">
        <ele>1244.1999511719</ele>
        <time>2017-07-07T07:44:47.000Z</time>
      </trkpt>
      <trkpt lat="46.83295" lon="6.54344">
        <ele>1245.4000244141</ele>
        <time>2017-07-07T07:44:52.000Z</time>
      </trkpt>
      <trkpt lat="46.83296" lon="6.54314">
        <ele>1246.5999755859</ele>
        <time>2017-07-07T07:44:58.000Z</time>
      </trkpt>
      <trkpt lat="46.83296" lon="6.54309">
        <ele>1247</ele>
        <time>2017-07-07T07:44:59.000Z</time>
      </trkpt>
      <trkpt lat="46.83295" lon="6.54296">
        <ele>1247.8000488281</ele>
        <time>2017-07-07T07:45:02.000Z</time>
      </trkpt>
      <trkpt lat="46.83295" lon="6.54283">
        <ele>1248.8000488281</ele>
        <time>2017-07-07T07:45:05.000Z</time>
      </trkpt>
      <trkpt lat="46.83296" lon="6.54278">
        <ele>1249.1999511719</ele>
        <time>2017-07-07T07:45:06.000Z</time>
      </trkpt>
      <trkpt lat="46.83295" lon="6.54265">
        <ele>1250</ele>
        <time>2017-07-07T07:45:09.000Z</time>
      </trkpt>
      <trkpt lat="46.83297" lon="6.54254">
        <ele>1250.8000488281</ele>
        <time>2017-07-07T07:45:12.000Z</time>
      </trkpt>
      <trkpt lat="46.83298" lon="6.54251">
        <ele>1251</ele>
        <time>2017-07-07T07:45:13.000Z</time>
      </trkpt>
      <trkpt lat="46.833" lon="6.54249">
        <ele>1251.4000244141</ele>
        <time>2017-07-07T07:45:14.000Z</time>
      </trkpt>
      <trkpt lat="46.83305" lon="6.54251">
        <ele>1252.1999511719</ele>
        <time>2017-07-07T07:45:16.000Z</time>
      </trkpt>
      <trkpt lat="46.83307" lon="6.54253">
        <ele>1252.5999755859</ele>
        <time>2017-07-07T07:45:17.000Z</time>
      </trkpt>
      <trkpt lat="46.8331" lon="6.54259">
        <ele>1253.4000244141</ele>
        <time>2017-07-07T07:45:19.000Z</time>
      </trkpt>
      <trkpt lat="46.83311" lon="6.54263">
        <ele>1253.8000488281</ele>
        <time>2017-07-07T07:45:20.000Z</time>
      </trkpt>
      <trkpt lat="46.83312" lon="6.54267">
        <ele>1254</ele>
        <time>2017-07-07T07:45:21.000Z</time>
      </trkpt>
      <trkpt lat="46.83321" lon="6.54286">
        <ele>1255</ele>
        <time>2017-07-07T07:45:26.000Z</time>
      </trkpt>
      <trkpt lat="46.83325" lon="6.54292">
        <ele>1256.1999511719</ele>
        <time>2017-07-07T07:45:28.000Z</time>
      </trkpt>
      <trkpt lat="46.83327" lon="6.54295">
        <ele>1256.5999755859</ele>
        <time>2017-07-07T07:45:29.000Z</time>
      </trkpt>
      <trkpt lat="46.83332" lon="6.54301">
        <ele>1257.1999511719</ele>
        <time>2017-07-07T07:45:31.000Z</time>
      </trkpt>
      <trkpt lat="46.83343" lon="6.54312">
        <ele>1257.8000488281</ele>
        <time>2017-07-07T07:45:35.000Z</time>
      </trkpt>
      <trkpt lat="46.83346" lon="6.54315">
        <ele>1258.4000244141</ele>
        <time>2017-07-07T07:45:36.000Z</time>
      </trkpt>
      <trkpt lat="46.83352" lon="6.54322">
        <ele>1259.4000244141</ele>
        <time>2017-07-07T07:45:39.000Z</time>
      </trkpt>
      <trkpt lat="46.83355" lon="6.54325">
        <ele>1259.5999755859</ele>
        <time>2017-07-07T07:45:40.000Z</time>
      </trkpt>
      <trkpt lat="46.83361" lon="6.54333">
        <ele>1260.5999755859</ele>
        <time>2017-07-07T07:45:43.000Z</time>
      </trkpt>
      <trkpt lat="46.83368" lon="6.54343">
        <ele>1261.5999755859</ele>
        <time>2017-07-07T07:45:46.000Z</time>
      </trkpt>
      <trkpt lat="46.8337" lon="6.54347">
        <ele>1261.8000488281</ele>
        <time>2017-07-07T07:45:47.000Z</time>
      </trkpt>
      <trkpt lat="46.83383" lon="6.54364">
        <ele>1262.5999755859</ele>
        <time>2017-07-07T07:45:52.000Z</time>
      </trkpt>
      <trkpt lat="46.83386" lon="6.54367">
        <ele>1262.8000488281</ele>
        <time>2017-07-07T07:45:53.000Z</time>
      </trkpt>
      <trkpt lat="46.83405" lon="6.54392">
        <ele>1263.8000488281</ele>
        <time>2017-07-07T07:46:00.000Z</time>
      </trkpt>
      <trkpt lat="46.83419" lon="6.5441">
        <ele>1264.8000488281</ele>
        <time>2017-07-07T07:46:05.000Z</time>
      </trkpt>
      <trkpt lat="46.83432" lon="6.54424">
        <ele>1265.1999511719</ele>
        <time>2017-07-07T07:46:10.000Z</time>
      </trkpt>
      <trkpt lat="46.83439" lon="6.54428">
        <ele>1266</ele>
        <time>2017-07-07T07:46:13.000Z</time>
      </trkpt>
      <trkpt lat="46.83442" lon="6.54429">
        <ele>1267.1999511719</ele>
        <time>2017-07-07T07:46:15.000Z</time>
      </trkpt>
      <trkpt lat="46.83444" lon="6.54427">
        <ele>1267.4000244141</ele>
        <time>2017-07-07T07:46:16.000Z</time>
      </trkpt>
      <trkpt lat="46.83446" lon="6.54422">
        <ele>1267.8000488281</ele>
        <time>2017-07-07T07:46:18.000Z</time>
      </trkpt>
      <trkpt lat="46.83446" lon="6.5442">
        <ele>1268</ele>
        <time>2017-07-07T07:46:19.000Z</time>
      </trkpt>
      <trkpt lat="46.83445" lon="6.54416">
        <ele>1268.1999511719</ele>
        <time>2017-07-07T07:46:20.000Z</time>
      </trkpt>
      <trkpt lat="46.83442" lon="6.54397">
        <ele>1269.4000244141</ele>
        <time>2017-07-07T07:46:26.000Z</time>
      </trkpt>
      <trkpt lat="46.83441" lon="6.54393">
        <ele>1269.8000488281</ele>
        <time>2017-07-07T07:46:27.000Z</time>
      </trkpt>
      <trkpt lat="46.8344" lon="6.54383">
        <ele>1270.8000488281</ele>
        <time>2017-07-07T07:46:30.000Z</time>
      </trkpt>
      <trkpt lat="46.83438" lon="6.54369">
        <ele>1272</ele>
        <time>2017-07-07T07:46:34.000Z</time>
      </trkpt>
      <trkpt lat="46.83437" lon="6.54362">
        <ele>1272.4000244141</ele>
        <time>2017-07-07T07:46:36.000Z</time>
      </trkpt>
      <trkpt lat="46.83435" lon="6.54352">
        <ele>1273.1999511719</ele>
        <time>2017-07-07T07:46:39.000Z</time>
      </trkpt>
      <trkpt lat="46.83433" lon="6.54338">
        <ele>1274.4000244141</ele>
        <time>2017-07-07T07:46:43.000Z</time>
      </trkpt>
      <trkpt lat="46.83432" lon="6.54334">
        <ele>1274.5999755859</ele>
        <time>2017-07-07T07:46:44.000Z</time>
      </trkpt>
      <trkpt lat="46.83431" lon="6.54323">
        <ele>1275.5999755859</ele>
        <time>2017-07-07T07:46:47.000Z</time>
      </trkpt>
      <trkpt lat="46.83429" lon="6.54307">
        <ele>1276.4000244141</ele>
        <time>2017-07-07T07:46:51.000Z</time>
      </trkpt>
      <trkpt lat="46.83429" lon="6.54303">
        <ele>1276.5999755859</ele>
        <time>2017-07-07T07:46:52.000Z</time>
      </trkpt>
      <trkpt lat="46.83426" lon="6.54282">
        <ele>1277.8000488281</ele>
        <time>2017-07-07T07:46:57.000Z</time>
      </trkpt>
      <trkpt lat="46.83423" lon="6.54269">
        <ele>1278.8000488281</ele>
        <time>2017-07-07T07:47:00.000Z</time>
      </trkpt>
      <trkpt lat="46.83422" lon="6.54265">
        <ele>1279</ele>
        <time>2017-07-07T07:47:01.000Z</time>
      </trkpt>
      <trkpt lat="46.83419" lon="6.54248">
        <ele>1280.1999511719</ele>
        <time>2017-07-07T07:47:05.000Z</time>
      </trkpt>
      <trkpt lat="46.83417" lon="6.54239">
        <ele>1280.5999755859</ele>
        <time>2017-07-07T07:47:07.000Z</time>
      </trkpt>
      <trkpt lat="46.83415" lon="6.54222">
        <ele>1281.4000244141</ele>
        <time>2017-07-07T07:47:11.000Z</time>
      </trkpt>
      <trkpt lat="46.83413" lon="6.54207">
        <ele>1282</ele>
        <time>2017-07-07T07:47:15.000Z</time>
      </trkpt>
      <trkpt lat="46.83413" lon="6.54195">
        <ele>1282.8000488281</ele>
        <time>2017-07-07T07:47:18.000Z</time>
      </trkpt>
      <trkpt lat="46.83411" lon="6.54183">
        <ele>1283.8000488281</ele>
        <time>2017-07-07T07:47:21.000Z</time>
      </trkpt>
      <trkpt lat="46.83409" lon="6.54176">
        <ele>1284.4000244141</ele>
        <time>2017-07-07T07:47:23.000Z</time>
      </trkpt>
      <trkpt lat="46.83409" lon="6.54168">
        <ele>1284.8000488281</ele>
        <time>2017-07-07T07:47:25.000Z</time>
      </trkpt>
      <trkpt lat="46.83412" lon="6.54158">
        <ele>1285.8000488281</ele>
        <time>2017-07-07T07:47:28.000Z</time>
      </trkpt>
      <trkpt lat="46.83413" lon="6.54155">
        <ele>1286.1999511719</ele>
        <time>2017-07-07T07:47:29.000Z</time>
      </trkpt>
      <trkpt lat="46.83419" lon="6.5415">
        <ele>1287.1999511719</ele>
        <time>2017-07-07T07:47:33.000Z</time>
      </trkpt>
      <trkpt lat="46.83424" lon="6.54151">
        <ele>1288.1999511719</ele>
        <time>2017-07-07T07:47:36.000Z</time>
      </trkpt>
      <trkpt lat="46.83428" lon="6.54155">
        <ele>1289.4000244141</ele>
        <time>2017-07-07T07:47:39.000Z</time>
      </trkpt>
      <trkpt lat="46.83431" lon="6.54162">
        <ele>1290.4000244141</ele>
        <time>2017-07-07T07:47:43.000Z</time>
      </trkpt>
      <trkpt lat="46.83431" lon="6.54164">
        <ele>1290.5999755859</ele>
        <time>2017-07-07T07:47:44.000Z</time>
      </trkpt>
      <trkpt lat="46.83434" lon="6.54171">
        <ele>1291.8000488281</ele>
        <time>2017-07-07T07:47:49.000Z</time>
      </trkpt>
      <trkpt lat="46.83436" lon="6.54175">
        <ele>1292.1999511719</ele>
        <time>2017-07-07T07:47:51.000Z</time>
      </trkpt>
      <trkpt lat="46.83437" lon="6.54179">
        <ele>1293</ele>
        <time>2017-07-07T07:47:54.000Z</time>
      </trkpt>
      <trkpt lat="46.83441" lon="6.54186">
        <ele>1293.8000488281</ele>
        <time>2017-07-07T07:47:58.000Z</time>
      </trkpt>
      <trkpt lat="46.83442" lon="6.54188">
        <ele>1294.1999511719</ele>
        <time>2017-07-07T07:47:59.000Z</time>
      </trkpt>
      <trkpt lat="46.83446" lon="6.54201">
        <ele>1295.1999511719</ele>
        <time>2017-07-07T07:48:04.000Z</time>
      </trkpt>
      <trkpt lat="46.83448" lon="6.54204">
        <ele>1295.4000244141</ele>
        <time>2017-07-07T07:48:05.000Z</time>
      </trkpt>
      <trkpt lat="46.83453" lon="6.5422">
        <ele>1296</ele>
        <time>2017-07-07T07:48:10.000Z</time>
      </trkpt>
      <trkpt lat="46.83456" lon="6.54229">
        <ele>1296.1999511719</ele>
        <time>2017-07-07T07:48:12.000Z</time>
      </trkpt>
      <trkpt lat="46.83463" lon="6.54241">
        <ele>1296.4000244141</ele>
        <time>2017-07-07T07:48:15.000Z</time>
      </trkpt>
      <trkpt lat="46.83471" lon="6.54259">
        <ele>1296.5999755859</ele>
        <time>2017-07-07T07:48:20.000Z</time>
      </trkpt>
      <trkpt lat="46.83476" lon="6.54272">
        <ele>1297.4000244141</ele>
        <time>2017-07-07T07:48:24.000Z</time>
      </trkpt>
      <trkpt lat="46.83478" lon="6.54275">
        <ele>1297.5999755859</ele>
        <time>2017-07-07T07:48:25.000Z</time>
      </trkpt>
      <trkpt lat="46.83486" lon="6.54289">
        <ele>1298.8000488281</ele>
        <time>2017-07-07T07:48:30.000Z</time>
      </trkpt>
      <trkpt lat="46.83488" lon="6.54293">
        <ele>1299.1999511719</ele>
        <time>2017-07-07T07:48:31.000Z</time>
      </trkpt>
      <trkpt lat="46.83491" lon="6.54299">
        <ele>1299.8000488281</ele>
        <time>2017-07-07T07:48:33.000Z</time>
      </trkpt>
      <trkpt lat="46.83497" lon="6.54312">
        <ele>1300.4000244141</ele>
        <time>2017-07-07T07:48:37.000Z</time>
      </trkpt>
      <trkpt lat="46.83506" lon="6.54322">
        <ele>1301.1999511719</ele>
        <time>2017-07-07T07:48:41.000Z</time>
      </trkpt>
      <trkpt lat="46.83508" lon="6.54325">
        <ele>1301.4000244141</ele>
        <time>2017-07-07T07:48:42.000Z</time>
      </trkpt>
      <trkpt lat="46.83518" lon="6.54334">
        <ele>1302.1999511719</ele>
        <time>2017-07-07T07:48:46.000Z</time>
      </trkpt>
      <trkpt lat="46.8352" lon="6.54337">
        <ele>1302.4000244141</ele>
        <time>2017-07-07T07:48:47.000Z</time>
      </trkpt>
      <trkpt lat="46.83533" lon="6.54341">
        <ele>1303</ele>
        <time>2017-07-07T07:48:52.000Z</time>
      </trkpt>
      <trkpt lat="46.83536" lon="6.54341">
        <ele>1303.1999511719</ele>
        <time>2017-07-07T07:48:53.000Z</time>
      </trkpt>
      <trkpt lat="46.83551" lon="6.54342">
        <ele>1303.8000488281</ele>
        <time>2017-07-07T07:48:58.000Z</time>
      </trkpt>
      <trkpt lat="46.83572" lon="6.54344">
        <ele>1304.1999511719</ele>
        <time>2017-07-07T07:49:03.000Z</time>
      </trkpt>
      <trkpt lat="46.83575" lon="6.54346">
        <ele>1304.4000244141</ele>
        <time>2017-07-07T07:49:04.000Z</time>
      </trkpt>
      <trkpt lat="46.83593" lon="6.54359">
        <ele>1305.1999511719</ele>
        <time>2017-07-07T07:49:09.000Z</time>
      </trkpt>
      <trkpt lat="46.83596" lon="6.54361">
        <ele>1305.4000244141</ele>
        <time>2017-07-07T07:49:10.000Z</time>
      </trkpt>
      <trkpt lat="46.83602" lon="6.54368">
        <ele>1306</ele>
        <time>2017-07-07T07:49:13.000Z</time>
      </trkpt>
      <trkpt lat="46.83604" lon="6.5437">
        <ele>1306.1999511719</ele>
        <time>2017-07-07T07:49:14.000Z</time>
      </trkpt>
      <trkpt lat="46.83609" lon="6.54374">
        <ele>1306.4000244141</ele>
        <time>2017-07-07T07:49:16.000Z</time>
      </trkpt>
      <trkpt lat="46.83611" lon="6.54375">
        <ele>1306.5999755859</ele>
        <time>2017-07-07T07:49:17.000Z</time>
      </trkpt>
      <trkpt lat="46.83615" lon="6.54375">
        <ele>1307.1999511719</ele>
        <time>2017-07-07T07:49:25.000Z</time>
      </trkpt>
      <trkpt lat="46.83616" lon="6.54375">
        <ele>1307.4000244141</ele>
        <time>2017-07-07T07:49:38.000Z</time>
      </trkpt>
      <trkpt lat="46.83616" lon="6.54375">
        <ele>1307.4000244141</ele>
        <time>2017-07-07T07:49:46.000Z</time>
      </trkpt>
      <trkpt lat="46.83617" lon="6.54376">
        <ele>1307.5999755859</ele>
        <time>2017-07-07T07:49:48.000Z</time>
      </trkpt>
      <trkpt lat="46.83626" lon="6.54384">
        <ele>1307.8000488281</ele>
        <time>2017-07-07T07:49:54.000Z</time>
      </trkpt>
      <trkpt lat="46.8363" lon="6.54385">
        <ele>1308</ele>
        <time>2017-07-07T07:49:56.000Z</time>
      </trkpt>
      <trkpt lat="46.83632" lon="6.54383">
        <ele>1308.1999511719</ele>
        <time>2017-07-07T07:49:57.000Z</time>
      </trkpt>
      <trkpt lat="46.83632" lon="6.5438">
        <ele>1308.4000244141</ele>
        <time>2017-07-07T07:49:58.000Z</time>
      </trkpt>
      <trkpt lat="46.83632" lon="6.54367">
        <ele>1308.4000244141</ele>
        <time>2017-07-07T07:50:01.000Z</time>
      </trkpt>
      <trkpt lat="46.83631" lon="6.54363">
        <ele>1308.4000244141</ele>
        <time>2017-07-07T07:50:02.000Z</time>
      </trkpt>
      <trkpt lat="46.83623" lon="6.54336">
        <ele>1309</ele>
        <time>2017-07-07T07:50:08.000Z</time>
      </trkpt>
      <trkpt lat="46.83613" lon="6.54324">
        <ele>1309.5999755859</ele>
        <time>2017-07-07T07:50:12.000Z</time>
      </trkpt>
      <trkpt lat="46.83611" lon="6.54322">
        <ele>1310</ele>
        <time>2017-07-07T07:50:13.000Z</time>
      </trkpt>
      <trkpt lat="46.83597" lon="6.54309">
        <ele>1310.4000244141</ele>
        <time>2017-07-07T07:50:19.000Z</time>
      </trkpt>
      <trkpt lat="46.83592" lon="6.54303">
        <ele>1311</ele>
        <time>2017-07-07T07:50:21.000Z</time>
      </trkpt>
      <trkpt lat="46.83583" lon="6.54293">
        <ele>1311.8000488281</ele>
        <time>2017-07-07T07:50:25.000Z</time>
      </trkpt>
      <trkpt lat="46.83581" lon="6.5429">
        <ele>1312</ele>
        <time>2017-07-07T07:50:26.000Z</time>
      </trkpt>
      <trkpt lat="46.83575" lon="6.54282">
        <ele>1311.8000488281</ele>
        <time>2017-07-07T07:50:31.000Z</time>
      </trkpt>
      <trkpt lat="46.83574" lon="6.54284">
        <ele>1311.4000244141</ele>
        <time>2017-07-07T07:50:42.000Z</time>
      </trkpt>
      <trkpt lat="46.83571" lon="6.5428">
        <ele>1311.8000488281</ele>
        <time>2017-07-07T07:50:53.000Z</time>
      </trkpt>
      <trkpt lat="46.83572" lon="6.54273">
        <ele>1312</ele>
        <time>2017-07-07T07:50:56.000Z</time>
      </trkpt>
      <trkpt lat="46.83576" lon="6.54272">
        <ele>1312</ele>
        <time>2017-07-07T07:50:58.000Z</time>
      </trkpt>
      <trkpt lat="46.83579" lon="6.54272">
        <ele>1312.1999511719</ele>
        <time>2017-07-07T07:51:00.000Z</time>
      </trkpt>
      <trkpt lat="46.83583" lon="6.54266">
        <ele>1312.5999755859</ele>
        <time>2017-07-07T07:51:03.000Z</time>
      </trkpt>
      <trkpt lat="46.83584" lon="6.54262">
        <ele>1312.8000488281</ele>
        <time>2017-07-07T07:51:04.000Z</time>
      </trkpt>
      <trkpt lat="46.83586" lon="6.54252">
        <ele>1314</ele>
        <time>2017-07-07T07:51:07.000Z</time>
      </trkpt>
      <trkpt lat="46.83587" lon="6.54246">
        <ele>1314.5999755859</ele>
        <time>2017-07-07T07:51:09.000Z</time>
      </trkpt>
      <trkpt lat="46.83588" lon="6.54243">
        <ele>1315</ele>
        <time>2017-07-07T07:51:10.000Z</time>
      </trkpt>
      <trkpt lat="46.83591" lon="6.54235">
        <ele>1316.1999511719</ele>
        <time>2017-07-07T07:51:13.000Z</time>
      </trkpt>
      <trkpt lat="46.83595" lon="6.54228">
        <ele>1317</ele>
        <time>2017-07-07T07:51:16.000Z</time>
      </trkpt>
      <trkpt lat="46.83599" lon="6.54225">
        <ele>1317.5999755859</ele>
        <time>2017-07-07T07:51:18.000Z</time>
      </trkpt>
      <trkpt lat="46.83606" lon="6.54217">
        <ele>1318.1999511719</ele>
        <time>2017-07-07T07:51:22.000Z</time>
      </trkpt>
      <trkpt lat="46.83608" lon="6.54214">
        <ele>1318.5999755859</ele>
        <time>2017-07-07T07:51:23.000Z</time>
      </trkpt>
      <trkpt lat="46.83613" lon="6.54203">
        <ele>1319.4000244141</ele>
        <time>2017-07-07T07:51:27.000Z</time>
      </trkpt>
      <trkpt lat="46.83614" lon="6.54199">
        <ele>1319.5999755859</ele>
        <time>2017-07-07T07:51:28.000Z</time>
      </trkpt>
      <trkpt lat="46.83614" lon="6.54188">
        <ele>1320.5999755859</ele>
        <time>2017-07-07T07:51:32.000Z</time>
      </trkpt>
      <trkpt lat="46.83614" lon="6.54185">
        <ele>1321</ele>
        <time>2017-07-07T07:51:33.000Z</time>
      </trkpt>
      <trkpt lat="46.83614" lon="6.5418">
        <ele>1322</ele>
        <time>2017-07-07T07:51:35.000Z</time>
      </trkpt>
      <trkpt lat="46.83614" lon="6.54172">
        <ele>1322.5999755859</ele>
        <time>2017-07-07T07:51:38.000Z</time>
      </trkpt>
      <trkpt lat="46.83614" lon="6.54167">
        <ele>1323.1999511719</ele>
        <time>2017-07-07T07:51:40.000Z</time>
      </trkpt>
      <trkpt lat="46.83615" lon="6.54162">
        <ele>1324</ele>
        <time>2017-07-07T07:51:42.000Z</time>
      </trkpt>
      <trkpt lat="46.83615" lon="6.54161">
        <ele>1324.4000244141</ele>
        <time>2017-07-07T07:51:43.000Z</time>
      </trkpt>
      <trkpt lat="46.83617" lon="6.54154">
        <ele>1325.1999511719</ele>
        <time>2017-07-07T07:51:46.000Z</time>
      </trkpt>
      <trkpt lat="46.83619" lon="6.54149">
        <ele>1325.4000244141</ele>
        <time>2017-07-07T07:51:48.000Z</time>
      </trkpt>
      <trkpt lat="46.83626" lon="6.54138">
        <ele>1326.5999755859</ele>
        <time>2017-07-07T07:51:53.000Z</time>
      </trkpt>
      <trkpt lat="46.83635" lon="6.54125">
        <ele>1327.8000488281</ele>
        <time>2017-07-07T07:51:59.000Z</time>
      </trkpt>
      <trkpt lat="46.83639" lon="6.54107">
        <ele>1328.1999511719</ele>
        <time>2017-07-07T07:52:04.000Z</time>
      </trkpt>
      <trkpt lat="46.83641" lon="6.54099">
        <ele>1328.8000488281</ele>
        <time>2017-07-07T07:52:06.000Z</time>
      </trkpt>
      <trkpt lat="46.83644" lon="6.54087">
        <ele>1329.8000488281</ele>
        <time>2017-07-07T07:52:09.000Z</time>
      </trkpt>
      <trkpt lat="46.83646" lon="6.54079">
        <ele>1330.1999511719</ele>
        <time>2017-07-07T07:52:11.000Z</time>
      </trkpt>
      <trkpt lat="46.8365" lon="6.54062">
        <ele>1330.8000488281</ele>
        <time>2017-07-07T07:52:15.000Z</time>
      </trkpt>
      <trkpt lat="46.83654" lon="6.54045">
        <ele>1331.4000244141</ele>
        <time>2017-07-07T07:52:19.000Z</time>
      </trkpt>
      <trkpt lat="46.83655" lon="6.54032">
        <ele>1331.8000488281</ele>
        <time>2017-07-07T07:52:22.000Z</time>
      </trkpt>
      <trkpt lat="46.83656" lon="6.54019">
        <ele>1332.5999755859</ele>
        <time>2017-07-07T07:52:25.000Z</time>
      </trkpt>
      <trkpt lat="46.83657" lon="6.5401">
        <ele>1333</ele>
        <time>2017-07-07T07:52:27.000Z</time>
      </trkpt>
      <trkpt lat="46.83657" lon="6.53986">
        <ele>1333.8000488281</ele>
        <time>2017-07-07T07:52:32.000Z</time>
      </trkpt>
      <trkpt lat="46.83656" lon="6.53982">
        <ele>1334</ele>
        <time>2017-07-07T07:52:33.000Z</time>
      </trkpt>
      <trkpt lat="46.83656" lon="6.5396">
        <ele>1335.1999511719</ele>
        <time>2017-07-07T07:52:38.000Z</time>
      </trkpt>
      <trkpt lat="46.83656" lon="6.53952">
        <ele>1335.5999755859</ele>
        <time>2017-07-07T07:52:40.000Z</time>
      </trkpt>
      <trkpt lat="46.83655" lon="6.53944">
        <ele>1336.4000244141</ele>
        <time>2017-07-07T07:52:42.000Z</time>
      </trkpt>
      <trkpt lat="46.83653" lon="6.53933">
        <ele>1337.4000244141</ele>
        <time>2017-07-07T07:52:45.000Z</time>
      </trkpt>
      <trkpt lat="46.83651" lon="6.53926">
        <ele>1337.8000488281</ele>
        <time>2017-07-07T07:52:47.000Z</time>
      </trkpt>
      <trkpt lat="46.83647" lon="6.53915">
        <ele>1338.5999755859</ele>
        <time>2017-07-07T07:52:51.000Z</time>
      </trkpt>
      <trkpt lat="46.83643" lon="6.53906">
        <ele>1339.1999511719</ele>
        <time>2017-07-07T07:52:54.000Z</time>
      </trkpt>
      <trkpt lat="46.83642" lon="6.53903">
        <ele>1339.5999755859</ele>
        <time>2017-07-07T07:52:55.000Z</time>
      </trkpt>
      <trkpt lat="46.83637" lon="6.53887">
        <ele>1340.5999755859</ele>
        <time>2017-07-07T07:53:00.000Z</time>
      </trkpt>
      <trkpt lat="46.83633" lon="6.53876">
        <ele>1341.8000488281</ele>
        <time>2017-07-07T07:53:04.000Z</time>
      </trkpt>
      <trkpt lat="46.83631" lon="6.53874">
        <ele>1341.8000488281</ele>
        <time>2017-07-07T07:53:05.000Z</time>
      </trkpt>
      <trkpt lat="46.8363" lon="6.53873">
        <ele>1341.8000488281</ele>
        <time>2017-07-07T07:53:06.000Z</time>
      </trkpt>
      <trkpt lat="46.83622" lon="6.53862">
        <ele>1342.1999511719</ele>
        <time>2017-07-07T07:53:12.000Z</time>
      </trkpt>
      <trkpt lat="46.83619" lon="6.53856">
        <ele>1342</ele>
        <time>2017-07-07T07:53:14.000Z</time>
      </trkpt>
      <trkpt lat="46.83616" lon="6.5385">
        <ele>1341.5999755859</ele>
        <time>2017-07-07T07:53:16.000Z</time>
      </trkpt>
      <trkpt lat="46.83612" lon="6.53844">
        <ele>1341</ele>
        <time>2017-07-07T07:53:18.000Z</time>
      </trkpt>
      <trkpt lat="46.8361" lon="6.53842">
        <ele>1340.5999755859</ele>
        <time>2017-07-07T07:53:19.000Z</time>
      </trkpt>
      <trkpt lat="46.8361" lon="6.53839">
        <ele>1340.4000244141</ele>
        <time>2017-07-07T07:53:20.000Z</time>
      </trkpt>
      <trkpt lat="46.83609" lon="6.53836">
        <ele>1340.1999511719</ele>
        <time>2017-07-07T07:53:21.000Z</time>
      </trkpt>
      <trkpt lat="46.83609" lon="6.53824">
        <ele>1340.4000244141</ele>
        <time>2017-07-07T07:53:25.000Z</time>
      </trkpt>
      <trkpt lat="46.83598" lon="6.53817">
        <ele>1340.1999511719</ele>
        <time>2017-07-07T07:53:29.000Z</time>
      </trkpt>
      <trkpt lat="46.83587" lon="6.53816">
        <ele>1339.5999755859</ele>
        <time>2017-07-07T07:53:32.000Z</time>
      </trkpt>
      <trkpt lat="46.83585" lon="6.53817">
        <ele>1339.1999511719</ele>
        <time>2017-07-07T07:53:33.000Z</time>
      </trkpt>
      <trkpt lat="46.8358" lon="6.53823">
        <ele>1338.4000244141</ele>
        <time>2017-07-07T07:53:36.000Z</time>
      </trkpt>
      <trkpt lat="46.83578" lon="6.53829">
        <ele>1336.8000488281</ele>
        <time>2017-07-07T07:53:39.000Z</time>
      </trkpt>
      <trkpt lat="46.83578" lon="6.53832">
        <ele>1336.1999511719</ele>
        <time>2017-07-07T07:53:40.000Z</time>
      </trkpt>
      <trkpt lat="46.83578" lon="6.5384">
        <ele>1335.4000244141</ele>
        <time>2017-07-07T07:53:42.000Z</time>
      </trkpt>
      <trkpt lat="46.83574" lon="6.5385">
        <ele>1334.5999755859</ele>
        <time>2017-07-07T07:53:44.000Z</time>
      </trkpt>
      <trkpt lat="46.83572" lon="6.53855">
        <ele>1333.5999755859</ele>
        <time>2017-07-07T07:53:45.000Z</time>
      </trkpt>
      <trkpt lat="46.83567" lon="6.53863">
        <ele>1332.1999511719</ele>
        <time>2017-07-07T07:53:47.000Z</time>
      </trkpt>
      <trkpt lat="46.83563" lon="6.53867">
        <ele>1331</ele>
        <time>2017-07-07T07:53:49.000Z</time>
      </trkpt>
      <trkpt lat="46.8356" lon="6.53869">
        <ele>1329.8000488281</ele>
        <time>2017-07-07T07:53:51.000Z</time>
      </trkpt>
      <trkpt lat="46.83557" lon="6.5387">
        <ele>1329</ele>
        <time>2017-07-07T07:53:53.000Z</time>
      </trkpt>
      <trkpt lat="46.83556" lon="6.53872">
        <ele>1328.5999755859</ele>
        <time>2017-07-07T07:53:54.000Z</time>
      </trkpt>
      <trkpt lat="46.83552" lon="6.53875">
        <ele>1327.8000488281</ele>
        <time>2017-07-07T07:53:56.000Z</time>
      </trkpt>
      <trkpt lat="46.83551" lon="6.53877">
        <ele>1327.4000244141</ele>
        <time>2017-07-07T07:53:57.000Z</time>
      </trkpt>
      <trkpt lat="46.83547" lon="6.53879">
        <ele>1326</ele>
        <time>2017-07-07T07:53:59.000Z</time>
      </trkpt>
      <trkpt lat="46.83542" lon="6.5388">
        <ele>1324.5999755859</ele>
        <time>2017-07-07T07:54:01.000Z</time>
      </trkpt>
      <trkpt lat="46.83538" lon="6.5388">
        <ele>1323.8000488281</ele>
        <time>2017-07-07T07:54:02.000Z</time>
      </trkpt>
      <trkpt lat="46.83535" lon="6.53877">
        <ele>1323.1999511719</ele>
        <time>2017-07-07T07:54:03.000Z</time>
      </trkpt>
      <trkpt lat="46.83531" lon="6.53874">
        <ele>1322.1999511719</ele>
        <time>2017-07-07T07:54:04.000Z</time>
      </trkpt>
      <trkpt lat="46.83527" lon="6.53869">
        <ele>1321.5999755859</ele>
        <time>2017-07-07T07:54:05.000Z</time>
      </trkpt>
      <trkpt lat="46.83522" lon="6.53864">
        <ele>1321.1999511719</ele>
        <time>2017-07-07T07:54:06.000Z</time>
      </trkpt>
      <trkpt lat="46.83517" lon="6.53858">
        <ele>1320.8000488281</ele>
        <time>2017-07-07T07:54:07.000Z</time>
      </trkpt>
      <trkpt lat="46.83511" lon="6.53855">
        <ele>1320.1999511719</ele>
        <time>2017-07-07T07:54:08.000Z</time>
      </trkpt>
      <trkpt lat="46.83495" lon="6.53842">
        <ele>1318.8000488281</ele>
        <time>2017-07-07T07:54:11.000Z</time>
      </trkpt>
      <trkpt lat="46.83491" lon="6.5384">
        <ele>1318.5999755859</ele>
        <time>2017-07-07T07:54:12.000Z</time>
      </trkpt>
      <trkpt lat="46.83473" lon="6.53838">
        <ele>1318.5999755859</ele>
        <time>2017-07-07T07:54:16.000Z</time>
      </trkpt>
      <trkpt lat="46.83459" lon="6.5384">
        <ele>1318.5999755859</ele>
        <time>2017-07-07T07:54:19.000Z</time>
      </trkpt>
      <trkpt lat="46.83451" lon="6.53841">
        <ele>1318.4000244141</ele>
        <time>2017-07-07T07:54:21.000Z</time>
      </trkpt>
      <trkpt lat="46.83444" lon="6.53843">
        <ele>1317.5999755859</ele>
        <time>2017-07-07T07:54:23.000Z</time>
      </trkpt>
      <trkpt lat="46.83434" lon="6.53845">
        <ele>1316.8000488281</ele>
        <time>2017-07-07T07:54:25.000Z</time>
      </trkpt>
      <trkpt lat="46.8343" lon="6.53845">
        <ele>1316</ele>
        <time>2017-07-07T07:54:26.000Z</time>
      </trkpt>
      <trkpt lat="46.83415" lon="6.53845">
        <ele>1314.8000488281</ele>
        <time>2017-07-07T07:54:29.000Z</time>
      </trkpt>
      <trkpt lat="46.83405" lon="6.53843">
        <ele>1313.5999755859</ele>
        <time>2017-07-07T07:54:31.000Z</time>
      </trkpt>
      <trkpt lat="46.8339" lon="6.53831">
        <ele>1312</ele>
        <time>2017-07-07T07:54:34.000Z</time>
      </trkpt>
      <trkpt lat="46.83386" lon="6.53827">
        <ele>1311.5999755859</ele>
        <time>2017-07-07T07:54:35.000Z</time>
      </trkpt>
      <trkpt lat="46.83374" lon="6.53812">
        <ele>1311.1999511719</ele>
        <time>2017-07-07T07:54:39.000Z</time>
      </trkpt>
      <trkpt lat="46.83359" lon="6.53797">
        <ele>1311.1999511719</ele>
        <time>2017-07-07T07:54:44.000Z</time>
      </trkpt>
      <trkpt lat="46.83345" lon="6.53785">
        <ele>1311.5999755859</ele>
        <time>2017-07-07T07:54:49.000Z</time>
      </trkpt>
      <trkpt lat="46.83339" lon="6.53782">
        <ele>1312</ele>
        <time>2017-07-07T07:54:51.000Z</time>
      </trkpt>
      <trkpt lat="46.83329" lon="6.53777">
        <ele>1312.5999755859</ele>
        <time>2017-07-07T07:54:54.000Z</time>
      </trkpt>
      <trkpt lat="46.83318" lon="6.53757">
        <ele>1312.5999755859</ele>
        <time>2017-07-07T07:54:59.000Z</time>
      </trkpt>
      <trkpt lat="46.83308" lon="6.53737">
        <ele>1310.8000488281</ele>
        <time>2017-07-07T07:55:03.000Z</time>
      </trkpt>
      <trkpt lat="46.83304" lon="6.53733">
        <ele>1310.5999755859</ele>
        <time>2017-07-07T07:55:04.000Z</time>
      </trkpt>
      <trkpt lat="46.83297" lon="6.53727">
        <ele>1310.4000244141</ele>
        <time>2017-07-07T07:55:06.000Z</time>
      </trkpt>
      <trkpt lat="46.83287" lon="6.53716">
        <ele>1309.8000488281</ele>
        <time>2017-07-07T07:55:09.000Z</time>
      </trkpt>
      <trkpt lat="46.83282" lon="6.53707">
        <ele>1308.4000244141</ele>
        <time>2017-07-07T07:55:11.000Z</time>
      </trkpt>
      <trkpt lat="46.83281" lon="6.53697">
        <ele>1307.1999511719</ele>
        <time>2017-07-07T07:55:13.000Z</time>
      </trkpt>
      <trkpt lat="46.83284" lon="6.5368">
        <ele>1305.8000488281</ele>
        <time>2017-07-07T07:55:16.000Z</time>
      </trkpt>
      <trkpt lat="46.83284" lon="6.53675">
        <ele>1305.5999755859</ele>
        <time>2017-07-07T07:55:17.000Z</time>
      </trkpt>
      <trkpt lat="46.83277" lon="6.53646">
        <ele>1306.8000488281</ele>
        <time>2017-07-07T07:55:23.000Z</time>
      </trkpt>
      <trkpt lat="46.83274" lon="6.53636">
        <ele>1307.5999755859</ele>
        <time>2017-07-07T07:55:25.000Z</time>
      </trkpt>
      <trkpt lat="46.83271" lon="6.53625">
        <ele>1308</ele>
        <time>2017-07-07T07:55:27.000Z</time>
      </trkpt>
      <trkpt lat="46.83269" lon="6.5362">
        <ele>1308.1999511719</ele>
        <time>2017-07-07T07:55:28.000Z</time>
      </trkpt>
      <trkpt lat="46.83262" lon="6.53602">
        <ele>1308.1999511719</ele>
        <time>2017-07-07T07:55:31.000Z</time>
      </trkpt>
      <trkpt lat="46.83257" lon="6.53593">
        <ele>1308.4000244141</ele>
        <time>2017-07-07T07:55:33.000Z</time>
      </trkpt>
      <trkpt lat="46.83239" lon="6.53568">
        <ele>1308.8000488281</ele>
        <time>2017-07-07T07:55:39.000Z</time>
      </trkpt>
      <trkpt lat="46.83237" lon="6.53563">
        <ele>1309</ele>
        <time>2017-07-07T07:55:40.000Z</time>
      </trkpt>
      <trkpt lat="46.83235" lon="6.53557">
        <ele>1309</ele>
        <time>2017-07-07T07:55:41.000Z</time>
      </trkpt>
      <trkpt lat="46.83233" lon="6.53546">
        <ele>1309.5999755859</ele>
        <time>2017-07-07T07:55:43.000Z</time>
      </trkpt>
      <trkpt lat="46.83233" lon="6.53534">
        <ele>1310.4000244141</ele>
        <time>2017-07-07T07:55:45.000Z</time>
      </trkpt>
      <trkpt lat="46.83232" lon="6.5352">
        <ele>1311.8000488281</ele>
        <time>2017-07-07T07:55:48.000Z</time>
      </trkpt>
      <trkpt lat="46.83231" lon="6.53516">
        <ele>1312</ele>
        <time>2017-07-07T07:55:49.000Z</time>
      </trkpt>
      <trkpt lat="46.83227" lon="6.53499">
        <ele>1312.8000488281</ele>
        <time>2017-07-07T07:55:53.000Z</time>
      </trkpt>
      <trkpt lat="46.83224" lon="6.53489">
        <ele>1313.4000244141</ele>
        <time>2017-07-07T07:55:55.000Z</time>
      </trkpt>
      <trkpt lat="46.83225" lon="6.53473">
        <ele>1314.4000244141</ele>
        <time>2017-07-07T07:55:58.000Z</time>
      </trkpt>
      <trkpt lat="46.83224" lon="6.53468">
        <ele>1315</ele>
        <time>2017-07-07T07:55:59.000Z</time>
      </trkpt>
      <trkpt lat="46.83224" lon="6.53464">
        <ele>1315.5999755859</ele>
        <time>2017-07-07T07:56:00.000Z</time>
      </trkpt>
      <trkpt lat="46.83223" lon="6.53455">
        <ele>1316.5999755859</ele>
        <time>2017-07-07T07:56:02.000Z</time>
      </trkpt>
      <trkpt lat="46.83223" lon="6.53444">
        <ele>1318</ele>
        <time>2017-07-07T07:56:05.000Z</time>
      </trkpt>
      <trkpt lat="46.83223" lon="6.5344">
        <ele>1318.5999755859</ele>
        <time>2017-07-07T07:56:06.000Z</time>
      </trkpt>
      <trkpt lat="46.83223" lon="6.53437">
        <ele>1319.1999511719</ele>
        <time>2017-07-07T07:56:07.000Z</time>
      </trkpt>
      <trkpt lat="46.83225" lon="6.53421">
        <ele>1320.5999755859</ele>
        <time>2017-07-07T07:56:11.000Z</time>
      </trkpt>
      <trkpt lat="46.83223" lon="6.53407">
        <ele>1321.5999755859</ele>
        <time>2017-07-07T07:56:14.000Z</time>
      </trkpt>
      <trkpt lat="46.8322" lon="6.53391">
        <ele>1322</ele>
        <time>2017-07-07T07:56:17.000Z</time>
      </trkpt>
      <trkpt lat="46.83216" lon="6.53345">
        <ele>1322.4000244141</ele>
        <time>2017-07-07T07:56:25.000Z</time>
      </trkpt>
      <trkpt lat="46.83216" lon="6.53328">
        <ele>1322.1999511719</ele>
        <time>2017-07-07T07:56:28.000Z</time>
      </trkpt>
      <trkpt lat="46.83215" lon="6.53321">
        <ele>1321.8000488281</ele>
        <time>2017-07-07T07:56:29.000Z</time>
      </trkpt>
      <trkpt lat="46.83216" lon="6.53307">
        <ele>1321.4000244141</ele>
        <time>2017-07-07T07:56:31.000Z</time>
      </trkpt>
      <trkpt lat="46.83218" lon="6.53295">
        <ele>1321.1999511719</ele>
        <time>2017-07-07T07:56:33.000Z</time>
      </trkpt>
      <trkpt lat="46.83223" lon="6.53273">
        <ele>1322.8000488281</ele>
        <time>2017-07-07T07:56:38.000Z</time>
      </trkpt>
      <trkpt lat="46.83223" lon="6.53263">
        <ele>1324.1999511719</ele>
        <time>2017-07-07T07:56:41.000Z</time>
      </trkpt>
      <trkpt lat="46.8322" lon="6.5326">
        <ele>1324.5999755859</ele>
        <time>2017-07-07T07:56:43.000Z</time>
      </trkpt>
      <trkpt lat="46.83211" lon="6.53259">
        <ele>1324</ele>
        <time>2017-07-07T07:56:48.000Z</time>
      </trkpt>
      <trkpt lat="46.83205" lon="6.53265">
        <ele>1323.1999511719</ele>
        <time>2017-07-07T07:56:50.000Z</time>
      </trkpt>
      <trkpt lat="46.83202" lon="6.53267">
        <ele>1322.5999755859</ele>
        <time>2017-07-07T07:56:51.000Z</time>
      </trkpt>
      <trkpt lat="46.83199" lon="6.53269">
        <ele>1321</ele>
        <time>2017-07-07T07:56:53.000Z</time>
      </trkpt>
      <trkpt lat="46.83197" lon="6.53271">
        <ele>1320.1999511719</ele>
        <time>2017-07-07T07:56:54.000Z</time>
      </trkpt>
      <trkpt lat="46.83194" lon="6.53275">
        <ele>1319.8000488281</ele>
        <time>2017-07-07T07:56:55.000Z</time>
      </trkpt>
      <trkpt lat="46.83188" lon="6.53283">
        <ele>1319</ele>
        <time>2017-07-07T07:56:57.000Z</time>
      </trkpt>
      <trkpt lat="46.83186" lon="6.53285">
        <ele>1318.1999511719</ele>
        <time>2017-07-07T07:56:58.000Z</time>
      </trkpt>
      <trkpt lat="46.83183" lon="6.53284">
        <ele>1316.5999755859</ele>
        <time>2017-07-07T07:57:00.000Z</time>
      </trkpt>
      <trkpt lat="46.83177" lon="6.53279">
        <ele>1315.4000244141</ele>
        <time>2017-07-07T07:57:03.000Z</time>
      </trkpt>
      <trkpt lat="46.83171" lon="6.53279">
        <ele>1314.8000488281</ele>
        <time>2017-07-07T07:57:05.000Z</time>
      </trkpt>
      <trkpt lat="46.83168" lon="6.53279">
        <ele>1314.1999511719</ele>
        <time>2017-07-07T07:57:06.000Z</time>
      </trkpt>
      <trkpt lat="46.8316" lon="6.53281">
        <ele>1313</ele>
        <time>2017-07-07T07:57:08.000Z</time>
      </trkpt>
      <trkpt lat="46.83155" lon="6.53284">
        <ele>1311.5999755859</ele>
        <time>2017-07-07T07:57:10.000Z</time>
      </trkpt>
      <trkpt lat="46.83152" lon="6.5329">
        <ele>1310.5999755859</ele>
        <time>2017-07-07T07:57:12.000Z</time>
      </trkpt>
      <trkpt lat="46.83151" lon="6.53293">
        <ele>1309.8000488281</ele>
        <time>2017-07-07T07:57:13.000Z</time>
      </trkpt>
      <trkpt lat="46.83148" lon="6.53296">
        <ele>1309</ele>
        <time>2017-07-07T07:57:16.000Z</time>
      </trkpt>
      <trkpt lat="46.83144" lon="6.53299">
        <ele>1308.8000488281</ele>
        <time>2017-07-07T07:57:18.000Z</time>
      </trkpt>
      <trkpt lat="46.83139" lon="6.53303">
        <ele>1308.4000244141</ele>
        <time>2017-07-07T07:57:20.000Z</time>
      </trkpt>
      <trkpt lat="46.83134" lon="6.53304">
        <ele>1307.5999755859</ele>
        <time>2017-07-07T07:57:22.000Z</time>
      </trkpt>
      <trkpt lat="46.83128" lon="6.53308">
        <ele>1306</ele>
        <time>2017-07-07T07:57:25.000Z</time>
      </trkpt>
      <trkpt lat="46.83124" lon="6.53315">
        <ele>1305</ele>
        <time>2017-07-07T07:57:28.000Z</time>
      </trkpt>
      <trkpt lat="46.83122" lon="6.5332">
        <ele>1304.5999755859</ele>
        <time>2017-07-07T07:57:30.000Z</time>
      </trkpt>
      <trkpt lat="46.83123" lon="6.53337">
        <ele>1304.1999511719</ele>
        <time>2017-07-07T07:57:34.000Z</time>
      </trkpt>
      <trkpt lat="46.83125" lon="6.53341">
        <ele>1304.4000244141</ele>
        <time>2017-07-07T07:57:35.000Z</time>
      </trkpt>
      <trkpt lat="46.83132" lon="6.53362">
        <ele>1305.8000488281</ele>
        <time>2017-07-07T07:57:40.000Z</time>
      </trkpt>
      <trkpt lat="46.83133" lon="6.53368">
        <ele>1306.4000244141</ele>
        <time>2017-07-07T07:57:41.000Z</time>
      </trkpt>
      <trkpt lat="46.83138" lon="6.53383">
        <ele>1307.1999511719</ele>
        <time>2017-07-07T07:57:44.000Z</time>
      </trkpt>
      <trkpt lat="46.83141" lon="6.53389">
        <ele>1307.4000244141</ele>
        <time>2017-07-07T07:57:45.000Z</time>
      </trkpt>
      <trkpt lat="46.83142" lon="6.53394">
        <ele>1307.8000488281</ele>
        <time>2017-07-07T07:57:46.000Z</time>
      </trkpt>
      <trkpt lat="46.83145" lon="6.53406">
        <ele>1308.1999511719</ele>
        <time>2017-07-07T07:57:48.000Z</time>
      </trkpt>
      <trkpt lat="46.83149" lon="6.53422">
        <ele>1308.4000244141</ele>
        <time>2017-07-07T07:57:51.000Z</time>
      </trkpt>
      <trkpt lat="46.83151" lon="6.53429">
        <ele>1308.5999755859</ele>
        <time>2017-07-07T07:57:52.000Z</time>
      </trkpt>
      <trkpt lat="46.83154" lon="6.53435">
        <ele>1308.5999755859</ele>
        <time>2017-07-07T07:57:53.000Z</time>
      </trkpt>
      <trkpt lat="46.83161" lon="6.53453">
        <ele>1308.4000244141</ele>
        <time>2017-07-07T07:57:56.000Z</time>
      </trkpt>
      <trkpt lat="46.83172" lon="6.53478">
        <ele>1307.8000488281</ele>
        <time>2017-07-07T07:58:00.000Z</time>
      </trkpt>
      <trkpt lat="46.8318" lon="6.53496">
        <ele>1307.4000244141</ele>
        <time>2017-07-07T07:58:03.000Z</time>
      </trkpt>
      <trkpt lat="46.83184" lon="6.53505">
        <ele>1307.4000244141</ele>
        <time>2017-07-07T07:58:05.000Z</time>
      </trkpt>
      <trkpt lat="46.83194" lon="6.53522">
        <ele>1308</ele>
        <time>2017-07-07T07:58:09.000Z</time>
      </trkpt>
      <trkpt lat="46.83204" lon="6.53538">
        <ele>1308.4000244141</ele>
        <time>2017-07-07T07:58:14.000Z</time>
      </trkpt>
      <trkpt lat="46.83205" lon="6.53542">
        <ele>1308.4000244141</ele>
        <time>2017-07-07T07:58:15.000Z</time>
      </trkpt>
      <trkpt lat="46.83204" lon="6.53549">
        <ele>1308.1999511719</ele>
        <time>2017-07-07T07:58:17.000Z</time>
      </trkpt>
      <trkpt lat="46.83197" lon="6.53554">
        <ele>1307.5999755859</ele>
        <time>2017-07-07T07:58:20.000Z</time>
      </trkpt>
      <trkpt lat="46.83194" lon="6.53556">
        <ele>1306.8000488281</ele>
        <time>2017-07-07T07:58:21.000Z</time>
      </trkpt>
      <trkpt lat="46.83192" lon="6.53559">
        <ele>1306.1999511719</ele>
        <time>2017-07-07T07:58:22.000Z</time>
      </trkpt>
      <trkpt lat="46.8319" lon="6.5356">
        <ele>1305.1999511719</ele>
        <time>2017-07-07T07:58:23.000Z</time>
      </trkpt>
      <trkpt lat="46.83187" lon="6.53563">
        <ele>1304.5999755859</ele>
        <time>2017-07-07T07:58:24.000Z</time>
      </trkpt>
      <trkpt lat="46.83181" lon="6.53571">
        <ele>1303.4000244141</ele>
        <time>2017-07-07T07:58:26.000Z</time>
      </trkpt>
      <trkpt lat="46.83175" lon="6.53578">
        <ele>1301.8000488281</ele>
        <time>2017-07-07T07:58:28.000Z</time>
      </trkpt>
      <trkpt lat="46.8317" lon="6.53583">
        <ele>1300.1999511719</ele>
        <time>2017-07-07T07:58:30.000Z</time>
      </trkpt>
      <trkpt lat="46.83168" lon="6.53585">
        <ele>1299</ele>
        <time>2017-07-07T07:58:31.000Z</time>
      </trkpt>
      <trkpt lat="46.83161" lon="6.53589">
        <ele>1297.5999755859</ele>
        <time>2017-07-07T07:58:33.000Z</time>
      </trkpt>
      <trkpt lat="46.83158" lon="6.53591">
        <ele>1296.1999511719</ele>
        <time>2017-07-07T07:58:34.000Z</time>
      </trkpt>
      <trkpt lat="46.83155" lon="6.53593">
        <ele>1295.1999511719</ele>
        <time>2017-07-07T07:58:35.000Z</time>
      </trkpt>
      <trkpt lat="46.83149" lon="6.53593">
        <ele>1293.8000488281</ele>
        <time>2017-07-07T07:58:37.000Z</time>
      </trkpt>
      <trkpt lat="46.83142" lon="6.53592">
        <ele>1292.4000244141</ele>
        <time>2017-07-07T07:58:39.000Z</time>
      </trkpt>
      <trkpt lat="46.83133" lon="6.5359">
        <ele>1290.4000244141</ele>
        <time>2017-07-07T07:58:41.000Z</time>
      </trkpt>
      <trkpt lat="46.83127" lon="6.53583">
        <ele>1289</ele>
        <time>2017-07-07T07:58:43.000Z</time>
      </trkpt>
      <trkpt lat="46.83121" lon="6.53574">
        <ele>1287.4000244141</ele>
        <time>2017-07-07T07:58:45.000Z</time>
      </trkpt>
      <trkpt lat="46.83116" lon="6.53559">
        <ele>1286.4000244141</ele>
        <time>2017-07-07T07:58:48.000Z</time>
      </trkpt>
      <trkpt lat="46.83115" lon="6.53555">
        <ele>1286.1999511719</ele>
        <time>2017-07-07T07:58:49.000Z</time>
      </trkpt>
      <trkpt lat="46.83112" lon="6.53541">
        <ele>1286</ele>
        <time>2017-07-07T07:58:52.000Z</time>
      </trkpt>
      <trkpt lat="46.83107" lon="6.5352">
        <ele>1286</ele>
        <time>2017-07-07T07:58:57.000Z</time>
      </trkpt>
      <trkpt lat="46.83101" lon="6.53501">
        <ele>1286.8000488281</ele>
        <time>2017-07-07T07:59:02.000Z</time>
      </trkpt>
      <trkpt lat="46.83094" lon="6.53474">
        <ele>1286.4000244141</ele>
        <time>2017-07-07T07:59:08.000Z</time>
      </trkpt>
      <trkpt lat="46.83092" lon="6.53457">
        <ele>1285.1999511719</ele>
        <time>2017-07-07T07:59:12.000Z</time>
      </trkpt>
      <trkpt lat="46.83091" lon="6.53453">
        <ele>1285</ele>
        <time>2017-07-07T07:59:13.000Z</time>
      </trkpt>
      <trkpt lat="46.83089" lon="6.53438">
        <ele>1284</ele>
        <time>2017-07-07T07:59:16.000Z</time>
      </trkpt>
      <trkpt lat="46.83088" lon="6.53427">
        <ele>1283.5999755859</ele>
        <time>2017-07-07T07:59:18.000Z</time>
      </trkpt>
      <trkpt lat="46.83085" lon="6.53412">
        <ele>1282.8000488281</ele>
        <time>2017-07-07T07:59:21.000Z</time>
      </trkpt>
      <trkpt lat="46.83084" lon="6.53406">
        <ele>1282.8000488281</ele>
        <time>2017-07-07T07:59:22.000Z</time>
      </trkpt>
      <trkpt lat="46.8308" lon="6.53391">
        <ele>1281.8000488281</ele>
        <time>2017-07-07T07:59:25.000Z</time>
      </trkpt>
      <trkpt lat="46.83077" lon="6.53384">
        <ele>1279.5999755859</ele>
        <time>2017-07-07T07:59:27.000Z</time>
      </trkpt>
      <trkpt lat="46.8307" lon="6.53377">
        <ele>1278.1999511719</ele>
        <time>2017-07-07T07:59:29.000Z</time>
      </trkpt>
      <trkpt lat="46.83066" lon="6.53373">
        <ele>1277.5999755859</ele>
        <time>2017-07-07T07:59:30.000Z</time>
      </trkpt>
      <trkpt lat="46.83062" lon="6.53367">
        <ele>1277</ele>
        <time>2017-07-07T07:59:31.000Z</time>
      </trkpt>
      <trkpt lat="46.83054" lon="6.53355">
        <ele>1275</ele>
        <time>2017-07-07T07:59:33.000Z</time>
      </trkpt>
      <trkpt lat="46.83051" lon="6.53349">
        <ele>1274.1999511719</ele>
        <time>2017-07-07T07:59:34.000Z</time>
      </trkpt>
      <trkpt lat="46.83048" lon="6.53341">
        <ele>1272.8000488281</ele>
        <time>2017-07-07T07:59:35.000Z</time>
      </trkpt>
      <trkpt lat="46.83046" lon="6.53334">
        <ele>1271.8000488281</ele>
        <time>2017-07-07T07:59:36.000Z</time>
      </trkpt>
      <trkpt lat="46.83044" lon="6.53329">
        <ele>1270.8000488281</ele>
        <time>2017-07-07T07:59:37.000Z</time>
      </trkpt>
      <trkpt lat="46.8304" lon="6.53324">
        <ele>1270.4000244141</ele>
        <time>2017-07-07T07:59:38.000Z</time>
      </trkpt>
      <trkpt lat="46.83031" lon="6.53313">
        <ele>1269</ele>
        <time>2017-07-07T07:59:40.000Z</time>
      </trkpt>
      <trkpt lat="46.83023" lon="6.53304">
        <ele>1267.4000244141</ele>
        <time>2017-07-07T07:59:42.000Z</time>
      </trkpt>
      <trkpt lat="46.83019" lon="6.53299">
        <ele>1266.1999511719</ele>
        <time>2017-07-07T07:59:43.000Z</time>
      </trkpt>
      <trkpt lat="46.83015" lon="6.53292">
        <ele>1265.1999511719</ele>
        <time>2017-07-07T07:59:44.000Z</time>
      </trkpt>
      <trkpt lat="46.83009" lon="6.53279">
        <ele>1263.1999511719</ele>
        <time>2017-07-07T07:59:46.000Z</time>
      </trkpt>
      <trkpt lat="46.83001" lon="6.53264">
        <ele>1261.4000244141</ele>
        <time>2017-07-07T07:59:48.000Z</time>
      </trkpt>
      <trkpt lat="46.82998" lon="6.53257">
        <ele>1260.5999755859</ele>
        <time>2017-07-07T07:59:49.000Z</time>
      </trkpt>
      <trkpt lat="46.82995" lon="6.53251">
        <ele>1259.5999755859</ele>
        <time>2017-07-07T07:59:50.000Z</time>
      </trkpt>
      <trkpt lat="46.82992" lon="6.53244">
        <ele>1258.4000244141</ele>
        <time>2017-07-07T07:59:51.000Z</time>
      </trkpt>
      <trkpt lat="46.82989" lon="6.53237">
        <ele>1257.4000244141</ele>
        <time>2017-07-07T07:59:52.000Z</time>
      </trkpt>
      <trkpt lat="46.82987" lon="6.53231">
        <ele>1256.4000244141</ele>
        <time>2017-07-07T07:59:53.000Z</time>
      </trkpt>
      <trkpt lat="46.82985" lon="6.53225">
        <ele>1255.1999511719</ele>
        <time>2017-07-07T07:59:54.000Z</time>
      </trkpt>
      <trkpt lat="46.82979" lon="6.53211">
        <ele>1253.8000488281</ele>
        <time>2017-07-07T07:59:57.000Z</time>
      </trkpt>
      <trkpt lat="46.82977" lon="6.53208">
        <ele>1253.4000244141</ele>
        <time>2017-07-07T07:59:58.000Z</time>
      </trkpt>
      <trkpt lat="46.82976" lon="6.53206">
        <ele>1252.5999755859</ele>
        <time>2017-07-07T07:59:59.000Z</time>
      </trkpt>
      <trkpt lat="46.82974" lon="6.53202">
        <ele>1251.5999755859</ele>
        <time>2017-07-07T08:00:02.000Z</time>
      </trkpt>
      <trkpt lat="46.82974" lon="6.53202">
        <ele>1250.8000488281</ele>
        <time>2017-07-07T08:00:12.000Z</time>
      </trkpt>
      <trkpt lat="46.82974" lon="6.53202">
        <ele>1250.8000488281</ele>
        <time>2017-07-07T08:00:25.000Z</time>
      </trkpt>
      <trkpt lat="46.82969" lon="6.53197">
        <ele>1250.5999755859</ele>
        <time>2017-07-07T08:00:33.000Z</time>
      </trkpt>
      <trkpt lat="46.82967" lon="6.53195">
        <ele>1250.4000244141</ele>
        <time>2017-07-07T08:00:34.000Z</time>
      </trkpt>
      <trkpt lat="46.82964" lon="6.53194">
        <ele>1250.4000244141</ele>
        <time>2017-07-07T08:00:35.000Z</time>
      </trkpt>
      <trkpt lat="46.82962" lon="6.53186">
        <ele>1249.5999755859</ele>
        <time>2017-07-07T08:00:37.000Z</time>
      </trkpt>
      <trkpt lat="46.82962" lon="6.53182">
        <ele>1249.1999511719</ele>
        <time>2017-07-07T08:00:38.000Z</time>
      </trkpt>
      <trkpt lat="46.82963" lon="6.53178">
        <ele>1248.8000488281</ele>
        <time>2017-07-07T08:00:39.000Z</time>
      </trkpt>
      <trkpt lat="46.82963" lon="6.53162">
        <ele>1248.5999755859</ele>
        <time>2017-07-07T08:00:42.000Z</time>
      </trkpt>
      <trkpt lat="46.82962" lon="6.53145">
        <ele>1248.1999511719</ele>
        <time>2017-07-07T08:00:45.000Z</time>
      </trkpt>
      <trkpt lat="46.82961" lon="6.53136">
        <ele>1248.4000244141</ele>
        <time>2017-07-07T08:00:47.000Z</time>
      </trkpt>
      <trkpt lat="46.8296" lon="6.53133">
        <ele>1248.5999755859</ele>
        <time>2017-07-07T08:00:48.000Z</time>
      </trkpt>
      <trkpt lat="46.82956" lon="6.53121">
        <ele>1249.1999511719</ele>
        <time>2017-07-07T08:00:51.000Z</time>
      </trkpt>
      <trkpt lat="46.82955" lon="6.53116">
        <ele>1249.5999755859</ele>
        <time>2017-07-07T08:00:52.000Z</time>
      </trkpt>
      <trkpt lat="46.82954" lon="6.53101">
        <ele>1249.8000488281</ele>
        <time>2017-07-07T08:00:56.000Z</time>
      </trkpt>
      <trkpt lat="46.82955" lon="6.5308">
        <ele>1250.1999511719</ele>
        <time>2017-07-07T08:01:01.000Z</time>
      </trkpt>
      <trkpt lat="46.82954" lon="6.53074">
        <ele>1250.5999755859</ele>
        <time>2017-07-07T08:01:03.000Z</time>
      </trkpt>
      <trkpt lat="46.82954" lon="6.53066">
        <ele>1251</ele>
        <time>2017-07-07T08:01:05.000Z</time>
      </trkpt>
      <trkpt lat="46.82953" lon="6.53053">
        <ele>1251.5999755859</ele>
        <time>2017-07-07T08:01:08.000Z</time>
      </trkpt>
      <trkpt lat="46.82952" lon="6.53045">
        <ele>1252</ele>
        <time>2017-07-07T08:01:10.000Z</time>
      </trkpt>
      <trkpt lat="46.82951" lon="6.5304">
        <ele>1252.5999755859</ele>
        <time>2017-07-07T08:01:12.000Z</time>
      </trkpt>
      <trkpt lat="46.82949" lon="6.53037">
        <ele>1253.5999755859</ele>
        <time>2017-07-07T08:01:15.000Z</time>
      </trkpt>
      <trkpt lat="46.82949" lon="6.53037">
        <ele>1253.8000488281</ele>
        <time>2017-07-07T08:01:16.000Z</time>
      </trkpt>
      <trkpt lat="46.82946" lon="6.5303">
        <ele>1254.1999511719</ele>
        <time>2017-07-07T08:01:24.000Z</time>
      </trkpt>
      <trkpt lat="46.82945" lon="6.53025">
        <ele>1254.1999511719</ele>
        <time>2017-07-07T08:01:29.000Z</time>
      </trkpt>
      <trkpt lat="46.82944" lon="6.53022">
        <ele>1254.4000244141</ele>
        <time>2017-07-07T08:01:32.000Z</time>
      </trkpt>
      <trkpt lat="46.82944" lon="6.53017">
        <ele>1254.5999755859</ele>
        <time>2017-07-07T08:01:34.000Z</time>
      </trkpt>
      <trkpt lat="46.82945" lon="6.53013">
        <ele>1254.8000488281</ele>
        <time>2017-07-07T08:01:35.000Z</time>
      </trkpt>
      <trkpt lat="46.82946" lon="6.53004">
        <ele>1256</ele>
        <time>2017-07-07T08:01:38.000Z</time>
      </trkpt>
      <trkpt lat="46.82945" lon="6.52998">
        <ele>1256.4000244141</ele>
        <time>2017-07-07T08:01:40.000Z</time>
      </trkpt>
      <trkpt lat="46.82939" lon="6.52983">
        <ele>1256.8000488281</ele>
        <time>2017-07-07T08:01:45.000Z</time>
      </trkpt>
      <trkpt lat="46.82934" lon="6.52961">
        <ele>1255.5999755859</ele>
        <time>2017-07-07T08:01:50.000Z</time>
      </trkpt>
      <trkpt lat="46.82929" lon="6.52949">
        <ele>1254.8000488281</ele>
        <time>2017-07-07T08:01:52.000Z</time>
      </trkpt>
      <trkpt lat="46.82922" lon="6.52931">
        <ele>1253.5999755859</ele>
        <time>2017-07-07T08:01:55.000Z</time>
      </trkpt>
      <trkpt lat="46.8292" lon="6.52921">
        <ele>1252.5999755859</ele>
        <time>2017-07-07T08:01:57.000Z</time>
      </trkpt>
      <trkpt lat="46.82919" lon="6.52912">
        <ele>1251.1999511719</ele>
        <time>2017-07-07T08:01:59.000Z</time>
      </trkpt>
      <trkpt lat="46.82914" lon="6.52892">
        <ele>1250</ele>
        <time>2017-07-07T08:02:03.000Z</time>
      </trkpt>
      <trkpt lat="46.82912" lon="6.52887">
        <ele>1249.4000244141</ele>
        <time>2017-07-07T08:02:04.000Z</time>
      </trkpt>
      <trkpt lat="46.82909" lon="6.52881">
        <ele>1248.8000488281</ele>
        <time>2017-07-07T08:02:05.000Z</time>
      </trkpt>
      <trkpt lat="46.82908" lon="6.52876">
        <ele>1248.1999511719</ele>
        <time>2017-07-07T08:02:06.000Z</time>
      </trkpt>
      <trkpt lat="46.82905" lon="6.52866">
        <ele>1246.4000244141</ele>
        <time>2017-07-07T08:02:08.000Z</time>
      </trkpt>
      <trkpt lat="46.82902" lon="6.52858">
        <ele>1245</ele>
        <time>2017-07-07T08:02:10.000Z</time>
      </trkpt>
      <trkpt lat="46.829" lon="6.52849">
        <ele>1244</ele>
        <time>2017-07-07T08:02:12.000Z</time>
      </trkpt>
      <trkpt lat="46.82899" lon="6.52837">
        <ele>1244.4000244141</ele>
        <time>2017-07-07T08:02:15.000Z</time>
      </trkpt>
      <trkpt lat="46.82897" lon="6.52828">
        <ele>1245</ele>
        <time>2017-07-07T08:02:17.000Z</time>
      </trkpt>
      <trkpt lat="46.82894" lon="6.52812">
        <ele>1246.1999511719</ele>
        <time>2017-07-07T08:02:20.000Z</time>
      </trkpt>
      <trkpt lat="46.82892" lon="6.5279">
        <ele>1247.4000244141</ele>
        <time>2017-07-07T08:02:24.000Z</time>
      </trkpt>
      <trkpt lat="46.82894" lon="6.52774">
        <ele>1248.5999755859</ele>
        <time>2017-07-07T08:02:28.000Z</time>
      </trkpt>
      <trkpt lat="46.82895" lon="6.5277">
        <ele>1248.8000488281</ele>
        <time>2017-07-07T08:02:29.000Z</time>
      </trkpt>
      <trkpt lat="46.82895" lon="6.52761">
        <ele>1250</ele>
        <time>2017-07-07T08:02:32.000Z</time>
      </trkpt>
      <trkpt lat="46.82893" lon="6.52758">
        <ele>1250.4000244141</ele>
        <time>2017-07-07T08:02:33.000Z</time>
      </trkpt>
      <trkpt lat="46.82892" lon="6.52753">
        <ele>1251.1999511719</ele>
        <time>2017-07-07T08:02:35.000Z</time>
      </trkpt>
      <trkpt lat="46.82892" lon="6.52752">
        <ele>1251.8000488281</ele>
        <time>2017-07-07T08:02:37.000Z</time>
      </trkpt>
      <trkpt lat="46.82889" lon="6.5274">
        <ele>1252</ele>
        <time>2017-07-07T08:02:44.000Z</time>
      </trkpt>
      <trkpt lat="46.82883" lon="6.52718">
        <ele>1252.1999511719</ele>
        <time>2017-07-07T08:02:49.000Z</time>
      </trkpt>
      <trkpt lat="46.82881" lon="6.52714">
        <ele>1252.4000244141</ele>
        <time>2017-07-07T08:02:50.000Z</time>
      </trkpt>
      <trkpt lat="46.82874" lon="6.52694">
        <ele>1252.5999755859</ele>
        <time>2017-07-07T08:02:54.000Z</time>
      </trkpt>
      <trkpt lat="46.82865" lon="6.52673">
        <ele>1252.1999511719</ele>
        <time>2017-07-07T08:02:58.000Z</time>
      </trkpt>
      <trkpt lat="46.82863" lon="6.52666">
        <ele>1252.1999511719</ele>
        <time>2017-07-07T08:02:59.000Z</time>
      </trkpt>
      <trkpt lat="46.82855" lon="6.5265">
        <ele>1251.8000488281</ele>
        <time>2017-07-07T08:03:01.000Z</time>
      </trkpt>
      <trkpt lat="46.82845" lon="6.52629">
        <ele>1251.4000244141</ele>
        <time>2017-07-07T08:03:03.000Z</time>
      </trkpt>
      <trkpt lat="46.82827" lon="6.52593">
        <ele>1250.1999511719</ele>
        <time>2017-07-07T08:03:07.000Z</time>
      </trkpt>
      <trkpt lat="46.82823" lon="6.52585">
        <ele>1250</ele>
        <time>2017-07-07T08:03:08.000Z</time>
      </trkpt>
      <trkpt lat="46.82806" lon="6.52552">
        <ele>1249.5999755859</ele>
        <time>2017-07-07T08:03:12.000Z</time>
      </trkpt>
      <trkpt lat="46.82792" lon="6.52521">
        <ele>1250.4000244141</ele>
        <time>2017-07-07T08:03:17.000Z</time>
      </trkpt>
      <trkpt lat="46.82785" lon="6.52505">
        <ele>1251.4000244141</ele>
        <time>2017-07-07T08:03:20.000Z</time>
      </trkpt>
      <trkpt lat="46.82779" lon="6.52488">
        <ele>1252</ele>
        <time>2017-07-07T08:03:23.000Z</time>
      </trkpt>
      <trkpt lat="46.82778" lon="6.52482">
        <ele>1252.4000244141</ele>
        <time>2017-07-07T08:03:24.000Z</time>
      </trkpt>
      <trkpt lat="46.82773" lon="6.52464">
        <ele>1253</ele>
        <time>2017-07-07T08:03:27.000Z</time>
      </trkpt>
      <trkpt lat="46.82772" lon="6.52458">
        <ele>1253</ele>
        <time>2017-07-07T08:03:28.000Z</time>
      </trkpt>
      <trkpt lat="46.82768" lon="6.52438">
        <ele>1253.4000244141</ele>
        <time>2017-07-07T08:03:31.000Z</time>
      </trkpt>
      <trkpt lat="46.82767" lon="6.52431">
        <ele>1253.8000488281</ele>
        <time>2017-07-07T08:03:32.000Z</time>
      </trkpt>
      <trkpt lat="46.82764" lon="6.52407">
        <ele>1254.4000244141</ele>
        <time>2017-07-07T08:03:36.000Z</time>
      </trkpt>
      <trkpt lat="46.82763" lon="6.52401">
        <ele>1254.5999755859</ele>
        <time>2017-07-07T08:03:37.000Z</time>
      </trkpt>
      <trkpt lat="46.8276" lon="6.52369">
        <ele>1255.8000488281</ele>
        <time>2017-07-07T08:03:42.000Z</time>
      </trkpt>
      <trkpt lat="46.8276" lon="6.52349">
        <ele>1256</ele>
        <time>2017-07-07T08:03:45.000Z</time>
      </trkpt>
      <trkpt lat="46.8276" lon="6.52336">
        <ele>1256.8000488281</ele>
        <time>2017-07-07T08:03:47.000Z</time>
      </trkpt>
      <trkpt lat="46.82761" lon="6.5233">
        <ele>1257.1999511719</ele>
        <time>2017-07-07T08:03:48.000Z</time>
      </trkpt>
      <trkpt lat="46.8276" lon="6.52306">
        <ele>1258.4000244141</ele>
        <time>2017-07-07T08:03:52.000Z</time>
      </trkpt>
      <trkpt lat="46.82761" lon="6.52298">
        <ele>1258.5999755859</ele>
        <time>2017-07-07T08:03:54.000Z</time>
      </trkpt>
      <trkpt lat="46.82761" lon="6.52289">
        <ele>1258.8000488281</ele>
        <time>2017-07-07T08:03:58.000Z</time>
      </trkpt>
      <trkpt lat="46.82761" lon="6.52287">
        <ele>1259.5999755859</ele>
        <time>2017-07-07T08:04:06.000Z</time>
      </trkpt>
      <trkpt lat="46.82761" lon="6.52286">
        <ele>1259.5999755859</ele>
        <time>2017-07-07T08:04:09.000Z</time>
      </trkpt>
      <trkpt lat="46.82761" lon="6.5228">
        <ele>1259</ele>
        <time>2017-07-07T08:04:19.000Z</time>
      </trkpt>
      <trkpt lat="46.82763" lon="6.52264">
        <ele>1259.1999511719</ele>
        <time>2017-07-07T08:04:23.000Z</time>
      </trkpt>
      <trkpt lat="46.82765" lon="6.52244">
        <ele>1260</ele>
        <time>2017-07-07T08:04:27.000Z</time>
      </trkpt>
      <trkpt lat="46.82766" lon="6.52233">
        <ele>1260.5999755859</ele>
        <time>2017-07-07T08:04:29.000Z</time>
      </trkpt>
      <trkpt lat="46.82767" lon="6.52227">
        <ele>1261</ele>
        <time>2017-07-07T08:04:30.000Z</time>
      </trkpt>
      <trkpt lat="46.82768" lon="6.52221">
        <ele>1261.1999511719</ele>
        <time>2017-07-07T08:04:31.000Z</time>
      </trkpt>
      <trkpt lat="46.82769" lon="6.52215">
        <ele>1261.5999755859</ele>
        <time>2017-07-07T08:04:32.000Z</time>
      </trkpt>
      <trkpt lat="46.8277" lon="6.52208">
        <ele>1262</ele>
        <time>2017-07-07T08:04:33.000Z</time>
      </trkpt>
      <trkpt lat="46.82771" lon="6.52188">
        <ele>1262.8000488281</ele>
        <time>2017-07-07T08:04:36.000Z</time>
      </trkpt>
      <trkpt lat="46.82772" lon="6.52182">
        <ele>1263</ele>
        <time>2017-07-07T08:04:37.000Z</time>
      </trkpt>
      <trkpt lat="46.82774" lon="6.5217">
        <ele>1263.4000244141</ele>
        <time>2017-07-07T08:04:39.000Z</time>
      </trkpt>
      <trkpt lat="46.82779" lon="6.52151">
        <ele>1264</ele>
        <time>2017-07-07T08:04:42.000Z</time>
      </trkpt>
      <trkpt lat="46.82781" lon="6.52145">
        <ele>1264.1999511719</ele>
        <time>2017-07-07T08:04:43.000Z</time>
      </trkpt>
      <trkpt lat="46.82787" lon="6.52121">
        <ele>1265.4000244141</ele>
        <time>2017-07-07T08:04:47.000Z</time>
      </trkpt>
      <trkpt lat="46.82789" lon="6.52108">
        <ele>1266.4000244141</ele>
        <time>2017-07-07T08:04:49.000Z</time>
      </trkpt>
      <trkpt lat="46.8279" lon="6.52101">
        <ele>1266.5999755859</ele>
        <time>2017-07-07T08:04:50.000Z</time>
      </trkpt>
      <trkpt lat="46.82794" lon="6.52081">
        <ele>1267.1999511719</ele>
        <time>2017-07-07T08:04:53.000Z</time>
      </trkpt>
      <trkpt lat="46.82795" lon="6.52075">
        <ele>1267.4000244141</ele>
        <time>2017-07-07T08:04:54.000Z</time>
      </trkpt>
      <trkpt lat="46.82797" lon="6.52062">
        <ele>1267.8000488281</ele>
        <time>2017-07-07T08:04:56.000Z</time>
      </trkpt>
      <trkpt lat="46.82798" lon="6.52056">
        <ele>1268</ele>
        <time>2017-07-07T08:04:57.000Z</time>
      </trkpt>
      <trkpt lat="46.82799" lon="6.5205">
        <ele>1268.1999511719</ele>
        <time>2017-07-07T08:04:58.000Z</time>
      </trkpt>
      <trkpt lat="46.82802" lon="6.52037">
        <ele>1268.5999755859</ele>
        <time>2017-07-07T08:05:00.000Z</time>
      </trkpt>
      <trkpt lat="46.82803" lon="6.52031">
        <ele>1268.8000488281</ele>
        <time>2017-07-07T08:05:01.000Z</time>
      </trkpt>
      <trkpt lat="46.82804" lon="6.52024">
        <ele>1269.4000244141</ele>
        <time>2017-07-07T08:05:02.000Z</time>
      </trkpt>
      <trkpt lat="46.82805" lon="6.52011">
        <ele>1270</ele>
        <time>2017-07-07T08:05:04.000Z</time>
      </trkpt>
      <trkpt lat="46.82804" lon="6.51997">
        <ele>1270</ele>
        <time>2017-07-07T08:05:06.000Z</time>
      </trkpt>
      <trkpt lat="46.82804" lon="6.5199">
        <ele>1270</ele>
        <time>2017-07-07T08:05:07.000Z</time>
      </trkpt>
      <trkpt lat="46.82807" lon="6.51971">
        <ele>1270.1999511719</ele>
        <time>2017-07-07T08:05:10.000Z</time>
      </trkpt>
      <trkpt lat="46.82808" lon="6.51965">
        <ele>1270.4000244141</ele>
        <time>2017-07-07T08:05:11.000Z</time>
      </trkpt>
      <trkpt lat="46.82808" lon="6.51952">
        <ele>1271</ele>
        <time>2017-07-07T08:05:13.000Z</time>
      </trkpt>
      <trkpt lat="46.82806" lon="6.5194">
        <ele>1271.5999755859</ele>
        <time>2017-07-07T08:05:15.000Z</time>
      </trkpt>
      <trkpt lat="46.82805" lon="6.51927">
        <ele>1272.1999511719</ele>
        <time>2017-07-07T08:05:17.000Z</time>
      </trkpt>
      <trkpt lat="46.82804" lon="6.51906">
        <ele>1273</ele>
        <time>2017-07-07T08:05:20.000Z</time>
      </trkpt>
      <trkpt lat="46.82804" lon="6.51899">
        <ele>1273.1999511719</ele>
        <time>2017-07-07T08:05:21.000Z</time>
      </trkpt>
      <trkpt lat="46.82803" lon="6.51885">
        <ele>1273.5999755859</ele>
        <time>2017-07-07T08:05:23.000Z</time>
      </trkpt>
      <trkpt lat="46.82799" lon="6.51857">
        <ele>1274</ele>
        <time>2017-07-07T08:05:27.000Z</time>
      </trkpt>
      <trkpt lat="46.82799" lon="6.51841">
        <ele>1274.1999511719</ele>
        <time>2017-07-07T08:05:29.000Z</time>
      </trkpt>
      <trkpt lat="46.82798" lon="6.51817">
        <ele>1274.1999511719</ele>
        <time>2017-07-07T08:05:32.000Z</time>
      </trkpt>
      <trkpt lat="46.82798" lon="6.51792">
        <ele>1273.5999755859</ele>
        <time>2017-07-07T08:05:35.000Z</time>
      </trkpt>
      <trkpt lat="46.82798" lon="6.51782">
        <ele>1273.4000244141</ele>
        <time>2017-07-07T08:05:36.000Z</time>
      </trkpt>
      <trkpt lat="46.82798" lon="6.51754">
        <ele>1273.1999511719</ele>
        <time>2017-07-07T08:05:39.000Z</time>
      </trkpt>
      <trkpt lat="46.82798" lon="6.51746">
        <ele>1273</ele>
        <time>2017-07-07T08:05:40.000Z</time>
      </trkpt>
      <trkpt lat="46.82795" lon="6.51726">
        <ele>1271.8000488281</ele>
        <time>2017-07-07T08:05:43.000Z</time>
      </trkpt>
      <trkpt lat="46.82791" lon="6.51719">
        <ele>1270.5999755859</ele>
        <time>2017-07-07T08:05:45.000Z</time>
      </trkpt>
      <trkpt lat="46.82787" lon="6.51716">
        <ele>1269.8000488281</ele>
        <time>2017-07-07T08:05:46.000Z</time>
      </trkpt>
      <trkpt lat="46.82783" lon="6.51713">
        <ele>1269</ele>
        <time>2017-07-07T08:05:47.000Z</time>
      </trkpt>
      <trkpt lat="46.82777" lon="6.51706">
        <ele>1268</ele>
        <time>2017-07-07T08:05:49.000Z</time>
      </trkpt>
      <trkpt lat="46.82774" lon="6.51703">
        <ele>1266.8000488281</ele>
        <time>2017-07-07T08:05:50.000Z</time>
      </trkpt>
      <trkpt lat="46.8277" lon="6.51699">
        <ele>1265.8000488281</ele>
        <time>2017-07-07T08:05:51.000Z</time>
      </trkpt>
      <trkpt lat="46.82766" lon="6.51695">
        <ele>1264.5999755859</ele>
        <time>2017-07-07T08:05:52.000Z</time>
      </trkpt>
      <trkpt lat="46.82762" lon="6.51691">
        <ele>1263.1999511719</ele>
        <time>2017-07-07T08:05:53.000Z</time>
      </trkpt>
      <trkpt lat="46.82758" lon="6.51684">
        <ele>1262</ele>
        <time>2017-07-07T08:05:54.000Z</time>
      </trkpt>
      <trkpt lat="46.82754" lon="6.51677">
        <ele>1261.1999511719</ele>
        <time>2017-07-07T08:05:55.000Z</time>
      </trkpt>
      <trkpt lat="46.82749" lon="6.51672">
        <ele>1260.1999511719</ele>
        <time>2017-07-07T08:05:56.000Z</time>
      </trkpt>
      <trkpt lat="46.82745" lon="6.51667">
        <ele>1259.1999511719</ele>
        <time>2017-07-07T08:05:57.000Z</time>
      </trkpt>
      <trkpt lat="46.8274" lon="6.51661">
        <ele>1258</ele>
        <time>2017-07-07T08:05:58.000Z</time>
      </trkpt>
      <trkpt lat="46.82735" lon="6.51656">
        <ele>1257</ele>
        <time>2017-07-07T08:05:59.000Z</time>
      </trkpt>
      <trkpt lat="46.8273" lon="6.51644">
        <ele>1254.8000488281</ele>
        <time>2017-07-07T08:06:01.000Z</time>
      </trkpt>
      <trkpt lat="46.82728" lon="6.51637">
        <ele>1253.8000488281</ele>
        <time>2017-07-07T08:06:02.000Z</time>
      </trkpt>
      <trkpt lat="46.82728" lon="6.51632">
        <ele>1252.5999755859</ele>
        <time>2017-07-07T08:06:03.000Z</time>
      </trkpt>
      <trkpt lat="46.82727" lon="6.51624">
        <ele>1251.4000244141</ele>
        <time>2017-07-07T08:06:05.000Z</time>
      </trkpt>
      <trkpt lat="46.82725" lon="6.51616">
        <ele>1250.4000244141</ele>
        <time>2017-07-07T08:06:07.000Z</time>
      </trkpt>
      <trkpt lat="46.82721" lon="6.51611">
        <ele>1249.1999511719</ele>
        <time>2017-07-07T08:06:08.000Z</time>
      </trkpt>
      <trkpt lat="46.82716" lon="6.51605">
        <ele>1248.1999511719</ele>
        <time>2017-07-07T08:06:09.000Z</time>
      </trkpt>
      <trkpt lat="46.82707" lon="6.51592">
        <ele>1246.5999755859</ele>
        <time>2017-07-07T08:06:11.000Z</time>
      </trkpt>
      <trkpt lat="46.82704" lon="6.51586">
        <ele>1246</ele>
        <time>2017-07-07T08:06:12.000Z</time>
      </trkpt>
      <trkpt lat="46.827" lon="6.5158">
        <ele>1245.5999755859</ele>
        <time>2017-07-07T08:06:13.000Z</time>
      </trkpt>
      <trkpt lat="46.82697" lon="6.51575">
        <ele>1244.8000488281</ele>
        <time>2017-07-07T08:06:14.000Z</time>
      </trkpt>
      <trkpt lat="46.82692" lon="6.51569">
        <ele>1243.5999755859</ele>
        <time>2017-07-07T08:06:15.000Z</time>
      </trkpt>
      <trkpt lat="46.82688" lon="6.51564">
        <ele>1242.4000244141</ele>
        <time>2017-07-07T08:06:16.000Z</time>
      </trkpt>
      <trkpt lat="46.82684" lon="6.51557">
        <ele>1240</ele>
        <time>2017-07-07T08:06:18.000Z</time>
      </trkpt>
      <trkpt lat="46.82682" lon="6.51554">
        <ele>1239</ele>
        <time>2017-07-07T08:06:19.000Z</time>
      </trkpt>
      <trkpt lat="46.8268" lon="6.5155">
        <ele>1238</ele>
        <time>2017-07-07T08:06:20.000Z</time>
      </trkpt>
      <trkpt lat="46.82677" lon="6.51544">
        <ele>1236.4000244141</ele>
        <time>2017-07-07T08:06:22.000Z</time>
      </trkpt>
      <trkpt lat="46.82675" lon="6.51541">
        <ele>1235.4000244141</ele>
        <time>2017-07-07T08:06:23.000Z</time>
      </trkpt>
      <trkpt lat="46.82674" lon="6.51538">
        <ele>1234.4000244141</ele>
        <time>2017-07-07T08:06:24.000Z</time>
      </trkpt>
      <trkpt lat="46.82672" lon="6.51533">
        <ele>1232.4000244141</ele>
        <time>2017-07-07T08:06:26.000Z</time>
      </trkpt>
      <trkpt lat="46.8267" lon="6.5153">
        <ele>1231.1999511719</ele>
        <time>2017-07-07T08:06:27.000Z</time>
      </trkpt>
      <trkpt lat="46.82665" lon="6.51526">
        <ele>1229.1999511719</ele>
        <time>2017-07-07T08:06:29.000Z</time>
      </trkpt>
      <trkpt lat="46.82663" lon="6.51525">
        <ele>1228.5999755859</ele>
        <time>2017-07-07T08:06:30.000Z</time>
      </trkpt>
      <trkpt lat="46.8266" lon="6.51525">
        <ele>1228</ele>
        <time>2017-07-07T08:06:31.000Z</time>
      </trkpt>
      <trkpt lat="46.82651" lon="6.51528">
        <ele>1226.4000244141</ele>
        <time>2017-07-07T08:06:33.000Z</time>
      </trkpt>
      <trkpt lat="46.82646" lon="6.51528">
        <ele>1225.1999511719</ele>
        <time>2017-07-07T08:06:34.000Z</time>
      </trkpt>
      <trkpt lat="46.82643" lon="6.51526">
        <ele>1224.1999511719</ele>
        <time>2017-07-07T08:06:35.000Z</time>
      </trkpt>
      <trkpt lat="46.82633" lon="6.51516">
        <ele>1222.5999755859</ele>
        <time>2017-07-07T08:06:37.000Z</time>
      </trkpt>
      <trkpt lat="46.82624" lon="6.51503">
        <ele>1221.4000244141</ele>
        <time>2017-07-07T08:06:39.000Z</time>
      </trkpt>
      <trkpt lat="46.8262" lon="6.51497">
        <ele>1220.4000244141</ele>
        <time>2017-07-07T08:06:40.000Z</time>
      </trkpt>
      <trkpt lat="46.82617" lon="6.51492">
        <ele>1219.8000488281</ele>
        <time>2017-07-07T08:06:41.000Z</time>
      </trkpt>
      <trkpt lat="46.82611" lon="6.51482">
        <ele>1218.1999511719</ele>
        <time>2017-07-07T08:06:43.000Z</time>
      </trkpt>
      <trkpt lat="46.82604" lon="6.51475">
        <ele>1216.5999755859</ele>
        <time>2017-07-07T08:06:45.000Z</time>
      </trkpt>
      <trkpt lat="46.82601" lon="6.51472">
        <ele>1215.5999755859</ele>
        <time>2017-07-07T08:06:46.000Z</time>
      </trkpt>
      <trkpt lat="46.82596" lon="6.51465">
        <ele>1213.5999755859</ele>
        <time>2017-07-07T08:06:48.000Z</time>
      </trkpt>
      <trkpt lat="46.82592" lon="6.51462">
        <ele>1212.8000488281</ele>
        <time>2017-07-07T08:06:49.000Z</time>
      </trkpt>
      <trkpt lat="46.82591" lon="6.5146">
        <ele>1212.4000244141</ele>
        <time>2017-07-07T08:06:50.000Z</time>
      </trkpt>
      <trkpt lat="46.8259" lon="6.5146">
        <ele>1211.4000244141</ele>
        <time>2017-07-07T08:06:53.000Z</time>
      </trkpt>
      <trkpt lat="46.82563" lon="6.51442">
        <ele>1209.5999755859</ele>
        <time>2017-07-07T08:40:59.000Z</time>
      </trkpt>
      <trkpt lat="46.8258" lon="6.51443">
        <ele>1210</ele>
        <time>2017-07-07T08:41:02.000Z</time>
      </trkpt>
      <trkpt lat="46.82585" lon="6.51445">
        <ele>1210.4000244141</ele>
        <time>2017-07-07T08:41:07.000Z</time>
      </trkpt>
      <trkpt lat="46.82587" lon="6.51444">
        <ele>1210.4000244141</ele>
        <time>2017-07-07T08:41:09.000Z</time>
      </trkpt>
      <trkpt lat="46.82591" lon="6.51443">
        <ele>1210.8000488281</ele>
        <time>2017-07-07T08:41:12.000Z</time>
      </trkpt>
      <trkpt lat="46.82601" lon="6.51444">
        <ele>1211.4000244141</ele>
        <time>2017-07-07T08:41:17.000Z</time>
      </trkpt>
      <trkpt lat="46.82618" lon="6.5145">
        <ele>1211</ele>
        <time>2017-07-07T08:41:23.000Z</time>
      </trkpt>
      <trkpt lat="46.82635" lon="6.51462">
        <ele>1211</ele>
        <time>2017-07-07T08:41:28.000Z</time>
      </trkpt>
      <trkpt lat="46.82645" lon="6.51467">
        <ele>1212</ele>
        <time>2017-07-07T08:41:31.000Z</time>
      </trkpt>
      <trkpt lat="46.82649" lon="6.51469">
        <ele>1212.1999511719</ele>
        <time>2017-07-07T08:41:32.000Z</time>
      </trkpt>
      <trkpt lat="46.82661" lon="6.51474">
        <ele>1213</ele>
        <time>2017-07-07T08:41:35.000Z</time>
      </trkpt>
      <trkpt lat="46.82673" lon="6.51476">
        <ele>1214.1999511719</ele>
        <time>2017-07-07T08:41:38.000Z</time>
      </trkpt>
      <trkpt lat="46.82676" lon="6.51477">
        <ele>1214.4000244141</ele>
        <time>2017-07-07T08:41:39.000Z</time>
      </trkpt>
      <trkpt lat="46.8268" lon="6.51478">
        <ele>1214.5999755859</ele>
        <time>2017-07-07T08:41:40.000Z</time>
      </trkpt>
      <trkpt lat="46.82687" lon="6.51479">
        <ele>1215.4000244141</ele>
        <time>2017-07-07T08:41:42.000Z</time>
      </trkpt>
      <trkpt lat="46.82694" lon="6.5148">
        <ele>1216.5999755859</ele>
        <time>2017-07-07T08:41:44.000Z</time>
      </trkpt>
      <trkpt lat="46.827" lon="6.51483">
        <ele>1217.1999511719</ele>
        <time>2017-07-07T08:41:46.000Z</time>
      </trkpt>
      <trkpt lat="46.82706" lon="6.51487">
        <ele>1218</ele>
        <time>2017-07-07T08:41:48.000Z</time>
      </trkpt>
      <trkpt lat="46.82715" lon="6.51493">
        <ele>1218.8000488281</ele>
        <time>2017-07-07T08:41:51.000Z</time>
      </trkpt>
      <trkpt lat="46.82718" lon="6.51495">
        <ele>1219</ele>
        <time>2017-07-07T08:41:52.000Z</time>
      </trkpt>
      <trkpt lat="46.82726" lon="6.51501">
        <ele>1220.4000244141</ele>
        <time>2017-07-07T08:41:55.000Z</time>
      </trkpt>
      <trkpt lat="46.8273" lon="6.51502">
        <ele>1220.8000488281</ele>
        <time>2017-07-07T08:41:56.000Z</time>
      </trkpt>
      <trkpt lat="46.82737" lon="6.51504">
        <ele>1221.4000244141</ele>
        <time>2017-07-07T08:41:58.000Z</time>
      </trkpt>
      <trkpt lat="46.82747" lon="6.51507">
        <ele>1222.5999755859</ele>
        <time>2017-07-07T08:42:01.000Z</time>
      </trkpt>
      <trkpt lat="46.82763" lon="6.51511">
        <ele>1224</ele>
        <time>2017-07-07T08:42:06.000Z</time>
      </trkpt>
      <trkpt lat="46.82766" lon="6.51512">
        <ele>1224.5999755859</ele>
        <time>2017-07-07T08:42:07.000Z</time>
      </trkpt>
      <trkpt lat="46.82769" lon="6.51513">
        <ele>1225</ele>
        <time>2017-07-07T08:42:08.000Z</time>
      </trkpt>
      <trkpt lat="46.82782" lon="6.51517">
        <ele>1226.1999511719</ele>
        <time>2017-07-07T08:42:12.000Z</time>
      </trkpt>
      <trkpt lat="46.82785" lon="6.51518">
        <ele>1226.5999755859</ele>
        <time>2017-07-07T08:42:13.000Z</time>
      </trkpt>
      <trkpt lat="46.82794" lon="6.51519">
        <ele>1227.5999755859</ele>
        <time>2017-07-07T08:42:16.000Z</time>
      </trkpt>
      <trkpt lat="46.82802" lon="6.51518">
        <ele>1228.4000244141</ele>
        <time>2017-07-07T08:42:19.000Z</time>
      </trkpt>
      <trkpt lat="46.82806" lon="6.51516">
        <ele>1228.4000244141</ele>
        <time>2017-07-07T08:42:20.000Z</time>
      </trkpt>
      <trkpt lat="46.82834" lon="6.51268">
        <ele>1228.4000244141</ele>
        <time>2017-07-07T08:43:37.000Z</time>
      </trkpt>
      <trkpt lat="46.82833" lon="6.51263">
        <ele>1228.5999755859</ele>
        <time>2017-07-07T08:43:38.000Z</time>
      </trkpt>
      <trkpt lat="46.82833" lon="6.51249">
        <ele>1229.8000488281</ele>
        <time>2017-07-07T08:43:41.000Z</time>
      </trkpt>
      <trkpt lat="46.82833" lon="6.51243">
        <ele>1229.8000488281</ele>
        <time>2017-07-07T08:43:42.000Z</time>
      </trkpt>
      <trkpt lat="46.82834" lon="6.51231">
        <ele>1230.1999511719</ele>
        <time>2017-07-07T08:43:44.000Z</time>
      </trkpt>
      <trkpt lat="46.82833" lon="6.51218">
        <ele>1230.8000488281</ele>
        <time>2017-07-07T08:43:46.000Z</time>
      </trkpt>
      <trkpt lat="46.82833" lon="6.51212">
        <ele>1231.1999511719</ele>
        <time>2017-07-07T08:43:47.000Z</time>
      </trkpt>
      <trkpt lat="46.82831" lon="6.51198">
        <ele>1231.8000488281</ele>
        <time>2017-07-07T08:43:49.000Z</time>
      </trkpt>
      <trkpt lat="46.8283" lon="6.51184">
        <ele>1232.4000244141</ele>
        <time>2017-07-07T08:43:51.000Z</time>
      </trkpt>
      <trkpt lat="46.82828" lon="6.51177">
        <ele>1232.4000244141</ele>
        <time>2017-07-07T08:43:52.000Z</time>
      </trkpt>
      <trkpt lat="46.82826" lon="6.51164">
        <ele>1233.4000244141</ele>
        <time>2017-07-07T08:43:54.000Z</time>
      </trkpt>
      <trkpt lat="46.82825" lon="6.51157">
        <ele>1233.8000488281</ele>
        <time>2017-07-07T08:43:55.000Z</time>
      </trkpt>
      <trkpt lat="46.82824" lon="6.51152">
        <ele>1234.1999511719</ele>
        <time>2017-07-07T08:43:56.000Z</time>
      </trkpt>
      <trkpt lat="46.82823" lon="6.51146">
        <ele>1234.4000244141</ele>
        <time>2017-07-07T08:43:57.000Z</time>
      </trkpt>
      <trkpt lat="46.82823" lon="6.5113">
        <ele>1235</ele>
        <time>2017-07-07T08:44:00.000Z</time>
      </trkpt>
      <trkpt lat="46.82823" lon="6.51119">
        <ele>1236</ele>
        <time>2017-07-07T08:44:02.000Z</time>
      </trkpt>
      <trkpt lat="46.82822" lon="6.51105">
        <ele>1236.8000488281</ele>
        <time>2017-07-07T08:44:04.000Z</time>
      </trkpt>
      <trkpt lat="46.82822" lon="6.51098">
        <ele>1237.1999511719</ele>
        <time>2017-07-07T08:44:05.000Z</time>
      </trkpt>
      <trkpt lat="46.82822" lon="6.51085">
        <ele>1237.4000244141</ele>
        <time>2017-07-07T08:44:07.000Z</time>
      </trkpt>
      <trkpt lat="46.82822" lon="6.51072">
        <ele>1238</ele>
        <time>2017-07-07T08:44:09.000Z</time>
      </trkpt>
      <trkpt lat="46.82823" lon="6.51065">
        <ele>1238.1999511719</ele>
        <time>2017-07-07T08:44:10.000Z</time>
      </trkpt>
      <trkpt lat="46.82824" lon="6.51036">
        <ele>1238.5999755859</ele>
        <time>2017-07-07T08:44:14.000Z</time>
      </trkpt>
      <trkpt lat="46.82824" lon="6.5103">
        <ele>1238.5999755859</ele>
        <time>2017-07-07T08:44:15.000Z</time>
      </trkpt>
      <trkpt lat="46.82826" lon="6.51011">
        <ele>1238.8000488281</ele>
        <time>2017-07-07T08:44:18.000Z</time>
      </trkpt>
      <trkpt lat="46.82826" lon="6.51004">
        <ele>1238.8000488281</ele>
        <time>2017-07-07T08:44:19.000Z</time>
      </trkpt>
      <trkpt lat="46.82826" lon="6.50997">
        <ele>1239.1999511719</ele>
        <time>2017-07-07T08:44:20.000Z</time>
      </trkpt>
      <trkpt lat="46.82828" lon="6.50984">
        <ele>1239.5999755859</ele>
        <time>2017-07-07T08:44:22.000Z</time>
      </trkpt>
      <trkpt lat="46.8283" lon="6.50969">
        <ele>1240</ele>
        <time>2017-07-07T08:44:24.000Z</time>
      </trkpt>
      <trkpt lat="46.82837" lon="6.50947">
        <ele>1239.8000488281</ele>
        <time>2017-07-07T08:44:27.000Z</time>
      </trkpt>
      <trkpt lat="46.82847" lon="6.50929">
        <ele>1239.8000488281</ele>
        <time>2017-07-07T08:44:30.000Z</time>
      </trkpt>
      <trkpt lat="46.82851" lon="6.50923">
        <ele>1240</ele>
        <time>2017-07-07T08:44:31.000Z</time>
      </trkpt>
      <trkpt lat="46.82855" lon="6.50916">
        <ele>1240</ele>
        <time>2017-07-07T08:44:32.000Z</time>
      </trkpt>
      <trkpt lat="46.82864" lon="6.50895">
        <ele>1240.4000244141</ele>
        <time>2017-07-07T08:44:35.000Z</time>
      </trkpt>
      <trkpt lat="46.82871" lon="6.50875">
        <ele>1240.8000488281</ele>
        <time>2017-07-07T08:44:38.000Z</time>
      </trkpt>
      <trkpt lat="46.82876" lon="6.50863">
        <ele>1241</ele>
        <time>2017-07-07T08:44:40.000Z</time>
      </trkpt>
      <trkpt lat="46.82878" lon="6.50858">
        <ele>1241.1999511719</ele>
        <time>2017-07-07T08:44:41.000Z</time>
      </trkpt>
      <trkpt lat="46.82888" lon="6.50841">
        <ele>1242.4000244141</ele>
        <time>2017-07-07T08:44:45.000Z</time>
      </trkpt>
      <trkpt lat="46.82891" lon="6.50837">
        <ele>1242.5999755859</ele>
        <time>2017-07-07T08:44:46.000Z</time>
      </trkpt>
      <trkpt lat="46.82897" lon="6.50828">
        <ele>1243</ele>
        <time>2017-07-07T08:44:48.000Z</time>
      </trkpt>
      <trkpt lat="46.82907" lon="6.50815">
        <ele>1243.4000244141</ele>
        <time>2017-07-07T08:44:51.000Z</time>
      </trkpt>
      <trkpt lat="46.82911" lon="6.50811">
        <ele>1243.5999755859</ele>
        <time>2017-07-07T08:44:52.000Z</time>
      </trkpt>
      <trkpt lat="46.82933" lon="6.50781">
        <ele>1244.5999755859</ele>
        <time>2017-07-07T08:44:58.000Z</time>
      </trkpt>
      <trkpt lat="46.82937" lon="6.50776">
        <ele>1244.5999755859</ele>
        <time>2017-07-07T08:44:59.000Z</time>
      </trkpt>
      <trkpt lat="46.82953" lon="6.50753">
        <ele>1245.8000488281</ele>
        <time>2017-07-07T08:45:04.000Z</time>
      </trkpt>
      <trkpt lat="46.82956" lon="6.5075">
        <ele>1246.1999511719</ele>
        <time>2017-07-07T08:45:05.000Z</time>
      </trkpt>
      <trkpt lat="46.82962" lon="6.50745">
        <ele>1247</ele>
        <time>2017-07-07T08:45:07.000Z</time>
      </trkpt>
      <trkpt lat="46.82971" lon="6.50743">
        <ele>1248</ele>
        <time>2017-07-07T08:45:10.000Z</time>
      </trkpt>
      <trkpt lat="46.82974" lon="6.50742">
        <ele>1248.1999511719</ele>
        <time>2017-07-07T08:45:11.000Z</time>
      </trkpt>
      <trkpt lat="46.82989" lon="6.50737">
        <ele>1249.5999755859</ele>
        <time>2017-07-07T08:45:15.000Z</time>
      </trkpt>
      <trkpt lat="46.82996" lon="6.50735">
        <ele>1250.8000488281</ele>
        <time>2017-07-07T08:45:17.000Z</time>
      </trkpt>
      <trkpt lat="46.83007" lon="6.50731">
        <ele>1251.8000488281</ele>
        <time>2017-07-07T08:45:20.000Z</time>
      </trkpt>
      <trkpt lat="46.83014" lon="6.50729">
        <ele>1253</ele>
        <time>2017-07-07T08:45:22.000Z</time>
      </trkpt>
      <trkpt lat="46.83026" lon="6.50725">
        <ele>1254</ele>
        <time>2017-07-07T08:45:25.000Z</time>
      </trkpt>
      <trkpt lat="46.83038" lon="6.50722">
        <ele>1255.1999511719</ele>
        <time>2017-07-07T08:45:28.000Z</time>
      </trkpt>
      <trkpt lat="46.83055" lon="6.50717">
        <ele>1256.4000244141</ele>
        <time>2017-07-07T08:45:32.000Z</time>
      </trkpt>
      <trkpt lat="46.8306" lon="6.50716">
        <ele>1256.5999755859</ele>
        <time>2017-07-07T08:45:33.000Z</time>
      </trkpt>
      <trkpt lat="46.83074" lon="6.50712">
        <ele>1257.5999755859</ele>
        <time>2017-07-07T08:45:36.000Z</time>
      </trkpt>
      <trkpt lat="46.83088" lon="6.50708">
        <ele>1258.4000244141</ele>
        <time>2017-07-07T08:45:39.000Z</time>
      </trkpt>
      <trkpt lat="46.83092" lon="6.50707">
        <ele>1258.5999755859</ele>
        <time>2017-07-07T08:45:40.000Z</time>
      </trkpt>
      <trkpt lat="46.83104" lon="6.50704">
        <ele>1259.8000488281</ele>
        <time>2017-07-07T08:45:43.000Z</time>
      </trkpt>
      <trkpt lat="46.83111" lon="6.50702">
        <ele>1260.8000488281</ele>
        <time>2017-07-07T08:45:45.000Z</time>
      </trkpt>
      <trkpt lat="46.83117" lon="6.50701">
        <ele>1262</ele>
        <time>2017-07-07T08:45:47.000Z</time>
      </trkpt>
      <trkpt lat="46.83128" lon="6.50699">
        <ele>1263.4000244141</ele>
        <time>2017-07-07T08:45:50.000Z</time>
      </trkpt>
      <trkpt lat="46.83139" lon="6.50699">
        <ele>1264.5999755859</ele>
        <time>2017-07-07T08:45:53.000Z</time>
      </trkpt>
      <trkpt lat="46.83152" lon="6.50701">
        <ele>1265.1999511719</ele>
        <time>2017-07-07T08:45:56.000Z</time>
      </trkpt>
      <trkpt lat="46.83161" lon="6.50701">
        <ele>1265.5999755859</ele>
        <time>2017-07-07T08:45:58.000Z</time>
      </trkpt>
      <trkpt lat="46.83178" lon="6.50703">
        <ele>1266.1999511719</ele>
        <time>2017-07-07T08:46:01.000Z</time>
      </trkpt>
      <trkpt lat="46.83214" lon="6.50712">
        <ele>1265.5999755859</ele>
        <time>2017-07-07T08:46:07.000Z</time>
      </trkpt>
      <trkpt lat="46.83247" lon="6.50722">
        <ele>1264.4000244141</ele>
        <time>2017-07-07T08:46:12.000Z</time>
      </trkpt>
      <trkpt lat="46.83275" lon="6.5073">
        <ele>1263.4000244141</ele>
        <time>2017-07-07T08:46:16.000Z</time>
      </trkpt>
      <trkpt lat="46.83289" lon="6.50734">
        <ele>1263</ele>
        <time>2017-07-07T08:46:18.000Z</time>
      </trkpt>
      <trkpt lat="46.83319" lon="6.50746">
        <ele>1262.8000488281</ele>
        <time>2017-07-07T08:46:23.000Z</time>
      </trkpt>
      <trkpt lat="46.83341" lon="6.50755">
        <ele>1262.5999755859</ele>
        <time>2017-07-07T08:46:27.000Z</time>
      </trkpt>
      <trkpt lat="46.83346" lon="6.50757">
        <ele>1262.5999755859</ele>
        <time>2017-07-07T08:46:28.000Z</time>
      </trkpt>
      <trkpt lat="46.83352" lon="6.50758">
        <ele>1262.8000488281</ele>
        <time>2017-07-07T08:46:29.000Z</time>
      </trkpt>
      <trkpt lat="46.83369" lon="6.50758">
        <ele>1263.1999511719</ele>
        <time>2017-07-07T08:46:32.000Z</time>
      </trkpt>
      <trkpt lat="46.83394" lon="6.50762">
        <ele>1263.8000488281</ele>
        <time>2017-07-07T08:46:37.000Z</time>
      </trkpt>
      <trkpt lat="46.83429" lon="6.50766">
        <ele>1262.5999755859</ele>
        <time>2017-07-07T08:46:42.000Z</time>
      </trkpt>
      <trkpt lat="46.83443" lon="6.50772">
        <ele>1262.4000244141</ele>
        <time>2017-07-07T08:46:44.000Z</time>
      </trkpt>
      <trkpt lat="46.83461" lon="6.50781">
        <ele>1262.8000488281</ele>
        <time>2017-07-07T08:46:47.000Z</time>
      </trkpt>
      <trkpt lat="46.83496" lon="6.50798">
        <ele>1262.5999755859</ele>
        <time>2017-07-07T08:46:53.000Z</time>
      </trkpt>
      <trkpt lat="46.83534" lon="6.50811">
        <ele>1263.4000244141</ele>
        <time>2017-07-07T08:47:00.000Z</time>
      </trkpt>
      <trkpt lat="46.8354" lon="6.50812">
        <ele>1263.4000244141</ele>
        <time>2017-07-07T08:47:01.000Z</time>
      </trkpt>
      <trkpt lat="46.83556" lon="6.50819">
        <ele>1263.8000488281</ele>
        <time>2017-07-07T08:47:04.000Z</time>
      </trkpt>
      <trkpt lat="46.83561" lon="6.5082">
        <ele>1263.5999755859</ele>
        <time>2017-07-07T08:47:05.000Z</time>
      </trkpt>
      <trkpt lat="46.83596" lon="6.50823">
        <ele>1263.1999511719</ele>
        <time>2017-07-07T08:47:11.000Z</time>
      </trkpt>
      <trkpt lat="46.8363" lon="6.50828">
        <ele>1263</ele>
        <time>2017-07-07T08:47:17.000Z</time>
      </trkpt>
      <trkpt lat="46.83677" lon="6.50838">
        <ele>1263.5999755859</ele>
        <time>2017-07-07T08:47:25.000Z</time>
      </trkpt>
      <trkpt lat="46.83717" lon="6.50844">
        <ele>1264.1999511719</ele>
        <time>2017-07-07T08:47:32.000Z</time>
      </trkpt>
      <trkpt lat="46.83737" lon="6.50844">
        <ele>1265.4000244141</ele>
        <time>2017-07-07T08:47:36.000Z</time>
      </trkpt>
      <trkpt lat="46.83751" lon="6.50845">
        <ele>1266.4000244141</ele>
        <time>2017-07-07T08:47:39.000Z</time>
      </trkpt>
      <trkpt lat="46.83756" lon="6.50845">
        <ele>1266.5999755859</ele>
        <time>2017-07-07T08:47:40.000Z</time>
      </trkpt>
      <trkpt lat="46.83781" lon="6.50846">
        <ele>1267.4000244141</ele>
        <time>2017-07-07T08:47:45.000Z</time>
      </trkpt>
      <trkpt lat="46.8381" lon="6.50845">
        <ele>1267.5999755859</ele>
        <time>2017-07-07T08:47:50.000Z</time>
      </trkpt>
      <trkpt lat="46.83815" lon="6.50846">
        <ele>1267.5999755859</ele>
        <time>2017-07-07T08:47:51.000Z</time>
      </trkpt>
      <trkpt lat="46.83819" lon="6.50847">
        <ele>1267.8000488281</ele>
        <time>2017-07-07T08:47:52.000Z</time>
      </trkpt>
      <trkpt lat="46.83832" lon="6.50856">
        <ele>1268.4000244141</ele>
        <time>2017-07-07T08:47:55.000Z</time>
      </trkpt>
      <trkpt lat="46.83838" lon="6.50862">
        <ele>1268.8000488281</ele>
        <time>2017-07-07T08:47:57.000Z</time>
      </trkpt>
      <trkpt lat="46.83847" lon="6.50868">
        <ele>1270.1999511719</ele>
        <time>2017-07-07T08:48:00.000Z</time>
      </trkpt>
      <trkpt lat="46.83861" lon="6.50875">
        <ele>1271.1999511719</ele>
        <time>2017-07-07T08:48:04.000Z</time>
      </trkpt>
      <trkpt lat="46.83872" lon="6.50879">
        <ele>1272.4000244141</ele>
        <time>2017-07-07T08:48:07.000Z</time>
      </trkpt>
      <trkpt lat="46.83876" lon="6.5088">
        <ele>1272.8000488281</ele>
        <time>2017-07-07T08:48:08.000Z</time>
      </trkpt>
      <trkpt lat="46.8388" lon="6.50881">
        <ele>1273.8000488281</ele>
        <time>2017-07-07T08:48:09.000Z</time>
      </trkpt>
      <trkpt lat="46.83896" lon="6.50886">
        <ele>1275.1999511719</ele>
        <time>2017-07-07T08:48:13.000Z</time>
      </trkpt>
      <trkpt lat="46.83908" lon="6.50891">
        <ele>1276</ele>
        <time>2017-07-07T08:48:16.000Z</time>
      </trkpt>
      <trkpt lat="46.83912" lon="6.50892">
        <ele>1276.4000244141</ele>
        <time>2017-07-07T08:48:17.000Z</time>
      </trkpt>
      <trkpt lat="46.83934" lon="6.50903">
        <ele>1277.4000244141</ele>
        <time>2017-07-07T08:48:22.000Z</time>
      </trkpt>
      <trkpt lat="46.83939" lon="6.50904">
        <ele>1277.8000488281</ele>
        <time>2017-07-07T08:48:23.000Z</time>
      </trkpt>
      <trkpt lat="46.83958" lon="6.50907">
        <ele>1278.8000488281</ele>
        <time>2017-07-07T08:48:27.000Z</time>
      </trkpt>
      <trkpt lat="46.8397" lon="6.50907">
        <ele>1279.5999755859</ele>
        <time>2017-07-07T08:48:30.000Z</time>
      </trkpt>
      <trkpt lat="46.83974" lon="6.50906">
        <ele>1280</ele>
        <time>2017-07-07T08:48:31.000Z</time>
      </trkpt>
      <trkpt lat="46.83995" lon="6.50902">
        <ele>1280.8000488281</ele>
        <time>2017-07-07T08:48:36.000Z</time>
      </trkpt>
      <trkpt lat="46.83999" lon="6.50901">
        <ele>1281.1999511719</ele>
        <time>2017-07-07T08:48:37.000Z</time>
      </trkpt>
      <trkpt lat="46.84024" lon="6.50893">
        <ele>1281.5999755859</ele>
        <time>2017-07-07T08:48:43.000Z</time>
      </trkpt>
      <trkpt lat="46.84031" lon="6.50894">
        <ele>1281.5999755859</ele>
        <time>2017-07-07T08:48:45.000Z</time>
      </trkpt>
      <trkpt lat="46.84042" lon="6.50899">
        <ele>1281.8000488281</ele>
        <time>2017-07-07T08:48:48.000Z</time>
      </trkpt>
      <trkpt lat="46.84058" lon="6.50907">
        <ele>1281.4000244141</ele>
        <time>2017-07-07T08:48:52.000Z</time>
      </trkpt>
      <trkpt lat="46.84063" lon="6.50908">
        <ele>1281.1999511719</ele>
        <time>2017-07-07T08:48:53.000Z</time>
      </trkpt>
      <trkpt lat="46.84083" lon="6.50916">
        <ele>1281.4000244141</ele>
        <time>2017-07-07T08:48:58.000Z</time>
      </trkpt>
      <trkpt lat="46.84091" lon="6.50919">
        <ele>1282.1999511719</ele>
        <time>2017-07-07T08:49:02.000Z</time>
      </trkpt>
      <trkpt lat="46.84091" lon="6.50919">
        <ele>1282.1999511719</ele>
        <time>2017-07-07T08:49:03.000Z</time>
      </trkpt>
      <trkpt lat="46.84093" lon="6.50919">
        <ele>1282.4000244141</ele>
        <time>2017-07-07T08:49:11.000Z</time>
      </trkpt>
      <trkpt lat="46.84094" lon="6.5092">
        <ele>1282.4000244141</ele>
        <time>2017-07-07T08:49:21.000Z</time>
      </trkpt>
      <trkpt lat="46.84094" lon="6.50919">
        <ele>1282.5999755859</ele>
        <time>2017-07-07T08:49:30.000Z</time>
      </trkpt>
      <trkpt lat="46.84094" lon="6.5092">
        <ele>1282.8000488281</ele>
        <time>2017-07-07T08:49:33.000Z</time>
      </trkpt>
      <trkpt lat="46.84095" lon="6.5092">
        <ele>1282.4000244141</ele>
        <time>2017-07-07T08:49:42.000Z</time>
      </trkpt>
      <trkpt lat="46.841" lon="6.50922">
        <ele>1282.1999511719</ele>
        <time>2017-07-07T08:49:49.000Z</time>
      </trkpt>
      <trkpt lat="46.84114" lon="6.50929">
        <ele>1283</ele>
        <time>2017-07-07T08:49:55.000Z</time>
      </trkpt>
      <trkpt lat="46.84117" lon="6.50932">
        <ele>1283</ele>
        <time>2017-07-07T08:49:56.000Z</time>
      </trkpt>
      <trkpt lat="46.84128" lon="6.50946">
        <ele>1283.5999755859</ele>
        <time>2017-07-07T08:50:00.000Z</time>
      </trkpt>
      <trkpt lat="46.84133" lon="6.50952">
        <ele>1284.4000244141</ele>
        <time>2017-07-07T08:50:02.000Z</time>
      </trkpt>
      <trkpt lat="46.84139" lon="6.50958">
        <ele>1285.1999511719</ele>
        <time>2017-07-07T08:50:05.000Z</time>
      </trkpt>
      <trkpt lat="46.8414" lon="6.50961">
        <ele>1285.8000488281</ele>
        <time>2017-07-07T08:50:06.000Z</time>
      </trkpt>
      <trkpt lat="46.84146" lon="6.50968">
        <ele>1286.8000488281</ele>
        <time>2017-07-07T08:50:09.000Z</time>
      </trkpt>
      <trkpt lat="46.84148" lon="6.50971">
        <ele>1287.4000244141</ele>
        <time>2017-07-07T08:50:10.000Z</time>
      </trkpt>
      <trkpt lat="46.84151" lon="6.50978">
        <ele>1287.8000488281</ele>
        <time>2017-07-07T08:50:12.000Z</time>
      </trkpt>
      <trkpt lat="46.84157" lon="6.50985">
        <ele>1288</ele>
        <time>2017-07-07T08:50:14.000Z</time>
      </trkpt>
      <trkpt lat="46.8417" lon="6.51004">
        <ele>1288.4000244141</ele>
        <time>2017-07-07T08:50:19.000Z</time>
      </trkpt>
      <trkpt lat="46.84181" lon="6.51023">
        <ele>1289</ele>
        <time>2017-07-07T08:50:24.000Z</time>
      </trkpt>
      <trkpt lat="46.84184" lon="6.5103">
        <ele>1290.1999511719</ele>
        <time>2017-07-07T08:50:26.000Z</time>
      </trkpt>
      <trkpt lat="46.8419" lon="6.5104">
        <ele>1291.4000244141</ele>
        <time>2017-07-07T08:50:29.000Z</time>
      </trkpt>
      <trkpt lat="46.84192" lon="6.51043">
        <ele>1292</ele>
        <time>2017-07-07T08:50:30.000Z</time>
      </trkpt>
      <trkpt lat="46.84193" lon="6.51046">
        <ele>1292.4000244141</ele>
        <time>2017-07-07T08:50:31.000Z</time>
      </trkpt>
      <trkpt lat="46.84199" lon="6.51055">
        <ele>1293.4000244141</ele>
        <time>2017-07-07T08:50:34.000Z</time>
      </trkpt>
      <trkpt lat="46.84205" lon="6.51067">
        <ele>1293.5999755859</ele>
        <time>2017-07-07T08:50:37.000Z</time>
      </trkpt>
      <trkpt lat="46.84213" lon="6.51083">
        <ele>1292.1999511719</ele>
        <time>2017-07-07T08:50:41.000Z</time>
      </trkpt>
      <trkpt lat="46.84214" lon="6.51094">
        <ele>1291</ele>
        <time>2017-07-07T08:50:43.000Z</time>
      </trkpt>
      <trkpt lat="46.84214" lon="6.51101">
        <ele>1290.4000244141</ele>
        <time>2017-07-07T08:50:44.000Z</time>
      </trkpt>
      <trkpt lat="46.84213" lon="6.51108">
        <ele>1289.1999511719</ele>
        <time>2017-07-07T08:50:45.000Z</time>
      </trkpt>
      <trkpt lat="46.84213" lon="6.51119">
        <ele>1287.4000244141</ele>
        <time>2017-07-07T08:50:47.000Z</time>
      </trkpt>
      <trkpt lat="46.84213" lon="6.51128">
        <ele>1286.1999511719</ele>
        <time>2017-07-07T08:50:49.000Z</time>
      </trkpt>
      <trkpt lat="46.84212" lon="6.5113">
        <ele>1285</ele>
        <time>2017-07-07T08:50:50.000Z</time>
      </trkpt>
      <trkpt lat="46.84207" lon="6.51136">
        <ele>1283.8000488281</ele>
        <time>2017-07-07T08:50:52.000Z</time>
      </trkpt>
      <trkpt lat="46.84203" lon="6.51142">
        <ele>1282.4000244141</ele>
        <time>2017-07-07T08:50:54.000Z</time>
      </trkpt>
      <trkpt lat="46.842" lon="6.51147">
        <ele>1281.1999511719</ele>
        <time>2017-07-07T08:50:56.000Z</time>
      </trkpt>
      <trkpt lat="46.84198" lon="6.51151">
        <ele>1280.1999511719</ele>
        <time>2017-07-07T08:50:57.000Z</time>
      </trkpt>
      <trkpt lat="46.84195" lon="6.51157">
        <ele>1278.4000244141</ele>
        <time>2017-07-07T08:50:58.000Z</time>
      </trkpt>
      <trkpt lat="46.84193" lon="6.51162">
        <ele>1277.4000244141</ele>
        <time>2017-07-07T08:50:59.000Z</time>
      </trkpt>
      <trkpt lat="46.84191" lon="6.51168">
        <ele>1276.1999511719</ele>
        <time>2017-07-07T08:51:00.000Z</time>
      </trkpt>
      <trkpt lat="46.84186" lon="6.51179">
        <ele>1274.1999511719</ele>
        <time>2017-07-07T08:51:02.000Z</time>
      </trkpt>
      <trkpt lat="46.84183" lon="6.51189">
        <ele>1272.4000244141</ele>
        <time>2017-07-07T08:51:04.000Z</time>
      </trkpt>
      <trkpt lat="46.84181" lon="6.51195">
        <ele>1271.5999755859</ele>
        <time>2017-07-07T08:51:05.000Z</time>
      </trkpt>
      <trkpt lat="46.84181" lon="6.512">
        <ele>1269.8000488281</ele>
        <time>2017-07-07T08:51:06.000Z</time>
      </trkpt>
      <trkpt lat="46.84178" lon="6.51212">
        <ele>1268.5999755859</ele>
        <time>2017-07-07T08:51:08.000Z</time>
      </trkpt>
      <trkpt lat="46.84178" lon="6.51218">
        <ele>1267.8000488281</ele>
        <time>2017-07-07T08:51:09.000Z</time>
      </trkpt>
      <trkpt lat="46.84176" lon="6.51226">
        <ele>1267.4000244141</ele>
        <time>2017-07-07T08:51:10.000Z</time>
      </trkpt>
      <trkpt lat="46.84175" lon="6.51234">
        <ele>1266.8000488281</ele>
        <time>2017-07-07T08:51:11.000Z</time>
      </trkpt>
      <trkpt lat="46.84173" lon="6.51241">
        <ele>1266.1999511719</ele>
        <time>2017-07-07T08:51:12.000Z</time>
      </trkpt>
      <trkpt lat="46.84173" lon="6.51247">
        <ele>1265.4000244141</ele>
        <time>2017-07-07T08:51:13.000Z</time>
      </trkpt>
      <trkpt lat="46.84173" lon="6.51254">
        <ele>1264.8000488281</ele>
        <time>2017-07-07T08:51:14.000Z</time>
      </trkpt>
      <trkpt lat="46.84172" lon="6.51261">
        <ele>1264.1999511719</ele>
        <time>2017-07-07T08:51:15.000Z</time>
      </trkpt>
      <trkpt lat="46.84171" lon="6.5127">
        <ele>1263.5999755859</ele>
        <time>2017-07-07T08:51:16.000Z</time>
      </trkpt>
      <trkpt lat="46.8417" lon="6.51283">
        <ele>1262.8000488281</ele>
        <time>2017-07-07T08:51:18.000Z</time>
      </trkpt>
      <trkpt lat="46.84169" lon="6.51292">
        <ele>1261.8000488281</ele>
        <time>2017-07-07T08:51:19.000Z</time>
      </trkpt>
      <trkpt lat="46.84169" lon="6.51299">
        <ele>1260.5999755859</ele>
        <time>2017-07-07T08:51:20.000Z</time>
      </trkpt>
      <trkpt lat="46.84169" lon="6.51307">
        <ele>1260</ele>
        <time>2017-07-07T08:51:21.000Z</time>
      </trkpt>
      <trkpt lat="46.84169" lon="6.51314">
        <ele>1259</ele>
        <time>2017-07-07T08:51:22.000Z</time>
      </trkpt>
      <trkpt lat="46.84168" lon="6.51329">
        <ele>1257.5999755859</ele>
        <time>2017-07-07T08:51:24.000Z</time>
      </trkpt>
      <trkpt lat="46.84165" lon="6.51346">
        <ele>1256</ele>
        <time>2017-07-07T08:51:26.000Z</time>
      </trkpt>
      <trkpt lat="46.84165" lon="6.51354">
        <ele>1255</ele>
        <time>2017-07-07T08:51:27.000Z</time>
      </trkpt>
      <trkpt lat="46.84165" lon="6.51361">
        <ele>1254.1999511719</ele>
        <time>2017-07-07T08:51:28.000Z</time>
      </trkpt>
      <trkpt lat="46.84166" lon="6.51369">
        <ele>1253</ele>
        <time>2017-07-07T08:51:29.000Z</time>
      </trkpt>
      <trkpt lat="46.84168" lon="6.51383">
        <ele>1251.8000488281</ele>
        <time>2017-07-07T08:51:31.000Z</time>
      </trkpt>
      <trkpt lat="46.84169" lon="6.51391">
        <ele>1251.5999755859</ele>
        <time>2017-07-07T08:51:32.000Z</time>
      </trkpt>
      <trkpt lat="46.8417" lon="6.51407">
        <ele>1250.4000244141</ele>
        <time>2017-07-07T08:51:34.000Z</time>
      </trkpt>
      <trkpt lat="46.8417" lon="6.51415">
        <ele>1249.4000244141</ele>
        <time>2017-07-07T08:51:35.000Z</time>
      </trkpt>
      <trkpt lat="46.8417" lon="6.51423">
        <ele>1248.4000244141</ele>
        <time>2017-07-07T08:51:36.000Z</time>
      </trkpt>
      <trkpt lat="46.84169" lon="6.51432">
        <ele>1247.4000244141</ele>
        <time>2017-07-07T08:51:37.000Z</time>
      </trkpt>
      <trkpt lat="46.84168" lon="6.5144">
        <ele>1246</ele>
        <time>2017-07-07T08:51:38.000Z</time>
      </trkpt>
      <trkpt lat="46.84167" lon="6.51448">
        <ele>1245.4000244141</ele>
        <time>2017-07-07T08:51:39.000Z</time>
      </trkpt>
      <trkpt lat="46.84166" lon="6.51455">
        <ele>1244.8000488281</ele>
        <time>2017-07-07T08:51:40.000Z</time>
      </trkpt>
      <trkpt lat="46.84163" lon="6.51469">
        <ele>1242.8000488281</ele>
        <time>2017-07-07T08:51:42.000Z</time>
      </trkpt>
      <trkpt lat="46.84158" lon="6.51483">
        <ele>1241.5999755859</ele>
        <time>2017-07-07T08:51:44.000Z</time>
      </trkpt>
      <trkpt lat="46.84155" lon="6.51499">
        <ele>1239.8000488281</ele>
        <time>2017-07-07T08:51:46.000Z</time>
      </trkpt>
      <trkpt lat="46.84154" lon="6.51507">
        <ele>1239</ele>
        <time>2017-07-07T08:51:47.000Z</time>
      </trkpt>
      <trkpt lat="46.84153" lon="6.51515">
        <ele>1238.4000244141</ele>
        <time>2017-07-07T08:51:48.000Z</time>
      </trkpt>
      <trkpt lat="46.84151" lon="6.51528">
        <ele>1236.8000488281</ele>
        <time>2017-07-07T08:51:50.000Z</time>
      </trkpt>
      <trkpt lat="46.84151" lon="6.51533">
        <ele>1236.1999511719</ele>
        <time>2017-07-07T08:51:51.000Z</time>
      </trkpt>
      <trkpt lat="46.8415" lon="6.51538">
        <ele>1235.5999755859</ele>
        <time>2017-07-07T08:51:52.000Z</time>
      </trkpt>
      <trkpt lat="46.84148" lon="6.51549">
        <ele>1234.5999755859</ele>
        <time>2017-07-07T08:51:54.000Z</time>
      </trkpt>
      <trkpt lat="46.84144" lon="6.51562">
        <ele>1233.5999755859</ele>
        <time>2017-07-07T08:51:56.000Z</time>
      </trkpt>
      <trkpt lat="46.84142" lon="6.5157">
        <ele>1233</ele>
        <time>2017-07-07T08:51:57.000Z</time>
      </trkpt>
      <trkpt lat="46.84141" lon="6.51576">
        <ele>1231.5999755859</ele>
        <time>2017-07-07T08:51:58.000Z</time>
      </trkpt>
      <trkpt lat="46.84141" lon="6.51583">
        <ele>1230.8000488281</ele>
        <time>2017-07-07T08:51:59.000Z</time>
      </trkpt>
      <trkpt lat="46.84141" lon="6.5159">
        <ele>1230.4000244141</ele>
        <time>2017-07-07T08:52:00.000Z</time>
      </trkpt>
      <trkpt lat="46.84146" lon="6.51606">
        <ele>1230.4000244141</ele>
        <time>2017-07-07T08:52:04.000Z</time>
      </trkpt>
      <trkpt lat="46.84156" lon="6.51626">
        <ele>1232</ele>
        <time>2017-07-07T08:52:09.000Z</time>
      </trkpt>
      <trkpt lat="46.84158" lon="6.5163">
        <ele>1232.5999755859</ele>
        <time>2017-07-07T08:52:10.000Z</time>
      </trkpt>
      <trkpt lat="46.8416" lon="6.51635">
        <ele>1233</ele>
        <time>2017-07-07T08:52:11.000Z</time>
      </trkpt>
      <trkpt lat="46.84166" lon="6.51645">
        <ele>1234</ele>
        <time>2017-07-07T08:52:13.000Z</time>
      </trkpt>
      <trkpt lat="46.84169" lon="6.51652">
        <ele>1235.4000244141</ele>
        <time>2017-07-07T08:52:15.000Z</time>
      </trkpt>
      <trkpt lat="46.84172" lon="6.51661">
        <ele>1237</ele>
        <time>2017-07-07T08:52:18.000Z</time>
      </trkpt>
      <trkpt lat="46.84174" lon="6.51666">
        <ele>1237.8000488281</ele>
        <time>2017-07-07T08:52:20.000Z</time>
      </trkpt>
      <trkpt lat="46.84176" lon="6.51669">
        <ele>1238.1999511719</ele>
        <time>2017-07-07T08:52:21.000Z</time>
      </trkpt>
      <trkpt lat="46.84176" lon="6.5168">
        <ele>1239.4000244141</ele>
        <time>2017-07-07T08:52:24.000Z</time>
      </trkpt>
      <trkpt lat="46.84174" lon="6.51685">
        <ele>1240.8000488281</ele>
        <time>2017-07-07T08:52:26.000Z</time>
      </trkpt>
      <trkpt lat="46.84169" lon="6.51689">
        <ele>1241.4000244141</ele>
        <time>2017-07-07T08:52:28.000Z</time>
      </trkpt>
      <trkpt lat="46.84168" lon="6.5169">
        <ele>1241.5999755859</ele>
        <time>2017-07-07T08:52:29.000Z</time>
      </trkpt>
      <trkpt lat="46.84166" lon="6.51692">
        <ele>1241.8000488281</ele>
        <time>2017-07-07T08:52:30.000Z</time>
      </trkpt>
      <trkpt lat="46.84159" lon="6.51699">
        <ele>1243.4000244141</ele>
        <time>2017-07-07T08:52:34.000Z</time>
      </trkpt>
      <trkpt lat="46.84154" lon="6.51704">
        <ele>1244.4000244141</ele>
        <time>2017-07-07T08:52:37.000Z</time>
      </trkpt>
      <trkpt lat="46.84145" lon="6.5171">
        <ele>1245.5999755859</ele>
        <time>2017-07-07T08:52:41.000Z</time>
      </trkpt>
      <trkpt lat="46.84134" lon="6.51715">
        <ele>1246.8000488281</ele>
        <time>2017-07-07T08:52:46.000Z</time>
      </trkpt>
      <trkpt lat="46.84132" lon="6.51715">
        <ele>1247</ele>
        <time>2017-07-07T08:52:47.000Z</time>
      </trkpt>
      <trkpt lat="46.84121" lon="6.51717">
        <ele>1248</ele>
        <time>2017-07-07T08:52:51.000Z</time>
      </trkpt>
      <trkpt lat="46.84107" lon="6.51717">
        <ele>1249.1999511719</ele>
        <time>2017-07-07T08:52:56.000Z</time>
      </trkpt>
      <trkpt lat="46.8409" lon="6.5172">
        <ele>1250</ele>
        <time>2017-07-07T08:53:01.000Z</time>
      </trkpt>
      <trkpt lat="46.84082" lon="6.51723">
        <ele>1250.4000244141</ele>
        <time>2017-07-07T08:53:04.000Z</time>
      </trkpt>
      <trkpt lat="46.8408" lon="6.51724">
        <ele>1250.5999755859</ele>
        <time>2017-07-07T08:53:05.000Z</time>
      </trkpt>
      <trkpt lat="46.84076" lon="6.51726">
        <ele>1251.5999755859</ele>
        <time>2017-07-07T08:53:07.000Z</time>
      </trkpt>
      <trkpt lat="46.84066" lon="6.51727">
        <ele>1252.8000488281</ele>
        <time>2017-07-07T08:53:11.000Z</time>
      </trkpt>
      <trkpt lat="46.84059" lon="6.5173">
        <ele>1253.5999755859</ele>
        <time>2017-07-07T08:53:14.000Z</time>
      </trkpt>
      <trkpt lat="46.84056" lon="6.51731">
        <ele>1254.1999511719</ele>
        <time>2017-07-07T08:53:15.000Z</time>
      </trkpt>
      <trkpt lat="46.84042" lon="6.51733">
        <ele>1255.4000244141</ele>
        <time>2017-07-07T08:53:20.000Z</time>
      </trkpt>
      <trkpt lat="46.84029" lon="6.51733">
        <ele>1256.8000488281</ele>
        <time>2017-07-07T08:53:25.000Z</time>
      </trkpt>
      <trkpt lat="46.84022" lon="6.51734">
        <ele>1258</ele>
        <time>2017-07-07T08:53:28.000Z</time>
      </trkpt>
      <trkpt lat="46.84008" lon="6.51736">
        <ele>1259.1999511719</ele>
        <time>2017-07-07T08:53:33.000Z</time>
      </trkpt>
      <trkpt lat="46.83995" lon="6.51738">
        <ele>1260.8000488281</ele>
        <time>2017-07-07T08:53:38.000Z</time>
      </trkpt>
      <trkpt lat="46.83984" lon="6.51735">
        <ele>1262</ele>
        <time>2017-07-07T08:53:42.000Z</time>
      </trkpt>
      <trkpt lat="46.83978" lon="6.51732">
        <ele>1262.5999755859</ele>
        <time>2017-07-07T08:53:44.000Z</time>
      </trkpt>
      <trkpt lat="46.83973" lon="6.5173">
        <ele>1263.1999511719</ele>
        <time>2017-07-07T08:53:46.000Z</time>
      </trkpt>
      <trkpt lat="46.83964" lon="6.51728">
        <ele>1263.8000488281</ele>
        <time>2017-07-07T08:53:49.000Z</time>
      </trkpt>
      <trkpt lat="46.83956" lon="6.51726">
        <ele>1264.5999755859</ele>
        <time>2017-07-07T08:53:52.000Z</time>
      </trkpt>
      <trkpt lat="46.83951" lon="6.51727">
        <ele>1265.1999511719</ele>
        <time>2017-07-07T08:53:54.000Z</time>
      </trkpt>
      <trkpt lat="46.83946" lon="6.51727">
        <ele>1266</ele>
        <time>2017-07-07T08:53:56.000Z</time>
      </trkpt>
      <trkpt lat="46.83937" lon="6.51727">
        <ele>1267.1999511719</ele>
        <time>2017-07-07T08:54:00.000Z</time>
      </trkpt>
      <trkpt lat="46.83935" lon="6.51726">
        <ele>1267.5999755859</ele>
        <time>2017-07-07T08:54:01.000Z</time>
      </trkpt>
      <trkpt lat="46.83926" lon="6.51727">
        <ele>1268.4000244141</ele>
        <time>2017-07-07T08:54:04.000Z</time>
      </trkpt>
      <trkpt lat="46.83918" lon="6.51724">
        <ele>1269.4000244141</ele>
        <time>2017-07-07T08:54:07.000Z</time>
      </trkpt>
      <trkpt lat="46.83915" lon="6.51724">
        <ele>1269.5999755859</ele>
        <time>2017-07-07T08:54:08.000Z</time>
      </trkpt>
      <trkpt lat="46.83901" lon="6.51719">
        <ele>1271.1999511719</ele>
        <time>2017-07-07T08:54:13.000Z</time>
      </trkpt>
      <trkpt lat="46.839" lon="6.51717">
        <ele>1271.4000244141</ele>
        <time>2017-07-07T08:54:14.000Z</time>
      </trkpt>
      <trkpt lat="46.83896" lon="6.51716">
        <ele>1272.1999511719</ele>
        <time>2017-07-07T08:54:18.000Z</time>
      </trkpt>
      <trkpt lat="46.83896" lon="6.51717">
        <ele>1272</ele>
        <time>2017-07-07T08:54:28.000Z</time>
      </trkpt>
      <trkpt lat="46.83895" lon="6.51716">
        <ele>1272</ele>
        <time>2017-07-07T08:54:38.000Z</time>
      </trkpt>
      <trkpt lat="46.83894" lon="6.51715">
        <ele>1272.4000244141</ele>
        <time>2017-07-07T08:54:47.000Z</time>
      </trkpt>
      <trkpt lat="46.83893" lon="6.51716">
        <ele>1272.5999755859</ele>
        <time>2017-07-07T08:54:59.000Z</time>
      </trkpt>
      <trkpt lat="46.83892" lon="6.51717">
        <ele>1272.5999755859</ele>
        <time>2017-07-07T08:55:08.000Z</time>
      </trkpt>
      <trkpt lat="46.83891" lon="6.51718">
        <ele>1272.5999755859</ele>
        <time>2017-07-07T08:55:09.000Z</time>
      </trkpt>
      <trkpt lat="46.8389" lon="6.51718">
        <ele>1273</ele>
        <time>2017-07-07T08:55:15.000Z</time>
      </trkpt>
      <trkpt lat="46.8389" lon="6.51717">
        <ele>1273</ele>
        <time>2017-07-07T08:55:27.000Z</time>
      </trkpt>
      <trkpt lat="46.83889" lon="6.51717">
        <ele>1273</ele>
        <time>2017-07-07T08:55:35.000Z</time>
      </trkpt>
      <trkpt lat="46.83889" lon="6.51719">
        <ele>1273</ele>
        <time>2017-07-07T08:55:37.000Z</time>
      </trkpt>
      <trkpt lat="46.83896" lon="6.51724">
        <ele>1273.4000244141</ele>
        <time>2017-07-07T08:55:41.000Z</time>
      </trkpt>
      <trkpt lat="46.83913" lon="6.51742">
        <ele>1274.1999511719</ele>
        <time>2017-07-07T08:55:47.000Z</time>
      </trkpt>
      <trkpt lat="46.83936" lon="6.51763">
        <ele>1275.1999511719</ele>
        <time>2017-07-07T08:55:53.000Z</time>
      </trkpt>
      <trkpt lat="46.83941" lon="6.51768">
        <ele>1275.4000244141</ele>
        <time>2017-07-07T08:55:54.000Z</time>
      </trkpt>
      <trkpt lat="46.83959" lon="6.51788">
        <ele>1276</ele>
        <time>2017-07-07T08:55:59.000Z</time>
      </trkpt>
      <trkpt lat="46.83972" lon="6.51802">
        <ele>1277</ele>
        <time>2017-07-07T08:56:03.000Z</time>
      </trkpt>
      <trkpt lat="46.83978" lon="6.5181">
        <ele>1277.5999755859</ele>
        <time>2017-07-07T08:56:05.000Z</time>
      </trkpt>
      <trkpt lat="46.83985" lon="6.51818">
        <ele>1278.4000244141</ele>
        <time>2017-07-07T08:56:07.000Z</time>
      </trkpt>
      <trkpt lat="46.83991" lon="6.51827">
        <ele>1279.8000488281</ele>
        <time>2017-07-07T08:56:09.000Z</time>
      </trkpt>
      <trkpt lat="46.84001" lon="6.51837">
        <ele>1280.4000244141</ele>
        <time>2017-07-07T08:56:12.000Z</time>
      </trkpt>
      <trkpt lat="46.84008" lon="6.51842">
        <ele>1281</ele>
        <time>2017-07-07T08:56:14.000Z</time>
      </trkpt>
      <trkpt lat="46.84019" lon="6.51847">
        <ele>1282.1999511719</ele>
        <time>2017-07-07T08:56:17.000Z</time>
      </trkpt>
      <trkpt lat="46.84028" lon="6.51855">
        <ele>1282.8000488281</ele>
        <time>2017-07-07T08:56:20.000Z</time>
      </trkpt>
      <trkpt lat="46.84041" lon="6.51864">
        <ele>1283.5999755859</ele>
        <time>2017-07-07T08:56:24.000Z</time>
      </trkpt>
      <trkpt lat="46.8405" lon="6.51874">
        <ele>1285</ele>
        <time>2017-07-07T08:56:27.000Z</time>
      </trkpt>
      <trkpt lat="46.84061" lon="6.51882">
        <ele>1286</ele>
        <time>2017-07-07T08:56:31.000Z</time>
      </trkpt>
      <trkpt lat="46.84063" lon="6.51884">
        <ele>1286.1999511719</ele>
        <time>2017-07-07T08:56:32.000Z</time>
      </trkpt>
      <trkpt lat="46.84069" lon="6.51885">
        <ele>1287.1999511719</ele>
        <time>2017-07-07T08:56:35.000Z</time>
      </trkpt>
      <trkpt lat="46.84073" lon="6.51886">
        <ele>1288</ele>
        <time>2017-07-07T08:56:37.000Z</time>
      </trkpt>
      <trkpt lat="46.84077" lon="6.51885">
        <ele>1288.5999755859</ele>
        <time>2017-07-07T08:56:39.000Z</time>
      </trkpt>
      <trkpt lat="46.8409" lon="6.51882">
        <ele>1289.8000488281</ele>
        <time>2017-07-07T08:56:43.000Z</time>
      </trkpt>
      <trkpt lat="46.84109" lon="6.51885">
        <ele>1291</ele>
        <time>2017-07-07T08:56:49.000Z</time>
      </trkpt>
      <trkpt lat="46.84116" lon="6.51888">
        <ele>1291.8000488281</ele>
        <time>2017-07-07T08:56:51.000Z</time>
      </trkpt>
      <trkpt lat="46.84125" lon="6.51891">
        <ele>1292.1999511719</ele>
        <time>2017-07-07T08:56:54.000Z</time>
      </trkpt>
      <trkpt lat="46.84133" lon="6.51892">
        <ele>1293.1999511719</ele>
        <time>2017-07-07T08:56:57.000Z</time>
      </trkpt>
      <trkpt lat="46.84136" lon="6.51892">
        <ele>1293.5999755859</ele>
        <time>2017-07-07T08:56:58.000Z</time>
      </trkpt>
      <trkpt lat="46.84148" lon="6.51896">
        <ele>1294.4000244141</ele>
        <time>2017-07-07T08:57:02.000Z</time>
      </trkpt>
      <trkpt lat="46.8416" lon="6.51903">
        <ele>1295.5999755859</ele>
        <time>2017-07-07T08:57:06.000Z</time>
      </trkpt>
      <trkpt lat="46.84166" lon="6.51908">
        <ele>1296.4000244141</ele>
        <time>2017-07-07T08:57:08.000Z</time>
      </trkpt>
      <trkpt lat="46.84172" lon="6.51913">
        <ele>1297</ele>
        <time>2017-07-07T08:57:10.000Z</time>
      </trkpt>
      <trkpt lat="46.84182" lon="6.51927">
        <ele>1298</ele>
        <time>2017-07-07T08:57:14.000Z</time>
      </trkpt>
      <trkpt lat="46.84185" lon="6.51931">
        <ele>1298.4000244141</ele>
        <time>2017-07-07T08:57:15.000Z</time>
      </trkpt>
      <trkpt lat="46.84191" lon="6.51943">
        <ele>1299.1999511719</ele>
        <time>2017-07-07T08:57:18.000Z</time>
      </trkpt>
      <trkpt lat="46.84198" lon="6.51965">
        <ele>1300.4000244141</ele>
        <time>2017-07-07T08:57:23.000Z</time>
      </trkpt>
      <trkpt lat="46.84199" lon="6.51977">
        <ele>1301</ele>
        <time>2017-07-07T08:57:27.000Z</time>
      </trkpt>
      <trkpt lat="46.84198" lon="6.51977">
        <ele>1301.4000244141</ele>
        <time>2017-07-07T08:57:30.000Z</time>
      </trkpt>
      <trkpt lat="46.84198" lon="6.51977">
        <ele>1301.5999755859</ele>
        <time>2017-07-07T08:57:33.000Z</time>
      </trkpt>
      <trkpt lat="46.84198" lon="6.51977">
        <ele>1301.4000244141</ele>
        <time>2017-07-07T08:57:46.000Z</time>
      </trkpt>
      <trkpt lat="46.84199" lon="6.51979">
        <ele>1301.8000488281</ele>
        <time>2017-07-07T08:57:51.000Z</time>
      </trkpt>
      <trkpt lat="46.84201" lon="6.51984">
        <ele>1301.8000488281</ele>
        <time>2017-07-07T08:57:53.000Z</time>
      </trkpt>
      <trkpt lat="46.84204" lon="6.51991">
        <ele>1302</ele>
        <time>2017-07-07T08:57:55.000Z</time>
      </trkpt>
      <trkpt lat="46.84209" lon="6.52001">
        <ele>1302.5999755859</ele>
        <time>2017-07-07T08:57:58.000Z</time>
      </trkpt>
      <trkpt lat="46.84209" lon="6.52004">
        <ele>1303</ele>
        <time>2017-07-07T08:57:59.000Z</time>
      </trkpt>
      <trkpt lat="46.84206" lon="6.52008">
        <ele>1303.5999755859</ele>
        <time>2017-07-07T08:58:01.000Z</time>
      </trkpt>
      <trkpt lat="46.84204" lon="6.52007">
        <ele>1303.8000488281</ele>
        <time>2017-07-07T08:58:02.000Z</time>
      </trkpt>
      <trkpt lat="46.84202" lon="6.52005">
        <ele>1304</ele>
        <time>2017-07-07T08:58:03.000Z</time>
      </trkpt>
      <trkpt lat="46.84199" lon="6.52001">
        <ele>1304.8000488281</ele>
        <time>2017-07-07T08:58:05.000Z</time>
      </trkpt>
      <trkpt lat="46.84194" lon="6.51995">
        <ele>1306.1999511719</ele>
        <time>2017-07-07T08:58:08.000Z</time>
      </trkpt>
      <trkpt lat="46.84192" lon="6.51993">
        <ele>1306.4000244141</ele>
        <time>2017-07-07T08:58:09.000Z</time>
      </trkpt>
      <trkpt lat="46.84187" lon="6.51986">
        <ele>1307.4000244141</ele>
        <time>2017-07-07T08:58:12.000Z</time>
      </trkpt>
      <trkpt lat="46.8418" lon="6.51981">
        <ele>1308.4000244141</ele>
        <time>2017-07-07T08:58:15.000Z</time>
      </trkpt>
      <trkpt lat="46.84172" lon="6.51977">
        <ele>1309.8000488281</ele>
        <time>2017-07-07T08:58:18.000Z</time>
      </trkpt>
      <trkpt lat="46.84165" lon="6.51972">
        <ele>1310.5999755859</ele>
        <time>2017-07-07T08:58:21.000Z</time>
      </trkpt>
      <trkpt lat="46.84162" lon="6.5197">
        <ele>1311</ele>
        <time>2017-07-07T08:58:22.000Z</time>
      </trkpt>
      <trkpt lat="46.84155" lon="6.51966">
        <ele>1312.4000244141</ele>
        <time>2017-07-07T08:58:25.000Z</time>
      </trkpt>
      <trkpt lat="46.84151" lon="6.51964">
        <ele>1313.4000244141</ele>
        <time>2017-07-07T08:58:27.000Z</time>
      </trkpt>
      <trkpt lat="46.84144" lon="6.51963">
        <ele>1314.4000244141</ele>
        <time>2017-07-07T08:58:30.000Z</time>
      </trkpt>
      <trkpt lat="46.84136" lon="6.51968">
        <ele>1315.5999755859</ele>
        <time>2017-07-07T08:58:33.000Z</time>
      </trkpt>
      <trkpt lat="46.84137" lon="6.51974">
        <ele>1316.8000488281</ele>
        <time>2017-07-07T08:58:36.000Z</time>
      </trkpt>
      <trkpt lat="46.84144" lon="6.51982">
        <ele>1318.4000244141</ele>
        <time>2017-07-07T08:58:40.000Z</time>
      </trkpt>
      <trkpt lat="46.84147" lon="6.51987">
        <ele>1319</ele>
        <time>2017-07-07T08:58:42.000Z</time>
      </trkpt>
      <trkpt lat="46.84151" lon="6.51991">
        <ele>1319.5999755859</ele>
        <time>2017-07-07T08:58:44.000Z</time>
      </trkpt>
      <trkpt lat="46.84155" lon="6.51998">
        <ele>1320.4000244141</ele>
        <time>2017-07-07T08:58:47.000Z</time>
      </trkpt>
      <trkpt lat="46.84157" lon="6.52">
        <ele>1320.8000488281</ele>
        <time>2017-07-07T08:58:48.000Z</time>
      </trkpt>
      <trkpt lat="46.84158" lon="6.52003">
        <ele>1321</ele>
        <time>2017-07-07T08:58:49.000Z</time>
      </trkpt>
      <trkpt lat="46.84162" lon="6.52011">
        <ele>1321.8000488281</ele>
        <time>2017-07-07T08:58:52.000Z</time>
      </trkpt>
      <trkpt lat="46.84167" lon="6.52017">
        <ele>1323</ele>
        <time>2017-07-07T08:58:55.000Z</time>
      </trkpt>
      <trkpt lat="46.84169" lon="6.5202">
        <ele>1323.4000244141</ele>
        <time>2017-07-07T08:58:56.000Z</time>
      </trkpt>
      <trkpt lat="46.84173" lon="6.52027">
        <ele>1324.1999511719</ele>
        <time>2017-07-07T08:58:59.000Z</time>
      </trkpt>
      <trkpt lat="46.84176" lon="6.52032">
        <ele>1324.5999755859</ele>
        <time>2017-07-07T08:59:01.000Z</time>
      </trkpt>
      <trkpt lat="46.8418" lon="6.52037">
        <ele>1325.1999511719</ele>
        <time>2017-07-07T08:59:03.000Z</time>
      </trkpt>
      <trkpt lat="46.84188" lon="6.5205">
        <ele>1326.4000244141</ele>
        <time>2017-07-07T08:59:07.000Z</time>
      </trkpt>
      <trkpt lat="46.84189" lon="6.52054">
        <ele>1326.5999755859</ele>
        <time>2017-07-07T08:59:08.000Z</time>
      </trkpt>
      <trkpt lat="46.84195" lon="6.52065">
        <ele>1327.4000244141</ele>
        <time>2017-07-07T08:59:11.000Z</time>
      </trkpt>
      <trkpt lat="46.84205" lon="6.52076">
        <ele>1328</ele>
        <time>2017-07-07T08:59:15.000Z</time>
      </trkpt>
      <trkpt lat="46.84213" lon="6.52084">
        <ele>1328.4000244141</ele>
        <time>2017-07-07T08:59:18.000Z</time>
      </trkpt>
      <trkpt lat="46.84223" lon="6.52096">
        <ele>1329.5999755859</ele>
        <time>2017-07-07T08:59:22.000Z</time>
      </trkpt>
      <trkpt lat="46.84229" lon="6.52107">
        <ele>1330.8000488281</ele>
        <time>2017-07-07T08:59:25.000Z</time>
      </trkpt>
      <trkpt lat="46.84236" lon="6.52117">
        <ele>1332</ele>
        <time>2017-07-07T08:59:28.000Z</time>
      </trkpt>
      <trkpt lat="46.84242" lon="6.52126">
        <ele>1333</ele>
        <time>2017-07-07T08:59:31.000Z</time>
      </trkpt>
      <trkpt lat="46.84247" lon="6.52131">
        <ele>1333.8000488281</ele>
        <time>2017-07-07T08:59:33.000Z</time>
      </trkpt>
      <trkpt lat="46.8425" lon="6.52133">
        <ele>1334.5999755859</ele>
        <time>2017-07-07T08:59:34.000Z</time>
      </trkpt>
      <trkpt lat="46.84252" lon="6.52136">
        <ele>1335</ele>
        <time>2017-07-07T08:59:35.000Z</time>
      </trkpt>
      <trkpt lat="46.84259" lon="6.52143">
        <ele>1336</ele>
        <time>2017-07-07T08:59:38.000Z</time>
      </trkpt>
      <trkpt lat="46.84262" lon="6.52146">
        <ele>1336.5999755859</ele>
        <time>2017-07-07T08:59:39.000Z</time>
      </trkpt>
      <trkpt lat="46.84265" lon="6.52148">
        <ele>1337.1999511719</ele>
        <time>2017-07-07T08:59:40.000Z</time>
      </trkpt>
      <trkpt lat="46.84273" lon="6.52153">
        <ele>1338.5999755859</ele>
        <time>2017-07-07T08:59:43.000Z</time>
      </trkpt>
      <trkpt lat="46.84278" lon="6.52157">
        <ele>1339.4000244141</ele>
        <time>2017-07-07T08:59:45.000Z</time>
      </trkpt>
      <trkpt lat="46.84281" lon="6.52158">
        <ele>1339.8000488281</ele>
        <time>2017-07-07T08:59:46.000Z</time>
      </trkpt>
      <trkpt lat="46.84288" lon="6.52165">
        <ele>1341.1999511719</ele>
        <time>2017-07-07T08:59:49.000Z</time>
      </trkpt>
      <trkpt lat="46.84292" lon="6.52167">
        <ele>1342</ele>
        <time>2017-07-07T08:59:51.000Z</time>
      </trkpt>
      <trkpt lat="46.84294" lon="6.52168">
        <ele>1342.5999755859</ele>
        <time>2017-07-07T08:59:52.000Z</time>
      </trkpt>
      <trkpt lat="46.84299" lon="6.52165">
        <ele>1343.8000488281</ele>
        <time>2017-07-07T08:59:54.000Z</time>
      </trkpt>
      <trkpt lat="46.84301" lon="6.52162">
        <ele>1344.4000244141</ele>
        <time>2017-07-07T08:59:55.000Z</time>
      </trkpt>
      <trkpt lat="46.84303" lon="6.52159">
        <ele>1344.8000488281</ele>
        <time>2017-07-07T08:59:56.000Z</time>
      </trkpt>
      <trkpt lat="46.84309" lon="6.52148">
        <ele>1346.4000244141</ele>
        <time>2017-07-07T08:59:59.000Z</time>
      </trkpt>
      <trkpt lat="46.84314" lon="6.52138">
        <ele>1347.4000244141</ele>
        <time>2017-07-07T09:00:02.000Z</time>
      </trkpt>
      <trkpt lat="46.84325" lon="6.5213">
        <ele>1348.5999755859</ele>
        <time>2017-07-07T09:00:06.000Z</time>
      </trkpt>
      <trkpt lat="46.84331" lon="6.52128">
        <ele>1349.4000244141</ele>
        <time>2017-07-07T09:00:08.000Z</time>
      </trkpt>
      <trkpt lat="46.84337" lon="6.52125">
        <ele>1349.5999755859</ele>
        <time>2017-07-07T09:00:10.000Z</time>
      </trkpt>
      <trkpt lat="46.84343" lon="6.52121">
        <ele>1350.8000488281</ele>
        <time>2017-07-07T09:00:12.000Z</time>
      </trkpt>
      <trkpt lat="46.8435" lon="6.52118">
        <ele>1351.8000488281</ele>
        <time>2017-07-07T09:00:14.000Z</time>
      </trkpt>
      <trkpt lat="46.84356" lon="6.52115">
        <ele>1352.5999755859</ele>
        <time>2017-07-07T09:00:16.000Z</time>
      </trkpt>
      <trkpt lat="46.84358" lon="6.52113">
        <ele>1353</ele>
        <time>2017-07-07T09:00:17.000Z</time>
      </trkpt>
      <trkpt lat="46.84364" lon="6.52109">
        <ele>1354.1999511719</ele>
        <time>2017-07-07T09:00:19.000Z</time>
      </trkpt>
      <trkpt lat="46.84372" lon="6.52105">
        <ele>1355.4000244141</ele>
        <time>2017-07-07T09:00:22.000Z</time>
      </trkpt>
      <trkpt lat="46.84377" lon="6.52103">
        <ele>1356.4000244141</ele>
        <time>2017-07-07T09:00:24.000Z</time>
      </trkpt>
      <trkpt lat="46.84379" lon="6.52101">
        <ele>1356.8000488281</ele>
        <time>2017-07-07T09:00:25.000Z</time>
      </trkpt>
      <trkpt lat="46.84387" lon="6.521">
        <ele>1358.4000244141</ele>
        <time>2017-07-07T09:00:28.000Z</time>
      </trkpt>
      <trkpt lat="46.84394" lon="6.521">
        <ele>1359.8000488281</ele>
        <time>2017-07-07T09:00:31.000Z</time>
      </trkpt>
      <trkpt lat="46.844" lon="6.52102">
        <ele>1360.8000488281</ele>
        <time>2017-07-07T09:00:33.000Z</time>
      </trkpt>
      <trkpt lat="46.84406" lon="6.52109">
        <ele>1362</ele>
        <time>2017-07-07T09:00:36.000Z</time>
      </trkpt>
      <trkpt lat="46.84411" lon="6.52118">
        <ele>1363</ele>
        <time>2017-07-07T09:00:39.000Z</time>
      </trkpt>
      <trkpt lat="46.84413" lon="6.5213">
        <ele>1364</ele>
        <time>2017-07-07T09:00:42.000Z</time>
      </trkpt>
      <trkpt lat="46.84414" lon="6.52137">
        <ele>1365.5999755859</ele>
        <time>2017-07-07T09:00:44.000Z</time>
      </trkpt>
      <trkpt lat="46.84417" lon="6.52144">
        <ele>1366.5999755859</ele>
        <time>2017-07-07T09:00:46.000Z</time>
      </trkpt>
      <trkpt lat="46.8442" lon="6.5215">
        <ele>1367.5999755859</ele>
        <time>2017-07-07T09:00:48.000Z</time>
      </trkpt>
      <trkpt lat="46.84423" lon="6.52161">
        <ele>1368.8000488281</ele>
        <time>2017-07-07T09:00:51.000Z</time>
      </trkpt>
      <trkpt lat="46.84426" lon="6.52172">
        <ele>1370</ele>
        <time>2017-07-07T09:00:54.000Z</time>
      </trkpt>
      <trkpt lat="46.84428" lon="6.52176">
        <ele>1370.4000244141</ele>
        <time>2017-07-07T09:00:55.000Z</time>
      </trkpt>
      <trkpt lat="46.84432" lon="6.52189">
        <ele>1371</ele>
        <time>2017-07-07T09:00:58.000Z</time>
      </trkpt>
      <trkpt lat="46.84438" lon="6.52206">
        <ele>1372</ele>
        <time>2017-07-07T09:01:02.000Z</time>
      </trkpt>
      <trkpt lat="46.84444" lon="6.52222">
        <ele>1373.1999511719</ele>
        <time>2017-07-07T09:01:06.000Z</time>
      </trkpt>
      <trkpt lat="46.8445" lon="6.52231">
        <ele>1374.4000244141</ele>
        <time>2017-07-07T09:01:09.000Z</time>
      </trkpt>
      <trkpt lat="46.84451" lon="6.52237">
        <ele>1375.4000244141</ele>
        <time>2017-07-07T09:01:11.000Z</time>
      </trkpt>
      <trkpt lat="46.84451" lon="6.52241">
        <ele>1376.1999511719</ele>
        <time>2017-07-07T09:01:13.000Z</time>
      </trkpt>
      <trkpt lat="46.84451" lon="6.52243">
        <ele>1376.4000244141</ele>
        <time>2017-07-07T09:01:14.000Z</time>
      </trkpt>
      <trkpt lat="46.84451" lon="6.52244">
        <ele>1376.5999755859</ele>
        <time>2017-07-07T09:01:15.000Z</time>
      </trkpt>
      <trkpt lat="46.84451" lon="6.52243">
        <ele>1377.1999511719</ele>
        <time>2017-07-07T09:01:19.000Z</time>
      </trkpt>
      <trkpt lat="46.84451" lon="6.52243">
        <ele>1377.4000244141</ele>
        <time>2017-07-07T09:01:25.000Z</time>
      </trkpt>
      <trkpt lat="46.84451" lon="6.52243">
        <ele>1377.8000488281</ele>
        <time>2017-07-07T09:01:35.000Z</time>
      </trkpt>
      <trkpt lat="46.8445" lon="6.52243">
        <ele>1377.8000488281</ele>
        <time>2017-07-07T09:01:36.000Z</time>
      </trkpt>
      <trkpt lat="46.84449" lon="6.52245">
        <ele>1377</ele>
        <time>2017-07-07T09:01:43.000Z</time>
      </trkpt>
      <trkpt lat="46.84449" lon="6.52245">
        <ele>1377</ele>
        <time>2017-07-07T09:01:54.000Z</time>
      </trkpt>
      <trkpt lat="46.84449" lon="6.52245">
        <ele>1377</ele>
        <time>2017-07-07T09:02:02.000Z</time>
      </trkpt>
      <trkpt lat="46.84449" lon="6.52245">
        <ele>1377</ele>
        <time>2017-07-07T09:02:05.000Z</time>
      </trkpt>
      <trkpt lat="46.84449" lon="6.52245">
        <ele>1377.4000244141</ele>
        <time>2017-07-07T09:02:18.000Z</time>
      </trkpt>
      <trkpt lat="46.84447" lon="6.52248">
        <ele>1377.8000488281</ele>
        <time>2017-07-07T09:02:24.000Z</time>
      </trkpt>
      <trkpt lat="46.84441" lon="6.52258">
        <ele>1378.1999511719</ele>
        <time>2017-07-07T09:02:29.000Z</time>
      </trkpt>
      <trkpt lat="46.84439" lon="6.52259">
        <ele>1378.5999755859</ele>
        <time>2017-07-07T09:02:30.000Z</time>
      </trkpt>
      <trkpt lat="46.84435" lon="6.5226">
        <ele>1379.4000244141</ele>
        <time>2017-07-07T09:02:32.000Z</time>
      </trkpt>
      <trkpt lat="46.84425" lon="6.52263">
        <ele>1380.1999511719</ele>
        <time>2017-07-07T09:02:36.000Z</time>
      </trkpt>
      <trkpt lat="46.84422" lon="6.52263">
        <ele>1380.4000244141</ele>
        <time>2017-07-07T09:02:37.000Z</time>
      </trkpt>
      <trkpt lat="46.84413" lon="6.52264">
        <ele>1381.4000244141</ele>
        <time>2017-07-07T09:02:40.000Z</time>
      </trkpt>
      <trkpt lat="46.84405" lon="6.52265">
        <ele>1382.8000488281</ele>
        <time>2017-07-07T09:02:43.000Z</time>
      </trkpt>
      <trkpt lat="46.84403" lon="6.52265">
        <ele>1383</ele>
        <time>2017-07-07T09:02:44.000Z</time>
      </trkpt>
      <trkpt lat="46.84394" lon="6.52266">
        <ele>1383.8000488281</ele>
        <time>2017-07-07T09:02:47.000Z</time>
      </trkpt>
      <trkpt lat="46.84378" lon="6.52269">
        <ele>1384.4000244141</ele>
        <time>2017-07-07T09:02:52.000Z</time>
      </trkpt>
      <trkpt lat="46.84375" lon="6.52269">
        <ele>1384.8000488281</ele>
        <time>2017-07-07T09:02:53.000Z</time>
      </trkpt>
      <trkpt lat="46.84354" lon="6.52278">
        <ele>1385.4000244141</ele>
        <time>2017-07-07T09:02:58.000Z</time>
      </trkpt>
      <trkpt lat="46.84335" lon="6.52286">
        <ele>1385.1999511719</ele>
        <time>2017-07-07T09:03:03.000Z</time>
      </trkpt>
      <trkpt lat="46.84326" lon="6.52286">
        <ele>1385.1999511719</ele>
        <time>2017-07-07T09:03:05.000Z</time>
      </trkpt>
      <trkpt lat="46.84318" lon="6.52282">
        <ele>1385</ele>
        <time>2017-07-07T09:03:07.000Z</time>
      </trkpt>
      <trkpt lat="46.84309" lon="6.5228">
        <ele>1385.1999511719</ele>
        <time>2017-07-07T09:03:09.000Z</time>
      </trkpt>
      <trkpt lat="46.84288" lon="6.52277">
        <ele>1385</ele>
        <time>2017-07-07T09:03:14.000Z</time>
      </trkpt>
      <trkpt lat="46.84277" lon="6.52274">
        <ele>1384</ele>
        <time>2017-07-07T09:03:18.000Z</time>
      </trkpt>
      <trkpt lat="46.84275" lon="6.52275">
        <ele>1383.4000244141</ele>
        <time>2017-07-07T09:03:22.000Z</time>
      </trkpt>
      <trkpt lat="46.84275" lon="6.52274">
        <ele>1383.4000244141</ele>
        <time>2017-07-07T09:03:25.000Z</time>
      </trkpt>
      <trkpt lat="46.84269" lon="6.52273">
        <ele>1383.4000244141</ele>
        <time>2017-07-07T09:03:31.000Z</time>
      </trkpt>
      <trkpt lat="46.84263" lon="6.52269">
        <ele>1383.1999511719</ele>
        <time>2017-07-07T09:03:33.000Z</time>
      </trkpt>
      <trkpt lat="46.84255" lon="6.52263">
        <ele>1383</ele>
        <time>2017-07-07T09:03:35.000Z</time>
      </trkpt>
      <trkpt lat="46.84234" lon="6.52251">
        <ele>1383</ele>
        <time>2017-07-07T09:03:39.000Z</time>
      </trkpt>
      <trkpt lat="46.84227" lon="6.52247">
        <ele>1382.8000488281</ele>
        <time>2017-07-07T09:03:40.000Z</time>
      </trkpt>
      <trkpt lat="46.84215" lon="6.52241">
        <ele>1382.1999511719</ele>
        <time>2017-07-07T09:03:42.000Z</time>
      </trkpt>
      <trkpt lat="46.84201" lon="6.52232">
        <ele>1381.8000488281</ele>
        <time>2017-07-07T09:03:45.000Z</time>
      </trkpt>
      <trkpt lat="46.84188" lon="6.52223">
        <ele>1382.5999755859</ele>
        <time>2017-07-07T09:03:48.000Z</time>
      </trkpt>
      <trkpt lat="46.84178" lon="6.52217">
        <ele>1382.8000488281</ele>
        <time>2017-07-07T09:03:50.000Z</time>
      </trkpt>
      <trkpt lat="46.84169" lon="6.52213">
        <ele>1383.1999511719</ele>
        <time>2017-07-07T09:03:52.000Z</time>
      </trkpt>
      <trkpt lat="46.8416" lon="6.52206">
        <ele>1383.5999755859</ele>
        <time>2017-07-07T09:03:54.000Z</time>
      </trkpt>
      <trkpt lat="46.84136" lon="6.52189">
        <ele>1384.1999511719</ele>
        <time>2017-07-07T09:03:59.000Z</time>
      </trkpt>
      <trkpt lat="46.84131" lon="6.52185">
        <ele>1384.4000244141</ele>
        <time>2017-07-07T09:04:00.000Z</time>
      </trkpt>
      <trkpt lat="46.84117" lon="6.52177">
        <ele>1384.8000488281</ele>
        <time>2017-07-07T09:04:03.000Z</time>
      </trkpt>
      <trkpt lat="46.84107" lon="6.52174">
        <ele>1384.8000488281</ele>
        <time>2017-07-07T09:04:05.000Z</time>
      </trkpt>
      <trkpt lat="46.84093" lon="6.52169">
        <ele>1385.4000244141</ele>
        <time>2017-07-07T09:04:08.000Z</time>
      </trkpt>
      <trkpt lat="46.8408" lon="6.52165">
        <ele>1386</ele>
        <time>2017-07-07T09:04:11.000Z</time>
      </trkpt>
      <trkpt lat="46.84073" lon="6.52162">
        <ele>1386.4000244141</ele>
        <time>2017-07-07T09:04:13.000Z</time>
      </trkpt>
      <trkpt lat="46.84062" lon="6.52162">
        <ele>1387.4000244141</ele>
        <time>2017-07-07T09:04:16.000Z</time>
      </trkpt>
      <trkpt lat="46.84058" lon="6.52162">
        <ele>1387.8000488281</ele>
        <time>2017-07-07T09:04:17.000Z</time>
      </trkpt>
      <trkpt lat="46.84047" lon="6.52164">
        <ele>1389.5999755859</ele>
        <time>2017-07-07T09:04:20.000Z</time>
      </trkpt>
      <trkpt lat="46.84041" lon="6.52164">
        <ele>1390.4000244141</ele>
        <time>2017-07-07T09:04:22.000Z</time>
      </trkpt>
      <trkpt lat="46.84038" lon="6.52164">
        <ele>1390.5999755859</ele>
        <time>2017-07-07T09:04:23.000Z</time>
      </trkpt>
      <trkpt lat="46.84023" lon="6.52163">
        <ele>1391.8000488281</ele>
        <time>2017-07-07T09:04:27.000Z</time>
      </trkpt>
      <trkpt lat="46.84019" lon="6.52163">
        <ele>1392.1999511719</ele>
        <time>2017-07-07T09:04:28.000Z</time>
      </trkpt>
      <trkpt lat="46.83995" lon="6.52163">
        <ele>1392.5999755859</ele>
        <time>2017-07-07T09:04:33.000Z</time>
      </trkpt>
      <trkpt lat="46.83988" lon="6.52163">
        <ele>1393</ele>
        <time>2017-07-07T09:04:35.000Z</time>
      </trkpt>
      <trkpt lat="46.83973" lon="6.52162">
        <ele>1394</ele>
        <time>2017-07-07T09:04:39.000Z</time>
      </trkpt>
      <trkpt lat="46.83969" lon="6.52162">
        <ele>1394.1999511719</ele>
        <time>2017-07-07T09:04:40.000Z</time>
      </trkpt>
      <trkpt lat="46.83965" lon="6.52161">
        <ele>1394.4000244141</ele>
        <time>2017-07-07T09:04:41.000Z</time>
      </trkpt>
      <trkpt lat="46.83953" lon="6.52159">
        <ele>1395.1999511719</ele>
        <time>2017-07-07T09:04:44.000Z</time>
      </trkpt>
      <trkpt lat="46.83949" lon="6.52158">
        <ele>1395.5999755859</ele>
        <time>2017-07-07T09:04:45.000Z</time>
      </trkpt>
      <trkpt lat="46.83935" lon="6.52155">
        <ele>1396.8000488281</ele>
        <time>2017-07-07T09:04:49.000Z</time>
      </trkpt>
      <trkpt lat="46.83932" lon="6.52154">
        <ele>1397</ele>
        <time>2017-07-07T09:04:50.000Z</time>
      </trkpt>
      <trkpt lat="46.83926" lon="6.52154">
        <ele>1398</ele>
        <time>2017-07-07T09:04:52.000Z</time>
      </trkpt>
      <trkpt lat="46.83917" lon="6.52156">
        <ele>1399</ele>
        <time>2017-07-07T09:04:55.000Z</time>
      </trkpt>
      <trkpt lat="46.83914" lon="6.52158">
        <ele>1399.5999755859</ele>
        <time>2017-07-07T09:04:56.000Z</time>
      </trkpt>
      <trkpt lat="46.83904" lon="6.52163">
        <ele>1400.8000488281</ele>
        <time>2017-07-07T09:04:59.000Z</time>
      </trkpt>
      <trkpt lat="46.83893" lon="6.52169">
        <ele>1401.8000488281</ele>
        <time>2017-07-07T09:05:02.000Z</time>
      </trkpt>
      <trkpt lat="46.83873" lon="6.52187">
        <ele>1403</ele>
        <time>2017-07-07T09:05:07.000Z</time>
      </trkpt>
      <trkpt lat="46.83846" lon="6.52208">
        <ele>1404.4000244141</ele>
        <time>2017-07-07T09:05:14.000Z</time>
      </trkpt>
      <trkpt lat="46.8384" lon="6.52212">
        <ele>1405.4000244141</ele>
        <time>2017-07-07T09:05:16.000Z</time>
      </trkpt>
      <trkpt lat="46.83828" lon="6.52215">
        <ele>1406.4000244141</ele>
        <time>2017-07-07T09:05:19.000Z</time>
      </trkpt>
      <trkpt lat="46.83824" lon="6.52215">
        <ele>1406.5999755859</ele>
        <time>2017-07-07T09:05:20.000Z</time>
      </trkpt>
      <trkpt lat="46.83806" lon="6.52218">
        <ele>1407.4000244141</ele>
        <time>2017-07-07T09:05:24.000Z</time>
      </trkpt>
      <trkpt lat="46.83795" lon="6.52221">
        <ele>1407.8000488281</ele>
        <time>2017-07-07T09:05:26.000Z</time>
      </trkpt>
      <trkpt lat="46.83786" lon="6.52221">
        <ele>1408.8000488281</ele>
        <time>2017-07-07T09:05:28.000Z</time>
      </trkpt>
      <trkpt lat="46.83782" lon="6.52222">
        <ele>1409.4000244141</ele>
        <time>2017-07-07T09:05:29.000Z</time>
      </trkpt>
      <trkpt lat="46.83777" lon="6.52222">
        <ele>1410</ele>
        <time>2017-07-07T09:05:30.000Z</time>
      </trkpt>
      <trkpt lat="46.83765" lon="6.52222">
        <ele>1410.8000488281</ele>
        <time>2017-07-07T09:05:33.000Z</time>
      </trkpt>
      <trkpt lat="46.83761" lon="6.52222">
        <ele>1411</ele>
        <time>2017-07-07T09:05:34.000Z</time>
      </trkpt>
      <trkpt lat="46.83756" lon="6.52221">
        <ele>1411.1999511719</ele>
        <time>2017-07-07T09:05:35.000Z</time>
      </trkpt>
      <trkpt lat="46.83747" lon="6.5222">
        <ele>1412</ele>
        <time>2017-07-07T09:05:37.000Z</time>
      </trkpt>
      <trkpt lat="46.83742" lon="6.52219">
        <ele>1412.1999511719</ele>
        <time>2017-07-07T09:05:38.000Z</time>
      </trkpt>
      <trkpt lat="46.83737" lon="6.52217">
        <ele>1412.5999755859</ele>
        <time>2017-07-07T09:05:39.000Z</time>
      </trkpt>
      <trkpt lat="46.83717" lon="6.52209">
        <ele>1413</ele>
        <time>2017-07-07T09:05:43.000Z</time>
      </trkpt>
      <trkpt lat="46.83707" lon="6.52207">
        <ele>1413.4000244141</ele>
        <time>2017-07-07T09:05:45.000Z</time>
      </trkpt>
      <trkpt lat="46.83697" lon="6.52201">
        <ele>1413.8000488281</ele>
        <time>2017-07-07T09:05:47.000Z</time>
      </trkpt>
      <trkpt lat="46.83689" lon="6.52195">
        <ele>1414.8000488281</ele>
        <time>2017-07-07T09:05:49.000Z</time>
      </trkpt>
      <trkpt lat="46.83685" lon="6.52193">
        <ele>1415.1999511719</ele>
        <time>2017-07-07T09:05:50.000Z</time>
      </trkpt>
      <trkpt lat="46.83676" lon="6.52189">
        <ele>1415.5999755859</ele>
        <time>2017-07-07T09:05:52.000Z</time>
      </trkpt>
      <trkpt lat="46.83672" lon="6.52187">
        <ele>1415.8000488281</ele>
        <time>2017-07-07T09:05:53.000Z</time>
      </trkpt>
      <trkpt lat="46.8366" lon="6.52179">
        <ele>1417</ele>
        <time>2017-07-07T09:05:56.000Z</time>
      </trkpt>
      <trkpt lat="46.83657" lon="6.52176">
        <ele>1417.4000244141</ele>
        <time>2017-07-07T09:05:57.000Z</time>
      </trkpt>
      <trkpt lat="46.83654" lon="6.52173">
        <ele>1417.8000488281</ele>
        <time>2017-07-07T09:05:58.000Z</time>
      </trkpt>
      <trkpt lat="46.83651" lon="6.52171">
        <ele>1418.1999511719</ele>
        <time>2017-07-07T09:05:59.000Z</time>
      </trkpt>
      <trkpt lat="46.83639" lon="6.52154">
        <ele>1419</ele>
        <time>2017-07-07T09:06:04.000Z</time>
      </trkpt>
      <trkpt lat="46.83637" lon="6.52148">
        <ele>1419.4000244141</ele>
        <time>2017-07-07T09:06:08.000Z</time>
      </trkpt>
      <trkpt lat="46.83637" lon="6.52147">
        <ele>1419.4000244141</ele>
        <time>2017-07-07T09:06:16.000Z</time>
      </trkpt>
      <trkpt lat="46.83633" lon="6.52145">
        <ele>1418.8000488281</ele>
        <time>2017-07-07T09:06:23.000Z</time>
      </trkpt>
      <trkpt lat="46.8362" lon="6.52142">
        <ele>1418.8000488281</ele>
        <time>2017-07-07T09:06:28.000Z</time>
      </trkpt>
      <trkpt lat="46.83591" lon="6.52139">
        <ele>1418</ele>
        <time>2017-07-07T09:06:33.000Z</time>
      </trkpt>
      <trkpt lat="46.83585" lon="6.52139">
        <ele>1417.5999755859</ele>
        <time>2017-07-07T09:06:34.000Z</time>
      </trkpt>
      <trkpt lat="46.83564" lon="6.52136">
        <ele>1416.4000244141</ele>
        <time>2017-07-07T09:06:38.000Z</time>
      </trkpt>
      <trkpt lat="46.83553" lon="6.52134">
        <ele>1416.4000244141</ele>
        <time>2017-07-07T09:06:40.000Z</time>
      </trkpt>
      <trkpt lat="46.83527" lon="6.52132">
        <ele>1415.4000244141</ele>
        <time>2017-07-07T09:06:45.000Z</time>
      </trkpt>
      <trkpt lat="46.83515" lon="6.52131">
        <ele>1414.8000488281</ele>
        <time>2017-07-07T09:06:47.000Z</time>
      </trkpt>
      <trkpt lat="46.83508" lon="6.5213">
        <ele>1414.1999511719</ele>
        <time>2017-07-07T09:06:48.000Z</time>
      </trkpt>
      <trkpt lat="46.83493" lon="6.52129">
        <ele>1412.8000488281</ele>
        <time>2017-07-07T09:06:51.000Z</time>
      </trkpt>
      <trkpt lat="46.83488" lon="6.52139">
        <ele>1411.5999755859</ele>
        <time>2017-07-07T09:06:53.000Z</time>
      </trkpt>
      <trkpt lat="46.83487" lon="6.52144">
        <ele>1411.4000244141</ele>
        <time>2017-07-07T09:06:54.000Z</time>
      </trkpt>
      <trkpt lat="46.83481" lon="6.52178">
        <ele>1411.4000244141</ele>
        <time>2017-07-07T09:07:00.000Z</time>
      </trkpt>
      <trkpt lat="46.83479" lon="6.52199">
        <ele>1413</ele>
        <time>2017-07-07T09:07:04.000Z</time>
      </trkpt>
      <trkpt lat="46.83477" lon="6.52209">
        <ele>1413.5999755859</ele>
        <time>2017-07-07T09:07:06.000Z</time>
      </trkpt>
      <trkpt lat="46.83473" lon="6.52217">
        <ele>1414.1999511719</ele>
        <time>2017-07-07T09:07:08.000Z</time>
      </trkpt>
      <trkpt lat="46.83468" lon="6.52222">
        <ele>1414.5999755859</ele>
        <time>2017-07-07T09:07:10.000Z</time>
      </trkpt>
      <trkpt lat="46.83463" lon="6.52225">
        <ele>1415.1999511719</ele>
        <time>2017-07-07T09:07:13.000Z</time>
      </trkpt>
      <trkpt lat="46.83463" lon="6.52225">
        <ele>1415.4000244141</ele>
        <time>2017-07-07T09:07:14.000Z</time>
      </trkpt>
      <trkpt lat="46.83462" lon="6.52228">
        <ele>1415.5999755859</ele>
        <time>2017-07-07T09:07:24.000Z</time>
      </trkpt>
      <trkpt lat="46.83462" lon="6.52228">
        <ele>1415.5999755859</ele>
        <time>2017-07-07T09:07:25.000Z</time>
      </trkpt>
      <trkpt lat="46.83458" lon="6.52235">
        <ele>1415.5999755859</ele>
        <time>2017-07-07T09:08:06.000Z</time>
      </trkpt>
      <trkpt lat="46.83457" lon="6.52238">
        <ele>1415.5999755859</ele>
        <time>2017-07-07T09:08:07.000Z</time>
      </trkpt>
      <trkpt lat="46.83456" lon="6.52254">
        <ele>1415.1999511719</ele>
        <time>2017-07-07T09:08:11.000Z</time>
      </trkpt>
      <trkpt lat="46.83457" lon="6.5226">
        <ele>1415.1999511719</ele>
        <time>2017-07-07T09:08:12.000Z</time>
      </trkpt>
      <trkpt lat="46.83454" lon="6.52285">
        <ele>1414.8000488281</ele>
        <time>2017-07-07T09:08:16.000Z</time>
      </trkpt>
      <trkpt lat="46.83451" lon="6.523">
        <ele>1415</ele>
        <time>2017-07-07T09:08:18.000Z</time>
      </trkpt>
      <trkpt lat="46.83445" lon="6.52319">
        <ele>1413.8000488281</ele>
        <time>2017-07-07T09:08:21.000Z</time>
      </trkpt>
      <trkpt lat="46.83441" lon="6.52333">
        <ele>1413</ele>
        <time>2017-07-07T09:08:23.000Z</time>
      </trkpt>
      <trkpt lat="46.8344" lon="6.5234">
        <ele>1412.8000488281</ele>
        <time>2017-07-07T09:08:24.000Z</time>
      </trkpt>
      <trkpt lat="46.8344" lon="6.52346">
        <ele>1412.4000244141</ele>
        <time>2017-07-07T09:08:25.000Z</time>
      </trkpt>
      <trkpt lat="46.83443" lon="6.52354">
        <ele>1411.4000244141</ele>
        <time>2017-07-07T09:08:27.000Z</time>
      </trkpt>
      <trkpt lat="46.83445" lon="6.52355">
        <ele>1411.1999511719</ele>
        <time>2017-07-07T09:08:28.000Z</time>
      </trkpt>
      <trkpt lat="46.83451" lon="6.52356">
        <ele>1411</ele>
        <time>2017-07-07T09:08:30.000Z</time>
      </trkpt>
      <trkpt lat="46.83458" lon="6.52358">
        <ele>1412.1999511719</ele>
        <time>2017-07-07T09:08:33.000Z</time>
      </trkpt>
      <trkpt lat="46.8346" lon="6.52358">
        <ele>1412.5999755859</ele>
        <time>2017-07-07T09:08:34.000Z</time>
      </trkpt>
      <trkpt lat="46.83467" lon="6.52361">
        <ele>1413.8000488281</ele>
        <time>2017-07-07T09:08:37.000Z</time>
      </trkpt>
      <trkpt lat="46.83471" lon="6.52364">
        <ele>1415.1999511719</ele>
        <time>2017-07-07T09:08:39.000Z</time>
      </trkpt>
      <trkpt lat="46.83473" lon="6.52366">
        <ele>1415.8000488281</ele>
        <time>2017-07-07T09:08:40.000Z</time>
      </trkpt>
      <trkpt lat="46.83475" lon="6.52367">
        <ele>1416.4000244141</ele>
        <time>2017-07-07T09:08:41.000Z</time>
      </trkpt>
      <trkpt lat="46.83481" lon="6.52372">
        <ele>1417.4000244141</ele>
        <time>2017-07-07T09:08:44.000Z</time>
      </trkpt>
      <trkpt lat="46.83485" lon="6.52376">
        <ele>1418.5999755859</ele>
        <time>2017-07-07T09:08:46.000Z</time>
      </trkpt>
      <trkpt lat="46.83489" lon="6.52379">
        <ele>1419.4000244141</ele>
        <time>2017-07-07T09:08:48.000Z</time>
      </trkpt>
      <trkpt lat="46.83491" lon="6.5238">
        <ele>1420</ele>
        <time>2017-07-07T09:08:49.000Z</time>
      </trkpt>
      <trkpt lat="46.83497" lon="6.52383">
        <ele>1421.4000244141</ele>
        <time>2017-07-07T09:08:52.000Z</time>
      </trkpt>
      <trkpt lat="46.835" lon="6.52385">
        <ele>1422.1999511719</ele>
        <time>2017-07-07T09:08:54.000Z</time>
      </trkpt>
      <trkpt lat="46.83505" lon="6.52387">
        <ele>1423.5999755859</ele>
        <time>2017-07-07T09:08:57.000Z</time>
      </trkpt>
      <trkpt lat="46.83511" lon="6.52389">
        <ele>1424.5999755859</ele>
        <time>2017-07-07T09:09:00.000Z</time>
      </trkpt>
      <trkpt lat="46.83513" lon="6.5239">
        <ele>1424.8000488281</ele>
        <time>2017-07-07T09:09:01.000Z</time>
      </trkpt>
      <trkpt lat="46.83517" lon="6.52392">
        <ele>1426.1999511719</ele>
        <time>2017-07-07T09:09:03.000Z</time>
      </trkpt>
      <trkpt lat="46.83523" lon="6.52396">
        <ele>1427.1999511719</ele>
        <time>2017-07-07T09:09:06.000Z</time>
      </trkpt>
      <trkpt lat="46.83529" lon="6.52399">
        <ele>1428.5999755859</ele>
        <time>2017-07-07T09:09:09.000Z</time>
      </trkpt>
      <trkpt lat="46.83533" lon="6.52401">
        <ele>1429.4000244141</ele>
        <time>2017-07-07T09:09:11.000Z</time>
      </trkpt>
      <trkpt lat="46.83535" lon="6.52402">
        <ele>1429.5999755859</ele>
        <time>2017-07-07T09:09:12.000Z</time>
      </trkpt>
      <trkpt lat="46.83541" lon="6.52404">
        <ele>1430.8000488281</ele>
        <time>2017-07-07T09:09:15.000Z</time>
      </trkpt>
      <trkpt lat="46.83547" lon="6.52406">
        <ele>1432.1999511719</ele>
        <time>2017-07-07T09:09:18.000Z</time>
      </trkpt>
      <trkpt lat="46.83553" lon="6.52408">
        <ele>1433.1999511719</ele>
        <time>2017-07-07T09:09:21.000Z</time>
      </trkpt>
      <trkpt lat="46.83559" lon="6.5241">
        <ele>1434.4000244141</ele>
        <time>2017-07-07T09:09:24.000Z</time>
      </trkpt>
      <trkpt lat="46.83561" lon="6.5241">
        <ele>1435</ele>
        <time>2017-07-07T09:09:25.000Z</time>
      </trkpt>
      <trkpt lat="46.83563" lon="6.52411">
        <ele>1435.5999755859</ele>
        <time>2017-07-07T09:09:26.000Z</time>
      </trkpt>
      <trkpt lat="46.83569" lon="6.52415">
        <ele>1437</ele>
        <time>2017-07-07T09:09:29.000Z</time>
      </trkpt>
      <trkpt lat="46.83577" lon="6.52421">
        <ele>1438.1999511719</ele>
        <time>2017-07-07T09:09:33.000Z</time>
      </trkpt>
      <trkpt lat="46.83582" lon="6.52427">
        <ele>1439.4000244141</ele>
        <time>2017-07-07T09:09:36.000Z</time>
      </trkpt>
      <trkpt lat="46.83588" lon="6.52432">
        <ele>1440.5999755859</ele>
        <time>2017-07-07T09:09:39.000Z</time>
      </trkpt>
      <trkpt lat="46.83591" lon="6.52436">
        <ele>1441.1999511719</ele>
        <time>2017-07-07T09:09:41.000Z</time>
      </trkpt>
      <trkpt lat="46.83593" lon="6.52438">
        <ele>1441.5999755859</ele>
        <time>2017-07-07T09:09:42.000Z</time>
      </trkpt>
      <trkpt lat="46.83601" lon="6.52446">
        <ele>1443</ele>
        <time>2017-07-07T09:09:46.000Z</time>
      </trkpt>
      <trkpt lat="46.83607" lon="6.52452">
        <ele>1444</ele>
        <time>2017-07-07T09:09:49.000Z</time>
      </trkpt>
      <trkpt lat="46.83614" lon="6.52463">
        <ele>1445.1999511719</ele>
        <time>2017-07-07T09:09:53.000Z</time>
      </trkpt>
      <trkpt lat="46.8362" lon="6.52474">
        <ele>1446.1999511719</ele>
        <time>2017-07-07T09:09:57.000Z</time>
      </trkpt>
      <trkpt lat="46.83622" lon="6.52483">
        <ele>1447.4000244141</ele>
        <time>2017-07-07T09:10:00.000Z</time>
      </trkpt>
      <trkpt lat="46.83623" lon="6.52491">
        <ele>1448</ele>
        <time>2017-07-07T09:10:03.000Z</time>
      </trkpt>
      <trkpt lat="46.83623" lon="6.52492">
        <ele>1448.4000244141</ele>
        <time>2017-07-07T09:10:06.000Z</time>
      </trkpt>
      <trkpt lat="46.83623" lon="6.52492">
        <ele>1448.4000244141</ele>
        <time>2017-07-07T09:10:07.000Z</time>
      </trkpt>
      <trkpt lat="46.83623" lon="6.52492">
        <ele>1449</ele>
        <time>2017-07-07T09:10:31.000Z</time>
      </trkpt>
      <trkpt lat="46.83623" lon="6.52492">
        <ele>1449.4000244141</ele>
        <time>2017-07-07T09:10:42.000Z</time>
      </trkpt>
      <trkpt lat="46.83623" lon="6.52491">
        <ele>1449</ele>
        <time>2017-07-07T09:10:45.000Z</time>
      </trkpt>
      <trkpt lat="46.83624" lon="6.52494">
        <ele>1449</ele>
        <time>2017-07-07T09:10:51.000Z</time>
      </trkpt>
      <trkpt lat="46.83626" lon="6.52496">
        <ele>1449.5999755859</ele>
        <time>2017-07-07T09:10:58.000Z</time>
      </trkpt>
      <trkpt lat="46.83628" lon="6.52497">
        <ele>1449.8000488281</ele>
        <time>2017-07-07T09:11:04.000Z</time>
      </trkpt>
      <trkpt lat="46.83632" lon="6.52497">
        <ele>1449.8000488281</ele>
        <time>2017-07-07T09:11:10.000Z</time>
      </trkpt>
      <trkpt lat="46.83633" lon="6.52498">
        <ele>1449.5999755859</ele>
        <time>2017-07-07T09:11:14.000Z</time>
      </trkpt>
      <trkpt lat="46.83634" lon="6.52499">
        <ele>1449.8000488281</ele>
        <time>2017-07-07T09:11:15.000Z</time>
      </trkpt>
      <trkpt lat="46.83638" lon="6.52514">
        <ele>1450</ele>
        <time>2017-07-07T09:11:20.000Z</time>
      </trkpt>
      <trkpt lat="46.83646" lon="6.52525">
        <ele>1451.1999511719</ele>
        <time>2017-07-07T09:11:24.000Z</time>
      </trkpt>
      <trkpt lat="46.83653" lon="6.52535">
        <ele>1452</ele>
        <time>2017-07-07T09:11:27.000Z</time>
      </trkpt>
      <trkpt lat="46.83655" lon="6.52539">
        <ele>1452.1999511719</ele>
        <time>2017-07-07T09:11:28.000Z</time>
      </trkpt>
      <trkpt lat="46.8366" lon="6.52556">
        <ele>1453</ele>
        <time>2017-07-07T09:11:32.000Z</time>
      </trkpt>
      <trkpt lat="46.83659" lon="6.52575">
        <ele>1452.8000488281</ele>
        <time>2017-07-07T09:11:37.000Z</time>
      </trkpt>
      <trkpt lat="46.83659" lon="6.52577">
        <ele>1452.8000488281</ele>
        <time>2017-07-07T09:11:38.000Z</time>
      </trkpt>
      <trkpt lat="46.83659" lon="6.52577">
        <ele>1452.8000488281</ele>
        <time>2017-07-07T09:11:44.000Z</time>
      </trkpt>
      <trkpt lat="46.83659" lon="6.52579">
        <ele>1452.5999755859</ele>
        <time>2017-07-07T09:11:59.000Z</time>
      </trkpt>
      <trkpt lat="46.83662" lon="6.52597">
        <ele>1452.4000244141</ele>
        <time>2017-07-07T09:12:04.000Z</time>
      </trkpt>
      <trkpt lat="46.8366" lon="6.52613">
        <ele>1452.4000244141</ele>
        <time>2017-07-07T09:12:07.000Z</time>
      </trkpt>
      <trkpt lat="46.83659" lon="6.52619">
        <ele>1452.4000244141</ele>
        <time>2017-07-07T09:12:08.000Z</time>
      </trkpt>
      <trkpt lat="46.83653" lon="6.52637">
        <ele>1451.8000488281</ele>
        <time>2017-07-07T09:12:11.000Z</time>
      </trkpt>
      <trkpt lat="46.83649" lon="6.52643">
        <ele>1451.4000244141</ele>
        <time>2017-07-07T09:12:12.000Z</time>
      </trkpt>
      <trkpt lat="46.83642" lon="6.52656">
        <ele>1450.5999755859</ele>
        <time>2017-07-07T09:12:14.000Z</time>
      </trkpt>
      <trkpt lat="46.83639" lon="6.52664">
        <ele>1449.8000488281</ele>
        <time>2017-07-07T09:12:15.000Z</time>
      </trkpt>
      <trkpt lat="46.83637" lon="6.52672">
        <ele>1448.5999755859</ele>
        <time>2017-07-07T09:12:16.000Z</time>
      </trkpt>
      <trkpt lat="46.83635" lon="6.5268">
        <ele>1448</ele>
        <time>2017-07-07T09:12:17.000Z</time>
      </trkpt>
      <trkpt lat="46.83632" lon="6.5269">
        <ele>1447</ele>
        <time>2017-07-07T09:12:18.000Z</time>
      </trkpt>
      <trkpt lat="46.83627" lon="6.52711">
        <ele>1445.1999511719</ele>
        <time>2017-07-07T09:12:20.000Z</time>
      </trkpt>
      <trkpt lat="46.83624" lon="6.52723">
        <ele>1444.4000244141</ele>
        <time>2017-07-07T09:12:21.000Z</time>
      </trkpt>
      <trkpt lat="46.83621" lon="6.52734">
        <ele>1443.4000244141</ele>
        <time>2017-07-07T09:12:22.000Z</time>
      </trkpt>
      <trkpt lat="46.83617" lon="6.52746">
        <ele>1441.1999511719</ele>
        <time>2017-07-07T09:12:23.000Z</time>
      </trkpt>
      <trkpt lat="46.83615" lon="6.52756">
        <ele>1440</ele>
        <time>2017-07-07T09:12:24.000Z</time>
      </trkpt>
      <trkpt lat="46.83612" lon="6.52766">
        <ele>1439</ele>
        <time>2017-07-07T09:12:25.000Z</time>
      </trkpt>
      <trkpt lat="46.8361" lon="6.52775">
        <ele>1437.8000488281</ele>
        <time>2017-07-07T09:12:26.000Z</time>
      </trkpt>
      <trkpt lat="46.83608" lon="6.52783">
        <ele>1436.5999755859</ele>
        <time>2017-07-07T09:12:27.000Z</time>
      </trkpt>
      <trkpt lat="46.83604" lon="6.52799">
        <ele>1435.1999511719</ele>
        <time>2017-07-07T09:12:29.000Z</time>
      </trkpt>
      <trkpt lat="46.83601" lon="6.52814">
        <ele>1434.1999511719</ele>
        <time>2017-07-07T09:12:31.000Z</time>
      </trkpt>
      <trkpt lat="46.836" lon="6.52821">
        <ele>1433.4000244141</ele>
        <time>2017-07-07T09:12:32.000Z</time>
      </trkpt>
      <trkpt lat="46.836" lon="6.52829">
        <ele>1433</ele>
        <time>2017-07-07T09:12:33.000Z</time>
      </trkpt>
      <trkpt lat="46.83601" lon="6.52841">
        <ele>1432.1999511719</ele>
        <time>2017-07-07T09:12:35.000Z</time>
      </trkpt>
      <trkpt lat="46.83602" lon="6.52846">
        <ele>1431.8000488281</ele>
        <time>2017-07-07T09:12:36.000Z</time>
      </trkpt>
      <trkpt lat="46.83607" lon="6.52851">
        <ele>1431.8000488281</ele>
        <time>2017-07-07T09:12:38.000Z</time>
      </trkpt>
      <trkpt lat="46.83612" lon="6.52856">
        <ele>1431.5999755859</ele>
        <time>2017-07-07T09:12:40.000Z</time>
      </trkpt>
      <trkpt lat="46.83618" lon="6.52864">
        <ele>1431.8000488281</ele>
        <time>2017-07-07T09:12:44.000Z</time>
      </trkpt>
      <trkpt lat="46.83616" lon="6.52872">
        <ele>1431.4000244141</ele>
        <time>2017-07-07T09:12:48.000Z</time>
      </trkpt>
      <trkpt lat="46.83612" lon="6.52876">
        <ele>1430.8000488281</ele>
        <time>2017-07-07T09:12:50.000Z</time>
      </trkpt>
      <trkpt lat="46.83609" lon="6.52884">
        <ele>1429.8000488281</ele>
        <time>2017-07-07T09:12:52.000Z</time>
      </trkpt>
      <trkpt lat="46.83609" lon="6.52888">
        <ele>1428.8000488281</ele>
        <time>2017-07-07T09:12:53.000Z</time>
      </trkpt>
      <trkpt lat="46.8361" lon="6.52893">
        <ele>1428.1999511719</ele>
        <time>2017-07-07T09:12:54.000Z</time>
      </trkpt>
      <trkpt lat="46.83611" lon="6.52897">
        <ele>1427</ele>
        <time>2017-07-07T09:12:55.000Z</time>
      </trkpt>
      <trkpt lat="46.83614" lon="6.52904">
        <ele>1426.1999511719</ele>
        <time>2017-07-07T09:12:57.000Z</time>
      </trkpt>
      <trkpt lat="46.83615" lon="6.52908">
        <ele>1425.8000488281</ele>
        <time>2017-07-07T09:12:58.000Z</time>
      </trkpt>
      <trkpt lat="46.83618" lon="6.52921">
        <ele>1425</ele>
        <time>2017-07-07T09:13:01.000Z</time>
      </trkpt>
      <trkpt lat="46.83619" lon="6.52928">
        <ele>1424.4000244141</ele>
        <time>2017-07-07T09:13:02.000Z</time>
      </trkpt>
      <trkpt lat="46.83623" lon="6.52944">
        <ele>1423.1999511719</ele>
        <time>2017-07-07T09:13:04.000Z</time>
      </trkpt>
      <trkpt lat="46.83625" lon="6.52952">
        <ele>1422.4000244141</ele>
        <time>2017-07-07T09:13:05.000Z</time>
      </trkpt>
      <trkpt lat="46.83627" lon="6.5296">
        <ele>1421.4000244141</ele>
        <time>2017-07-07T09:13:06.000Z</time>
      </trkpt>
      <trkpt lat="46.83629" lon="6.52974">
        <ele>1419.8000488281</ele>
        <time>2017-07-07T09:13:08.000Z</time>
      </trkpt>
      <trkpt lat="46.83629" lon="6.5298">
        <ele>1419</ele>
        <time>2017-07-07T09:13:09.000Z</time>
      </trkpt>
      <trkpt lat="46.83629" lon="6.52986">
        <ele>1418.1999511719</ele>
        <time>2017-07-07T09:13:10.000Z</time>
      </trkpt>
      <trkpt lat="46.83629" lon="6.52991">
        <ele>1417</ele>
        <time>2017-07-07T09:13:11.000Z</time>
      </trkpt>
      <trkpt lat="46.83629" lon="6.52995">
        <ele>1415.8000488281</ele>
        <time>2017-07-07T09:13:12.000Z</time>
      </trkpt>
      <trkpt lat="46.83626" lon="6.53">
        <ele>1414.5999755859</ele>
        <time>2017-07-07T09:13:14.000Z</time>
      </trkpt>
      <trkpt lat="46.83622" lon="6.53001">
        <ele>1413.1999511719</ele>
        <time>2017-07-07T09:13:16.000Z</time>
      </trkpt>
      <trkpt lat="46.8362" lon="6.53003">
        <ele>1412.4000244141</ele>
        <time>2017-07-07T09:13:18.000Z</time>
      </trkpt>
      <trkpt lat="46.83619" lon="6.53004">
        <ele>1412</ele>
        <time>2017-07-07T09:13:19.000Z</time>
      </trkpt>
      <trkpt lat="46.83622" lon="6.53012">
        <ele>1411.1999511719</ele>
        <time>2017-07-07T09:13:22.000Z</time>
      </trkpt>
      <trkpt lat="46.83624" lon="6.53015">
        <ele>1411</ele>
        <time>2017-07-07T09:13:23.000Z</time>
      </trkpt>
      <trkpt lat="46.83634" lon="6.53031">
        <ele>1411.1999511719</ele>
        <time>2017-07-07T09:13:27.000Z</time>
      </trkpt>
      <trkpt lat="46.83642" lon="6.5305">
        <ele>1409.8000488281</ele>
        <time>2017-07-07T09:13:31.000Z</time>
      </trkpt>
      <trkpt lat="46.83642" lon="6.53054">
        <ele>1409.1999511719</ele>
        <time>2017-07-07T09:13:32.000Z</time>
      </trkpt>
      <trkpt lat="46.83644" lon="6.53057">
        <ele>1408.4000244141</ele>
        <time>2017-07-07T09:13:33.000Z</time>
      </trkpt>
      <trkpt lat="46.83649" lon="6.53067">
        <ele>1407.1999511719</ele>
        <time>2017-07-07T09:13:37.000Z</time>
      </trkpt>
      <trkpt lat="46.83653" lon="6.53069">
        <ele>1407</ele>
        <time>2017-07-07T09:13:38.000Z</time>
      </trkpt>
      <trkpt lat="46.83664" lon="6.53073">
        <ele>1406.1999511719</ele>
        <time>2017-07-07T09:13:43.000Z</time>
      </trkpt>
      <trkpt lat="46.8367" lon="6.53076">
        <ele>1405.1999511719</ele>
        <time>2017-07-07T09:13:49.000Z</time>
      </trkpt>
      <trkpt lat="46.83671" lon="6.53076">
        <ele>1405</ele>
        <time>2017-07-07T09:13:50.000Z</time>
      </trkpt>
      <trkpt lat="46.83676" lon="6.53079">
        <ele>1404.4000244141</ele>
        <time>2017-07-07T09:13:55.000Z</time>
      </trkpt>
      <trkpt lat="46.83678" lon="6.53081">
        <ele>1404.1999511719</ele>
        <time>2017-07-07T09:13:56.000Z</time>
      </trkpt>
      <trkpt lat="46.8368" lon="6.53088">
        <ele>1403.8000488281</ele>
        <time>2017-07-07T09:13:58.000Z</time>
      </trkpt>
      <trkpt lat="46.83674" lon="6.53099">
        <ele>1402.5999755859</ele>
        <time>2017-07-07T09:14:01.000Z</time>
      </trkpt>
      <trkpt lat="46.83672" lon="6.53102">
        <ele>1402.4000244141</ele>
        <time>2017-07-07T09:14:02.000Z</time>
      </trkpt>
      <trkpt lat="46.83666" lon="6.53112">
        <ele>1401.4000244141</ele>
        <time>2017-07-07T09:14:05.000Z</time>
      </trkpt>
      <trkpt lat="46.83661" lon="6.53126">
        <ele>1400</ele>
        <time>2017-07-07T09:14:08.000Z</time>
      </trkpt>
      <trkpt lat="46.83657" lon="6.53138">
        <ele>1399</ele>
        <time>2017-07-07T09:14:10.000Z</time>
      </trkpt>
      <trkpt lat="46.83655" lon="6.53148">
        <ele>1397.5999755859</ele>
        <time>2017-07-07T09:14:12.000Z</time>
      </trkpt>
      <trkpt lat="46.83655" lon="6.53153">
        <ele>1397</ele>
        <time>2017-07-07T09:14:13.000Z</time>
      </trkpt>
      <trkpt lat="46.83655" lon="6.53157">
        <ele>1396.1999511719</ele>
        <time>2017-07-07T09:14:14.000Z</time>
      </trkpt>
      <trkpt lat="46.83657" lon="6.53164">
        <ele>1394.8000488281</ele>
        <time>2017-07-07T09:14:16.000Z</time>
      </trkpt>
      <trkpt lat="46.8366" lon="6.53167">
        <ele>1394</ele>
        <time>2017-07-07T09:14:17.000Z</time>
      </trkpt>
      <trkpt lat="46.83663" lon="6.53169">
        <ele>1393.5999755859</ele>
        <time>2017-07-07T09:14:18.000Z</time>
      </trkpt>
      <trkpt lat="46.83674" lon="6.53182">
        <ele>1392.5999755859</ele>
        <time>2017-07-07T09:14:22.000Z</time>
      </trkpt>
      <trkpt lat="46.83676" lon="6.53185">
        <ele>1392.1999511719</ele>
        <time>2017-07-07T09:14:23.000Z</time>
      </trkpt>
      <trkpt lat="46.83677" lon="6.53195">
        <ele>1390.8000488281</ele>
        <time>2017-07-07T09:14:25.000Z</time>
      </trkpt>
      <trkpt lat="46.83674" lon="6.53206">
        <ele>1389.8000488281</ele>
        <time>2017-07-07T09:14:27.000Z</time>
      </trkpt>
      <trkpt lat="46.83673" lon="6.53211">
        <ele>1389</ele>
        <time>2017-07-07T09:14:28.000Z</time>
      </trkpt>
      <trkpt lat="46.8367" lon="6.53216">
        <ele>1388.4000244141</ele>
        <time>2017-07-07T09:14:29.000Z</time>
      </trkpt>
      <trkpt lat="46.83668" lon="6.53222">
        <ele>1387.4000244141</ele>
        <time>2017-07-07T09:14:30.000Z</time>
      </trkpt>
      <trkpt lat="46.83666" lon="6.53228">
        <ele>1385.8000488281</ele>
        <time>2017-07-07T09:14:31.000Z</time>
      </trkpt>
      <trkpt lat="46.83661" lon="6.53242">
        <ele>1384</ele>
        <time>2017-07-07T09:14:33.000Z</time>
      </trkpt>
      <trkpt lat="46.83661" lon="6.53248">
        <ele>1383.1999511719</ele>
        <time>2017-07-07T09:14:34.000Z</time>
      </trkpt>
      <trkpt lat="46.8366" lon="6.53255">
        <ele>1382.4000244141</ele>
        <time>2017-07-07T09:14:35.000Z</time>
      </trkpt>
      <trkpt lat="46.83661" lon="6.53268">
        <ele>1381</ele>
        <time>2017-07-07T09:14:37.000Z</time>
      </trkpt>
      <trkpt lat="46.83662" lon="6.53276">
        <ele>1380.4000244141</ele>
        <time>2017-07-07T09:14:38.000Z</time>
      </trkpt>
      <trkpt lat="46.83663" lon="6.53289">
        <ele>1379.5999755859</ele>
        <time>2017-07-07T09:14:40.000Z</time>
      </trkpt>
      <trkpt lat="46.83659" lon="6.533">
        <ele>1378.5999755859</ele>
        <time>2017-07-07T09:14:42.000Z</time>
      </trkpt>
      <trkpt lat="46.83658" lon="6.53305">
        <ele>1378.4000244141</ele>
        <time>2017-07-07T09:14:43.000Z</time>
      </trkpt>
      <trkpt lat="46.83651" lon="6.53322">
        <ele>1377</ele>
        <time>2017-07-07T09:14:46.000Z</time>
      </trkpt>
      <trkpt lat="46.83649" lon="6.53327">
        <ele>1375.8000488281</ele>
        <time>2017-07-07T09:14:47.000Z</time>
      </trkpt>
      <trkpt lat="46.83646" lon="6.53333">
        <ele>1375</ele>
        <time>2017-07-07T09:14:48.000Z</time>
      </trkpt>
      <trkpt lat="46.83644" lon="6.53339">
        <ele>1374.5999755859</ele>
        <time>2017-07-07T09:14:49.000Z</time>
      </trkpt>
      <trkpt lat="46.83642" lon="6.53345">
        <ele>1374.1999511719</ele>
        <time>2017-07-07T09:14:50.000Z</time>
      </trkpt>
      <trkpt lat="46.83641" lon="6.53357">
        <ele>1373.4000244141</ele>
        <time>2017-07-07T09:14:52.000Z</time>
      </trkpt>
      <trkpt lat="46.8364" lon="6.53368">
        <ele>1372.1999511719</ele>
        <time>2017-07-07T09:14:54.000Z</time>
      </trkpt>
      <trkpt lat="46.8364" lon="6.53373">
        <ele>1371.1999511719</ele>
        <time>2017-07-07T09:14:55.000Z</time>
      </trkpt>
      <trkpt lat="46.8364" lon="6.53377">
        <ele>1370.5999755859</ele>
        <time>2017-07-07T09:14:56.000Z</time>
      </trkpt>
      <trkpt lat="46.83639" lon="6.53382">
        <ele>1370.1999511719</ele>
        <time>2017-07-07T09:14:57.000Z</time>
      </trkpt>
      <trkpt lat="46.83634" lon="6.53401">
        <ele>1369</ele>
        <time>2017-07-07T09:15:01.000Z</time>
      </trkpt>
      <trkpt lat="46.83632" lon="6.53407">
        <ele>1368.4000244141</ele>
        <time>2017-07-07T09:15:02.000Z</time>
      </trkpt>
      <trkpt lat="46.8363" lon="6.53413">
        <ele>1367.8000488281</ele>
        <time>2017-07-07T09:15:03.000Z</time>
      </trkpt>
      <trkpt lat="46.83629" lon="6.53427">
        <ele>1366.5999755859</ele>
        <time>2017-07-07T09:15:05.000Z</time>
      </trkpt>
      <trkpt lat="46.83628" lon="6.53434">
        <ele>1366</ele>
        <time>2017-07-07T09:15:06.000Z</time>
      </trkpt>
      <trkpt lat="46.83626" lon="6.53441">
        <ele>1365.5999755859</ele>
        <time>2017-07-07T09:15:07.000Z</time>
      </trkpt>
      <trkpt lat="46.83625" lon="6.53448">
        <ele>1365</ele>
        <time>2017-07-07T09:15:08.000Z</time>
      </trkpt>
      <trkpt lat="46.83624" lon="6.53456">
        <ele>1364.4000244141</ele>
        <time>2017-07-07T09:15:09.000Z</time>
      </trkpt>
      <trkpt lat="46.83622" lon="6.53471">
        <ele>1363.8000488281</ele>
        <time>2017-07-07T09:15:11.000Z</time>
      </trkpt>
      <trkpt lat="46.8362" lon="6.53484">
        <ele>1363.4000244141</ele>
        <time>2017-07-07T09:15:13.000Z</time>
      </trkpt>
      <trkpt lat="46.83617" lon="6.53502">
        <ele>1363</ele>
        <time>2017-07-07T09:15:16.000Z</time>
      </trkpt>
      <trkpt lat="46.8361" lon="6.53517">
        <ele>1362.4000244141</ele>
        <time>2017-07-07T09:15:19.000Z</time>
      </trkpt>
      <trkpt lat="46.83607" lon="6.53521">
        <ele>1362.4000244141</ele>
        <time>2017-07-07T09:15:20.000Z</time>
      </trkpt>
      <trkpt lat="46.83603" lon="6.53526">
        <ele>1362.1999511719</ele>
        <time>2017-07-07T09:15:21.000Z</time>
      </trkpt>
      <trkpt lat="46.83596" lon="6.53538">
        <ele>1361.8000488281</ele>
        <time>2017-07-07T09:15:23.000Z</time>
      </trkpt>
      <trkpt lat="46.83593" lon="6.53556">
        <ele>1361.1999511719</ele>
        <time>2017-07-07T09:15:25.000Z</time>
      </trkpt>
      <trkpt lat="46.83594" lon="6.53579">
        <ele>1359.8000488281</ele>
        <time>2017-07-07T09:15:27.000Z</time>
      </trkpt>
      <trkpt lat="46.83596" lon="6.53601">
        <ele>1358.5999755859</ele>
        <time>2017-07-07T09:15:29.000Z</time>
      </trkpt>
      <trkpt lat="46.83598" lon="6.53612">
        <ele>1357.5999755859</ele>
        <time>2017-07-07T09:15:30.000Z</time>
      </trkpt>
      <trkpt lat="46.836" lon="6.53623">
        <ele>1357</ele>
        <time>2017-07-07T09:15:31.000Z</time>
      </trkpt>
      <trkpt lat="46.83603" lon="6.53633">
        <ele>1356.4000244141</ele>
        <time>2017-07-07T09:15:32.000Z</time>
      </trkpt>
      <trkpt lat="46.83604" lon="6.53657">
        <ele>1355.1999511719</ele>
        <time>2017-07-07T09:15:34.000Z</time>
      </trkpt>
      <trkpt lat="46.83607" lon="6.53679">
        <ele>1353.5999755859</ele>
        <time>2017-07-07T09:15:36.000Z</time>
      </trkpt>
      <trkpt lat="46.8361" lon="6.53688">
        <ele>1353.1999511719</ele>
        <time>2017-07-07T09:15:37.000Z</time>
      </trkpt>
      <trkpt lat="46.83616" lon="6.53708">
        <ele>1351.5999755859</ele>
        <time>2017-07-07T09:15:39.000Z</time>
      </trkpt>
      <trkpt lat="46.83621" lon="6.53729">
        <ele>1350.4000244141</ele>
        <time>2017-07-07T09:15:41.000Z</time>
      </trkpt>
      <trkpt lat="46.83623" lon="6.53739">
        <ele>1349.4000244141</ele>
        <time>2017-07-07T09:15:42.000Z</time>
      </trkpt>
      <trkpt lat="46.83625" lon="6.53748">
        <ele>1348.5999755859</ele>
        <time>2017-07-07T09:15:43.000Z</time>
      </trkpt>
      <trkpt lat="46.83626" lon="6.53758">
        <ele>1347.5999755859</ele>
        <time>2017-07-07T09:15:44.000Z</time>
      </trkpt>
      <trkpt lat="46.83629" lon="6.53776">
        <ele>1345.5999755859</ele>
        <time>2017-07-07T09:15:46.000Z</time>
      </trkpt>
      <trkpt lat="46.8363" lon="6.53782">
        <ele>1344.8000488281</ele>
        <time>2017-07-07T09:15:47.000Z</time>
      </trkpt>
      <trkpt lat="46.83631" lon="6.53785">
        <ele>1344</ele>
        <time>2017-07-07T09:15:48.000Z</time>
      </trkpt>
      <trkpt lat="46.83631" lon="6.53788">
        <ele>1343.1999511719</ele>
        <time>2017-07-07T09:15:50.000Z</time>
      </trkpt>
      <trkpt lat="46.83631" lon="6.5379">
        <ele>1342.8000488281</ele>
        <time>2017-07-07T09:15:51.000Z</time>
      </trkpt>
      <trkpt lat="46.83631" lon="6.53794">
        <ele>1342.5999755859</ele>
        <time>2017-07-07T09:16:05.000Z</time>
      </trkpt>
      <trkpt lat="46.83631" lon="6.53793">
        <ele>1342.5999755859</ele>
        <time>2017-07-07T09:16:15.000Z</time>
      </trkpt>
      <trkpt lat="46.83631" lon="6.53794">
        <ele>1342.4000244141</ele>
        <time>2017-07-07T09:16:24.000Z</time>
      </trkpt>
      <trkpt lat="46.83632" lon="6.53795">
        <ele>1342.4000244141</ele>
        <time>2017-07-07T09:16:34.000Z</time>
      </trkpt>
      <trkpt lat="46.83632" lon="6.53795">
        <ele>1342.1999511719</ele>
        <time>2017-07-07T09:16:35.000Z</time>
      </trkpt>
      <trkpt lat="46.83629" lon="6.53797">
        <ele>1342.1999511719</ele>
        <time>2017-07-07T09:16:39.000Z</time>
      </trkpt>
      <trkpt lat="46.83626" lon="6.53797">
        <ele>1342.1999511719</ele>
        <time>2017-07-07T09:16:41.000Z</time>
      </trkpt>
      <trkpt lat="46.83616" lon="6.53795">
        <ele>1341.8000488281</ele>
        <time>2017-07-07T09:16:45.000Z</time>
      </trkpt>
      <trkpt lat="46.83612" lon="6.53795">
        <ele>1341.4000244141</ele>
        <time>2017-07-07T09:16:46.000Z</time>
      </trkpt>
      <trkpt lat="46.83596" lon="6.53791">
        <ele>1340</ele>
        <time>2017-07-07T09:16:49.000Z</time>
      </trkpt>
      <trkpt lat="46.83586" lon="6.53789">
        <ele>1338.8000488281</ele>
        <time>2017-07-07T09:16:51.000Z</time>
      </trkpt>
      <trkpt lat="46.83579" lon="6.53789">
        <ele>1337.1999511719</ele>
        <time>2017-07-07T09:16:53.000Z</time>
      </trkpt>
      <trkpt lat="46.83574" lon="6.53791">
        <ele>1336.1999511719</ele>
        <time>2017-07-07T09:16:55.000Z</time>
      </trkpt>
      <trkpt lat="46.83574" lon="6.53793">
        <ele>1335.1999511719</ele>
        <time>2017-07-07T09:16:57.000Z</time>
      </trkpt>
      <trkpt lat="46.83573" lon="6.538">
        <ele>1334.1999511719</ele>
        <time>2017-07-07T09:16:59.000Z</time>
      </trkpt>
      <trkpt lat="46.83573" lon="6.5381">
        <ele>1332.8000488281</ele>
        <time>2017-07-07T09:17:01.000Z</time>
      </trkpt>
      <trkpt lat="46.83572" lon="6.5382">
        <ele>1331</ele>
        <time>2017-07-07T09:17:03.000Z</time>
      </trkpt>
      <trkpt lat="46.83567" lon="6.53831">
        <ele>1330</ele>
        <time>2017-07-07T09:17:05.000Z</time>
      </trkpt>
      <trkpt lat="46.83561" lon="6.53838">
        <ele>1328.4000244141</ele>
        <time>2017-07-07T09:17:07.000Z</time>
      </trkpt>
      <trkpt lat="46.83554" lon="6.5384">
        <ele>1327.4000244141</ele>
        <time>2017-07-07T09:17:09.000Z</time>
      </trkpt>
      <trkpt lat="46.83552" lon="6.53841">
        <ele>1326.1999511719</ele>
        <time>2017-07-07T09:17:11.000Z</time>
      </trkpt>
      <trkpt lat="46.83551" lon="6.53843">
        <ele>1325.5999755859</ele>
        <time>2017-07-07T09:17:13.000Z</time>
      </trkpt>
      <trkpt lat="46.83551" lon="6.53846">
        <ele>1325.1999511719</ele>
        <time>2017-07-07T09:17:14.000Z</time>
      </trkpt>
      <trkpt lat="46.83548" lon="6.5385">
        <ele>1324.4000244141</ele>
        <time>2017-07-07T09:17:16.000Z</time>
      </trkpt>
      <trkpt lat="46.83545" lon="6.53851">
        <ele>1323.8000488281</ele>
        <time>2017-07-07T09:17:17.000Z</time>
      </trkpt>
      <trkpt lat="46.8354" lon="6.53852">
        <ele>1322</ele>
        <time>2017-07-07T09:17:19.000Z</time>
      </trkpt>
      <trkpt lat="46.83534" lon="6.53849">
        <ele>1320.4000244141</ele>
        <time>2017-07-07T09:17:21.000Z</time>
      </trkpt>
      <trkpt lat="46.8353" lon="6.53846">
        <ele>1319.5999755859</ele>
        <time>2017-07-07T09:17:22.000Z</time>
      </trkpt>
      <trkpt lat="46.83526" lon="6.53842">
        <ele>1319</ele>
        <time>2017-07-07T09:17:23.000Z</time>
      </trkpt>
      <trkpt lat="46.8351" lon="6.53825">
        <ele>1317.1999511719</ele>
        <time>2017-07-07T09:17:26.000Z</time>
      </trkpt>
      <trkpt lat="46.835" lon="6.53816">
        <ele>1316</ele>
        <time>2017-07-07T09:17:28.000Z</time>
      </trkpt>
      <trkpt lat="46.83492" lon="6.53811">
        <ele>1315.4000244141</ele>
        <time>2017-07-07T09:17:30.000Z</time>
      </trkpt>
      <trkpt lat="46.83476" lon="6.53808">
        <ele>1315</ele>
        <time>2017-07-07T09:17:34.000Z</time>
      </trkpt>
      <trkpt lat="46.83471" lon="6.53809">
        <ele>1315</ele>
        <time>2017-07-07T09:17:35.000Z</time>
      </trkpt>
      <trkpt lat="46.83458" lon="6.53809">
        <ele>1314.8000488281</ele>
        <time>2017-07-07T09:17:38.000Z</time>
      </trkpt>
      <trkpt lat="46.83449" lon="6.53812">
        <ele>1314.5999755859</ele>
        <time>2017-07-07T09:17:40.000Z</time>
      </trkpt>
      <trkpt lat="46.83443" lon="6.53814">
        <ele>1314.1999511719</ele>
        <time>2017-07-07T09:17:41.000Z</time>
      </trkpt>
      <trkpt lat="46.83437" lon="6.53815">
        <ele>1314</ele>
        <time>2017-07-07T09:17:42.000Z</time>
      </trkpt>
      <trkpt lat="46.83424" lon="6.53814">
        <ele>1313</ele>
        <time>2017-07-07T09:17:44.000Z</time>
      </trkpt>
      <trkpt lat="46.83411" lon="6.53809">
        <ele>1311.5999755859</ele>
        <time>2017-07-07T09:17:46.000Z</time>
      </trkpt>
      <trkpt lat="46.83404" lon="6.53805">
        <ele>1311</ele>
        <time>2017-07-07T09:17:47.000Z</time>
      </trkpt>
      <trkpt lat="46.83399" lon="6.53799">
        <ele>1310</ele>
        <time>2017-07-07T09:17:48.000Z</time>
      </trkpt>
      <trkpt lat="46.83395" lon="6.53793">
        <ele>1309.4000244141</ele>
        <time>2017-07-07T09:17:49.000Z</time>
      </trkpt>
      <trkpt lat="46.8339" lon="6.53787">
        <ele>1309.1999511719</ele>
        <time>2017-07-07T09:17:50.000Z</time>
      </trkpt>
      <trkpt lat="46.8338" lon="6.53772">
        <ele>1308.5999755859</ele>
        <time>2017-07-07T09:17:53.000Z</time>
      </trkpt>
      <trkpt lat="46.83377" lon="6.53766">
        <ele>1308.5999755859</ele>
        <time>2017-07-07T09:17:54.000Z</time>
      </trkpt>
      <trkpt lat="46.83369" lon="6.53756">
        <ele>1308.4000244141</ele>
        <time>2017-07-07T09:17:57.000Z</time>
      </trkpt>
      <trkpt lat="46.83365" lon="6.53754">
        <ele>1308.1999511719</ele>
        <time>2017-07-07T09:17:58.000Z</time>
      </trkpt>
      <trkpt lat="46.83342" lon="6.53746">
        <ele>1309.1999511719</ele>
        <time>2017-07-07T09:18:04.000Z</time>
      </trkpt>
      <trkpt lat="46.83323" lon="6.53745">
        <ele>1309.4000244141</ele>
        <time>2017-07-07T09:18:08.000Z</time>
      </trkpt>
      <trkpt lat="46.83321" lon="6.5374">
        <ele>1309.4000244141</ele>
        <time>2017-07-07T09:18:09.000Z</time>
      </trkpt>
      <trkpt lat="46.83312" lon="6.53727">
        <ele>1309.4000244141</ele>
        <time>2017-07-07T09:18:12.000Z</time>
      </trkpt>
      <trkpt lat="46.83309" lon="6.53724">
        <ele>1309.1999511719</ele>
        <time>2017-07-07T09:18:13.000Z</time>
      </trkpt>
      <trkpt lat="46.83297" lon="6.53714">
        <ele>1308.1999511719</ele>
        <time>2017-07-07T09:18:16.000Z</time>
      </trkpt>
      <trkpt lat="46.83288" lon="6.53706">
        <ele>1307.4000244141</ele>
        <time>2017-07-07T09:18:18.000Z</time>
      </trkpt>
      <trkpt lat="46.83281" lon="6.53697">
        <ele>1306.4000244141</ele>
        <time>2017-07-07T09:18:20.000Z</time>
      </trkpt>
      <trkpt lat="46.83279" lon="6.53692">
        <ele>1305.8000488281</ele>
        <time>2017-07-07T09:18:21.000Z</time>
      </trkpt>
      <trkpt lat="46.83277" lon="6.53681">
        <ele>1304.4000244141</ele>
        <time>2017-07-07T09:18:23.000Z</time>
      </trkpt>
      <trkpt lat="46.8328" lon="6.53672">
        <ele>1303.4000244141</ele>
        <time>2017-07-07T09:18:25.000Z</time>
      </trkpt>
      <trkpt lat="46.83279" lon="6.53661">
        <ele>1303</ele>
        <time>2017-07-07T09:18:27.000Z</time>
      </trkpt>
      <trkpt lat="46.83276" lon="6.5365">
        <ele>1303.4000244141</ele>
        <time>2017-07-07T09:18:29.000Z</time>
      </trkpt>
      <trkpt lat="46.83273" lon="6.53644">
        <ele>1303.5999755859</ele>
        <time>2017-07-07T09:18:30.000Z</time>
      </trkpt>
      <trkpt lat="46.83268" lon="6.53633">
        <ele>1304</ele>
        <time>2017-07-07T09:18:32.000Z</time>
      </trkpt>
      <trkpt lat="46.83266" lon="6.53627">
        <ele>1304.5999755859</ele>
        <time>2017-07-07T09:18:33.000Z</time>
      </trkpt>
      <trkpt lat="46.83255" lon="6.53599">
        <ele>1305.4000244141</ele>
        <time>2017-07-07T09:18:37.000Z</time>
      </trkpt>
      <trkpt lat="46.83251" lon="6.53592">
        <ele>1305.5999755859</ele>
        <time>2017-07-07T09:18:38.000Z</time>
      </trkpt>
      <trkpt lat="46.83247" lon="6.53585">
        <ele>1305.5999755859</ele>
        <time>2017-07-07T09:18:39.000Z</time>
      </trkpt>
      <trkpt lat="46.8324" lon="6.53575">
        <ele>1305.5999755859</ele>
        <time>2017-07-07T09:18:41.000Z</time>
      </trkpt>
      <trkpt lat="46.83225" lon="6.53557">
        <ele>1305.8000488281</ele>
        <time>2017-07-07T09:18:45.000Z</time>
      </trkpt>
      <trkpt lat="46.8322" lon="6.53546">
        <ele>1306.1999511719</ele>
        <time>2017-07-07T09:18:47.000Z</time>
      </trkpt>
      <trkpt lat="46.83217" lon="6.53528">
        <ele>1306.8000488281</ele>
        <time>2017-07-07T09:18:50.000Z</time>
      </trkpt>
      <trkpt lat="46.83217" lon="6.53522">
        <ele>1307</ele>
        <time>2017-07-07T09:18:51.000Z</time>
      </trkpt>
      <trkpt lat="46.83217" lon="6.53517">
        <ele>1307.8000488281</ele>
        <time>2017-07-07T09:18:52.000Z</time>
      </trkpt>
      <trkpt lat="46.83213" lon="6.535">
        <ele>1309.1999511719</ele>
        <time>2017-07-07T09:18:55.000Z</time>
      </trkpt>
      <trkpt lat="46.83212" lon="6.53495">
        <ele>1309.5999755859</ele>
        <time>2017-07-07T09:18:56.000Z</time>
      </trkpt>
      <trkpt lat="46.83208" lon="6.53484">
        <ele>1310</ele>
        <time>2017-07-07T09:18:58.000Z</time>
      </trkpt>
      <trkpt lat="46.83207" lon="6.53478">
        <ele>1310.4000244141</ele>
        <time>2017-07-07T09:18:59.000Z</time>
      </trkpt>
      <trkpt lat="46.83205" lon="6.53467">
        <ele>1310.5999755859</ele>
        <time>2017-07-07T09:19:01.000Z</time>
      </trkpt>
      <trkpt lat="46.83206" lon="6.53462">
        <ele>1310.8000488281</ele>
        <time>2017-07-07T09:19:02.000Z</time>
      </trkpt>
      <trkpt lat="46.83205" lon="6.53458">
        <ele>1311.5999755859</ele>
        <time>2017-07-07T09:19:03.000Z</time>
      </trkpt>
      <trkpt lat="46.83204" lon="6.5345">
        <ele>1312.8000488281</ele>
        <time>2017-07-07T09:19:05.000Z</time>
      </trkpt>
      <trkpt lat="46.83204" lon="6.53447">
        <ele>1313.4000244141</ele>
        <time>2017-07-07T09:19:06.000Z</time>
      </trkpt>
      <trkpt lat="46.83204" lon="6.53443">
        <ele>1314</ele>
        <time>2017-07-07T09:19:07.000Z</time>
      </trkpt>
      <trkpt lat="46.83204" lon="6.53433">
        <ele>1315.4000244141</ele>
        <time>2017-07-07T09:19:10.000Z</time>
      </trkpt>
      <trkpt lat="46.83205" lon="6.53429">
        <ele>1316.1999511719</ele>
        <time>2017-07-07T09:19:11.000Z</time>
      </trkpt>
      <trkpt lat="46.83205" lon="6.53426">
        <ele>1316.8000488281</ele>
        <time>2017-07-07T09:19:12.000Z</time>
      </trkpt>
      <trkpt lat="46.83206" lon="6.53412">
        <ele>1318</ele>
        <time>2017-07-07T09:19:16.000Z</time>
      </trkpt>
      <trkpt lat="46.83203" lon="6.5339">
        <ele>1319.1999511719</ele>
        <time>2017-07-07T09:19:20.000Z</time>
      </trkpt>
      <trkpt lat="46.83199" lon="6.53362">
        <ele>1320</ele>
        <time>2017-07-07T09:19:25.000Z</time>
      </trkpt>
      <trkpt lat="46.83198" lon="6.53332">
        <ele>1320</ele>
        <time>2017-07-07T09:19:30.000Z</time>
      </trkpt>
      <trkpt lat="46.83198" lon="6.53311">
        <ele>1319.5999755859</ele>
        <time>2017-07-07T09:19:33.000Z</time>
      </trkpt>
      <trkpt lat="46.83199" lon="6.53304">
        <ele>1319.1999511719</ele>
        <time>2017-07-07T09:19:34.000Z</time>
      </trkpt>
      <trkpt lat="46.83203" lon="6.53283">
        <ele>1319.5999755859</ele>
        <time>2017-07-07T09:19:38.000Z</time>
      </trkpt>
      <trkpt lat="46.83207" lon="6.53271">
        <ele>1320.5999755859</ele>
        <time>2017-07-07T09:19:42.000Z</time>
      </trkpt>
      <trkpt lat="46.83207" lon="6.53268">
        <ele>1321.1999511719</ele>
        <time>2017-07-07T09:19:43.000Z</time>
      </trkpt>
      <trkpt lat="46.83206" lon="6.53265">
        <ele>1322</ele>
        <time>2017-07-07T09:19:44.000Z</time>
      </trkpt>
      <trkpt lat="46.83205" lon="6.53262">
        <ele>1322.4000244141</ele>
        <time>2017-07-07T09:19:46.000Z</time>
      </trkpt>
      <trkpt lat="46.83202" lon="6.53261">
        <ele>1322.1999511719</ele>
        <time>2017-07-07T09:19:48.000Z</time>
      </trkpt>
      <trkpt lat="46.83195" lon="6.53264">
        <ele>1320.1999511719</ele>
        <time>2017-07-07T09:19:51.000Z</time>
      </trkpt>
      <trkpt lat="46.8319" lon="6.53266">
        <ele>1319</ele>
        <time>2017-07-07T09:19:53.000Z</time>
      </trkpt>
      <trkpt lat="46.83188" lon="6.53266">
        <ele>1318.4000244141</ele>
        <time>2017-07-07T09:19:54.000Z</time>
      </trkpt>
      <trkpt lat="46.83185" lon="6.53268">
        <ele>1317.5999755859</ele>
        <time>2017-07-07T09:19:56.000Z</time>
      </trkpt>
      <trkpt lat="46.83179" lon="6.53277">
        <ele>1317</ele>
        <time>2017-07-07T09:19:58.000Z</time>
      </trkpt>
      <trkpt lat="46.83176" lon="6.53279">
        <ele>1316</ele>
        <time>2017-07-07T09:19:59.000Z</time>
      </trkpt>
      <trkpt lat="46.83173" lon="6.53279">
        <ele>1315</ele>
        <time>2017-07-07T09:20:00.000Z</time>
      </trkpt>
      <trkpt lat="46.83169" lon="6.53274">
        <ele>1313.5999755859</ele>
        <time>2017-07-07T09:20:02.000Z</time>
      </trkpt>
      <trkpt lat="46.83162" lon="6.53271">
        <ele>1312.1999511719</ele>
        <time>2017-07-07T09:20:05.000Z</time>
      </trkpt>
      <trkpt lat="46.83159" lon="6.53271">
        <ele>1311.8000488281</ele>
        <time>2017-07-07T09:20:06.000Z</time>
      </trkpt>
      <trkpt lat="46.83157" lon="6.53271">
        <ele>1310.5999755859</ele>
        <time>2017-07-07T09:20:07.000Z</time>
      </trkpt>
      <trkpt lat="46.83152" lon="6.53274">
        <ele>1309.1999511719</ele>
        <time>2017-07-07T09:20:09.000Z</time>
      </trkpt>
      <trkpt lat="46.8315" lon="6.53276">
        <ele>1308.5999755859</ele>
        <time>2017-07-07T09:20:10.000Z</time>
      </trkpt>
      <trkpt lat="46.83148" lon="6.53279">
        <ele>1308</ele>
        <time>2017-07-07T09:20:11.000Z</time>
      </trkpt>
      <trkpt lat="46.83146" lon="6.53285">
        <ele>1307.4000244141</ele>
        <time>2017-07-07T09:20:14.000Z</time>
      </trkpt>
      <trkpt lat="46.83145" lon="6.53287">
        <ele>1307</ele>
        <time>2017-07-07T09:20:15.000Z</time>
      </trkpt>
      <trkpt lat="46.83143" lon="6.53289">
        <ele>1306.8000488281</ele>
        <time>2017-07-07T09:20:16.000Z</time>
      </trkpt>
      <trkpt lat="46.83141" lon="6.5329">
        <ele>1306.4000244141</ele>
        <time>2017-07-07T09:20:17.000Z</time>
      </trkpt>
      <trkpt lat="46.83138" lon="6.5329">
        <ele>1306.1999511719</ele>
        <time>2017-07-07T09:20:18.000Z</time>
      </trkpt>
      <trkpt lat="46.83135" lon="6.5329">
        <ele>1305.8000488281</ele>
        <time>2017-07-07T09:20:19.000Z</time>
      </trkpt>
      <trkpt lat="46.83131" lon="6.53292">
        <ele>1304</ele>
        <time>2017-07-07T09:20:22.000Z</time>
      </trkpt>
      <trkpt lat="46.8313" lon="6.53295">
        <ele>1302.5999755859</ele>
        <time>2017-07-07T09:20:24.000Z</time>
      </trkpt>
      <trkpt lat="46.83128" lon="6.53301">
        <ele>1302.1999511719</ele>
        <time>2017-07-07T09:20:26.000Z</time>
      </trkpt>
      <trkpt lat="46.83129" lon="6.53307">
        <ele>1301.8000488281</ele>
        <time>2017-07-07T09:20:28.000Z</time>
      </trkpt>
      <trkpt lat="46.8313" lon="6.53311">
        <ele>1301.8000488281</ele>
        <time>2017-07-07T09:20:29.000Z</time>
      </trkpt>
      <trkpt lat="46.83132" lon="6.53319">
        <ele>1301.5999755859</ele>
        <time>2017-07-07T09:20:31.000Z</time>
      </trkpt>
      <trkpt lat="46.83134" lon="6.53338">
        <ele>1302.5999755859</ele>
        <time>2017-07-07T09:20:35.000Z</time>
      </trkpt>
      <trkpt lat="46.83135" lon="6.53343">
        <ele>1303.1999511719</ele>
        <time>2017-07-07T09:20:36.000Z</time>
      </trkpt>
      <trkpt lat="46.83138" lon="6.53354">
        <ele>1304.4000244141</ele>
        <time>2017-07-07T09:20:38.000Z</time>
      </trkpt>
      <trkpt lat="46.8314" lon="6.5336">
        <ele>1304.5999755859</ele>
        <time>2017-07-07T09:20:39.000Z</time>
      </trkpt>
      <trkpt lat="46.83147" lon="6.5338">
        <ele>1305.8000488281</ele>
        <time>2017-07-07T09:20:42.000Z</time>
      </trkpt>
      <trkpt lat="46.83151" lon="6.53385">
        <ele>1306</ele>
        <time>2017-07-07T09:20:43.000Z</time>
      </trkpt>
      <trkpt lat="46.83158" lon="6.53396">
        <ele>1306</ele>
        <time>2017-07-07T09:20:45.000Z</time>
      </trkpt>
      <trkpt lat="46.83163" lon="6.53409">
        <ele>1306</ele>
        <time>2017-07-07T09:20:47.000Z</time>
      </trkpt>
      <trkpt lat="46.83173" lon="6.53436">
        <ele>1305.4000244141</ele>
        <time>2017-07-07T09:20:52.000Z</time>
      </trkpt>
      <trkpt lat="46.83181" lon="6.53465">
        <ele>1305.1999511719</ele>
        <time>2017-07-07T09:20:57.000Z</time>
      </trkpt>
      <trkpt lat="46.83187" lon="6.53492">
        <ele>1305.5999755859</ele>
        <time>2017-07-07T09:21:02.000Z</time>
      </trkpt>
      <trkpt lat="46.83193" lon="6.53512">
        <ele>1306.1999511719</ele>
        <time>2017-07-07T09:21:07.000Z</time>
      </trkpt>
      <trkpt lat="46.83203" lon="6.53536">
        <ele>1306</ele>
        <time>2017-07-07T09:21:12.000Z</time>
      </trkpt>
      <trkpt lat="46.83205" lon="6.53539">
        <ele>1305.8000488281</ele>
        <time>2017-07-07T09:21:13.000Z</time>
      </trkpt>
      <trkpt lat="46.83202" lon="6.53545">
        <ele>1305.4000244141</ele>
        <time>2017-07-07T09:21:15.000Z</time>
      </trkpt>
      <trkpt lat="46.83199" lon="6.53547">
        <ele>1305</ele>
        <time>2017-07-07T09:21:16.000Z</time>
      </trkpt>
      <trkpt lat="46.83195" lon="6.53554">
        <ele>1303.5999755859</ele>
        <time>2017-07-07T09:21:18.000Z</time>
      </trkpt>
      <trkpt lat="46.83191" lon="6.53557">
        <ele>1302.5999755859</ele>
        <time>2017-07-07T09:21:19.000Z</time>
      </trkpt>
      <trkpt lat="46.83188" lon="6.53562">
        <ele>1302.1999511719</ele>
        <time>2017-07-07T09:21:20.000Z</time>
      </trkpt>
      <trkpt lat="46.83185" lon="6.53566">
        <ele>1301</ele>
        <time>2017-07-07T09:21:21.000Z</time>
      </trkpt>
      <trkpt lat="46.83182" lon="6.5357">
        <ele>1299.8000488281</ele>
        <time>2017-07-07T09:21:22.000Z</time>
      </trkpt>
      <trkpt lat="46.83179" lon="6.53573">
        <ele>1298.5999755859</ele>
        <time>2017-07-07T09:21:23.000Z</time>
      </trkpt>
      <trkpt lat="46.83176" lon="6.53575">
        <ele>1297.4000244141</ele>
        <time>2017-07-07T09:21:24.000Z</time>
      </trkpt>
      <trkpt lat="46.83171" lon="6.53576">
        <ele>1296.4000244141</ele>
        <time>2017-07-07T09:21:25.000Z</time>
      </trkpt>
      <trkpt lat="46.83167" lon="6.53578">
        <ele>1295.5999755859</ele>
        <time>2017-07-07T09:21:26.000Z</time>
      </trkpt>
      <trkpt lat="46.83164" lon="6.53579">
        <ele>1294.4000244141</ele>
        <time>2017-07-07T09:21:27.000Z</time>
      </trkpt>
      <trkpt lat="46.8316" lon="6.5358">
        <ele>1293.1999511719</ele>
        <time>2017-07-07T09:21:28.000Z</time>
      </trkpt>
      <trkpt lat="46.83157" lon="6.5358">
        <ele>1292.4000244141</ele>
        <time>2017-07-07T09:21:29.000Z</time>
      </trkpt>
      <trkpt lat="46.83154" lon="6.53579">
        <ele>1291.4000244141</ele>
        <time>2017-07-07T09:21:30.000Z</time>
      </trkpt>
      <trkpt lat="46.83151" lon="6.53578">
        <ele>1290.5999755859</ele>
        <time>2017-07-07T09:21:31.000Z</time>
      </trkpt>
      <trkpt lat="46.83147" lon="6.53577">
        <ele>1290.1999511719</ele>
        <time>2017-07-07T09:21:32.000Z</time>
      </trkpt>
      <trkpt lat="46.83142" lon="6.53576">
        <ele>1289.5999755859</ele>
        <time>2017-07-07T09:21:33.000Z</time>
      </trkpt>
      <trkpt lat="46.83138" lon="6.53573">
        <ele>1288.8000488281</ele>
        <time>2017-07-07T09:21:34.000Z</time>
      </trkpt>
      <trkpt lat="46.83134" lon="6.53569">
        <ele>1287</ele>
        <time>2017-07-07T09:21:35.000Z</time>
      </trkpt>
      <trkpt lat="46.83131" lon="6.53563">
        <ele>1285.8000488281</ele>
        <time>2017-07-07T09:21:36.000Z</time>
      </trkpt>
      <trkpt lat="46.83128" lon="6.53558">
        <ele>1285.1999511719</ele>
        <time>2017-07-07T09:21:37.000Z</time>
      </trkpt>
      <trkpt lat="46.83125" lon="6.53552">
        <ele>1284.5999755859</ele>
        <time>2017-07-07T09:21:38.000Z</time>
      </trkpt>
      <trkpt lat="46.83119" lon="6.53537">
        <ele>1284.1999511719</ele>
        <time>2017-07-07T09:21:41.000Z</time>
      </trkpt>
      <trkpt lat="46.83112" lon="6.53518">
        <ele>1284.4000244141</ele>
        <time>2017-07-07T09:21:45.000Z</time>
      </trkpt>
      <trkpt lat="46.83106" lon="6.53501">
        <ele>1284.5999755859</ele>
        <time>2017-07-07T09:21:49.000Z</time>
      </trkpt>
      <trkpt lat="46.831" lon="6.5348">
        <ele>1285.1999511719</ele>
        <time>2017-07-07T09:21:54.000Z</time>
      </trkpt>
      <trkpt lat="46.83093" lon="6.53457">
        <ele>1284.4000244141</ele>
        <time>2017-07-07T09:21:59.000Z</time>
      </trkpt>
      <trkpt lat="46.8309" lon="6.53442">
        <ele>1284</ele>
        <time>2017-07-07T09:22:02.000Z</time>
      </trkpt>
      <trkpt lat="46.83089" lon="6.53438">
        <ele>1284</ele>
        <time>2017-07-07T09:22:03.000Z</time>
      </trkpt>
      <trkpt lat="46.83085" lon="6.53428">
        <ele>1283.8000488281</ele>
        <time>2017-07-07T09:22:05.000Z</time>
      </trkpt>
      <trkpt lat="46.83084" lon="6.53422">
        <ele>1283.8000488281</ele>
        <time>2017-07-07T09:22:06.000Z</time>
      </trkpt>
      <trkpt lat="46.8308" lon="6.53406">
        <ele>1282.8000488281</ele>
        <time>2017-07-07T09:22:09.000Z</time>
      </trkpt>
      <trkpt lat="46.83075" lon="6.53397">
        <ele>1281.4000244141</ele>
        <time>2017-07-07T09:22:11.000Z</time>
      </trkpt>
      <trkpt lat="46.83073" lon="6.53392">
        <ele>1281.4000244141</ele>
        <time>2017-07-07T09:22:12.000Z</time>
      </trkpt>
      <trkpt lat="46.83071" lon="6.53387">
        <ele>1281.1999511719</ele>
        <time>2017-07-07T09:22:13.000Z</time>
      </trkpt>
      <trkpt lat="46.83066" lon="6.53378">
        <ele>1281</ele>
        <time>2017-07-07T09:22:15.000Z</time>
      </trkpt>
      <trkpt lat="46.83062" lon="6.53369">
        <ele>1280</ele>
        <time>2017-07-07T09:22:17.000Z</time>
      </trkpt>
      <trkpt lat="46.83059" lon="6.53365">
        <ele>1279</ele>
        <time>2017-07-07T09:22:18.000Z</time>
      </trkpt>
      <trkpt lat="46.83054" lon="6.5336">
        <ele>1277.1999511719</ele>
        <time>2017-07-07T09:22:20.000Z</time>
      </trkpt>
      <trkpt lat="46.8305" lon="6.53358">
        <ele>1276.1999511719</ele>
        <time>2017-07-07T09:22:21.000Z</time>
      </trkpt>
      <trkpt lat="46.83048" lon="6.53354">
        <ele>1275.4000244141</ele>
        <time>2017-07-07T09:22:22.000Z</time>
      </trkpt>
      <trkpt lat="46.83043" lon="6.5335">
        <ele>1274.5999755859</ele>
        <time>2017-07-07T09:22:23.000Z</time>
      </trkpt>
      <trkpt lat="46.8304" lon="6.53345">
        <ele>1273.5999755859</ele>
        <time>2017-07-07T09:22:24.000Z</time>
      </trkpt>
      <trkpt lat="46.83036" lon="6.53339">
        <ele>1272.8000488281</ele>
        <time>2017-07-07T09:22:25.000Z</time>
      </trkpt>
      <trkpt lat="46.83032" lon="6.53333">
        <ele>1271.8000488281</ele>
        <time>2017-07-07T09:22:26.000Z</time>
      </trkpt>
      <trkpt lat="46.83026" lon="6.53319">
        <ele>1270</ele>
        <time>2017-07-07T09:22:28.000Z</time>
      </trkpt>
      <trkpt lat="46.83024" lon="6.53313">
        <ele>1269.1999511719</ele>
        <time>2017-07-07T09:22:29.000Z</time>
      </trkpt>
      <trkpt lat="46.8302" lon="6.53309">
        <ele>1268.5999755859</ele>
        <time>2017-07-07T09:22:30.000Z</time>
      </trkpt>
      <trkpt lat="46.83013" lon="6.53303">
        <ele>1267.4000244141</ele>
        <time>2017-07-07T09:22:31.000Z</time>
      </trkpt>
      <trkpt lat="46.83008" lon="6.53297">
        <ele>1266.1999511719</ele>
        <time>2017-07-07T09:22:32.000Z</time>
      </trkpt>
      <trkpt lat="46.83003" lon="6.53291">
        <ele>1265</ele>
        <time>2017-07-07T09:22:33.000Z</time>
      </trkpt>
      <trkpt lat="46.82998" lon="6.53284">
        <ele>1264.1999511719</ele>
        <time>2017-07-07T09:22:34.000Z</time>
      </trkpt>
      <trkpt lat="46.82995" lon="6.53275">
        <ele>1263.1999511719</ele>
        <time>2017-07-07T09:22:35.000Z</time>
      </trkpt>
      <trkpt lat="46.82991" lon="6.53267">
        <ele>1262.1999511719</ele>
        <time>2017-07-07T09:22:36.000Z</time>
      </trkpt>
      <trkpt lat="46.82987" lon="6.53259">
        <ele>1261.1999511719</ele>
        <time>2017-07-07T09:22:37.000Z</time>
      </trkpt>
      <trkpt lat="46.82983" lon="6.53251">
        <ele>1259.5999755859</ele>
        <time>2017-07-07T09:22:38.000Z</time>
      </trkpt>
      <trkpt lat="46.82979" lon="6.53242">
        <ele>1258</ele>
        <time>2017-07-07T09:22:39.000Z</time>
      </trkpt>
      <trkpt lat="46.82973" lon="6.53223">
        <ele>1256.1999511719</ele>
        <time>2017-07-07T09:22:41.000Z</time>
      </trkpt>
      <trkpt lat="46.8297" lon="6.53215">
        <ele>1255.1999511719</ele>
        <time>2017-07-07T09:22:42.000Z</time>
      </trkpt>
      <trkpt lat="46.82967" lon="6.53207">
        <ele>1254.1999511719</ele>
        <time>2017-07-07T09:22:43.000Z</time>
      </trkpt>
      <trkpt lat="46.82961" lon="6.53194">
        <ele>1252.5999755859</ele>
        <time>2017-07-07T09:22:45.000Z</time>
      </trkpt>
      <trkpt lat="46.82958" lon="6.53189">
        <ele>1251.8000488281</ele>
        <time>2017-07-07T09:22:46.000Z</time>
      </trkpt>
      <trkpt lat="46.82954" lon="6.53187">
        <ele>1250.8000488281</ele>
        <time>2017-07-07T09:22:47.000Z</time>
      </trkpt>
      <trkpt lat="46.82951" lon="6.53187">
        <ele>1249.1999511719</ele>
        <time>2017-07-07T09:22:49.000Z</time>
      </trkpt>
      <trkpt lat="46.82949" lon="6.53197">
        <ele>1248.1999511719</ele>
        <time>2017-07-07T09:22:51.000Z</time>
      </trkpt>
      <trkpt lat="46.82948" lon="6.53203">
        <ele>1247.8000488281</ele>
        <time>2017-07-07T09:22:52.000Z</time>
      </trkpt>
      <trkpt lat="46.82948" lon="6.53211">
        <ele>1247.5999755859</ele>
        <time>2017-07-07T09:22:53.000Z</time>
      </trkpt>
      <trkpt lat="46.82945" lon="6.53219">
        <ele>1247.1999511719</ele>
        <time>2017-07-07T09:22:54.000Z</time>
      </trkpt>
      <trkpt lat="46.82943" lon="6.53229">
        <ele>1246.4000244141</ele>
        <time>2017-07-07T09:22:55.000Z</time>
      </trkpt>
      <trkpt lat="46.82941" lon="6.53238">
        <ele>1245.5999755859</ele>
        <time>2017-07-07T09:22:56.000Z</time>
      </trkpt>
      <trkpt lat="46.82939" lon="6.53258">
        <ele>1244</ele>
        <time>2017-07-07T09:22:58.000Z</time>
      </trkpt>
      <trkpt lat="46.82938" lon="6.53269">
        <ele>1242.5999755859</ele>
        <time>2017-07-07T09:22:59.000Z</time>
      </trkpt>
      <trkpt lat="46.8294" lon="6.5329">
        <ele>1241</ele>
        <time>2017-07-07T09:23:01.000Z</time>
      </trkpt>
      <trkpt lat="46.82941" lon="6.53299">
        <ele>1240.4000244141</ele>
        <time>2017-07-07T09:23:02.000Z</time>
      </trkpt>
      <trkpt lat="46.82943" lon="6.53306">
        <ele>1239.4000244141</ele>
        <time>2017-07-07T09:23:03.000Z</time>
      </trkpt>
      <trkpt lat="46.82948" lon="6.53315">
        <ele>1239</ele>
        <time>2017-07-07T09:23:05.000Z</time>
      </trkpt>
      <trkpt lat="46.82949" lon="6.53319">
        <ele>1239</ele>
        <time>2017-07-07T09:23:06.000Z</time>
      </trkpt>
      <trkpt lat="46.82958" lon="6.53334">
        <ele>1240.8000488281</ele>
        <time>2017-07-07T09:23:11.000Z</time>
      </trkpt>
      <trkpt lat="46.82962" lon="6.53346">
        <ele>1242.4000244141</ele>
        <time>2017-07-07T09:23:14.000Z</time>
      </trkpt>
      <trkpt lat="46.82967" lon="6.53354">
        <ele>1242.8000488281</ele>
        <time>2017-07-07T09:23:16.000Z</time>
      </trkpt>
      <trkpt lat="46.82974" lon="6.53364">
        <ele>1243.5999755859</ele>
        <time>2017-07-07T09:23:19.000Z</time>
      </trkpt>
      <trkpt lat="46.82977" lon="6.53368">
        <ele>1244</ele>
        <time>2017-07-07T09:23:20.000Z</time>
      </trkpt>
      <trkpt lat="46.82982" lon="6.53375">
        <ele>1244.8000488281</ele>
        <time>2017-07-07T09:23:22.000Z</time>
      </trkpt>
      <trkpt lat="46.82986" lon="6.5338">
        <ele>1246</ele>
        <time>2017-07-07T09:23:24.000Z</time>
      </trkpt>
      <trkpt lat="46.82991" lon="6.53385">
        <ele>1247</ele>
        <time>2017-07-07T09:23:26.000Z</time>
      </trkpt>
      <trkpt lat="46.82993" lon="6.53388">
        <ele>1247.5999755859</ele>
        <time>2017-07-07T09:23:27.000Z</time>
      </trkpt>
      <trkpt lat="46.83" lon="6.53396">
        <ele>1249</ele>
        <time>2017-07-07T09:23:31.000Z</time>
      </trkpt>
      <trkpt lat="46.83006" lon="6.53406">
        <ele>1250.1999511719</ele>
        <time>2017-07-07T09:23:34.000Z</time>
      </trkpt>
      <trkpt lat="46.83009" lon="6.53413">
        <ele>1250.8000488281</ele>
        <time>2017-07-07T09:23:36.000Z</time>
      </trkpt>
      <trkpt lat="46.83012" lon="6.53421">
        <ele>1251.8000488281</ele>
        <time>2017-07-07T09:23:38.000Z</time>
      </trkpt>
      <trkpt lat="46.83018" lon="6.53432">
        <ele>1252.5999755859</ele>
        <time>2017-07-07T09:23:41.000Z</time>
      </trkpt>
      <trkpt lat="46.83018" lon="6.53436">
        <ele>1253</ele>
        <time>2017-07-07T09:23:42.000Z</time>
      </trkpt>
      <trkpt lat="46.83018" lon="6.53445">
        <ele>1253.8000488281</ele>
        <time>2017-07-07T09:23:44.000Z</time>
      </trkpt>
      <trkpt lat="46.83018" lon="6.53456">
        <ele>1254</ele>
        <time>2017-07-07T09:23:46.000Z</time>
      </trkpt>
      <trkpt lat="46.83019" lon="6.5348">
        <ele>1251.8000488281</ele>
        <time>2017-07-07T09:23:50.000Z</time>
      </trkpt>
      <trkpt lat="46.8302" lon="6.53496">
        <ele>1250.8000488281</ele>
        <time>2017-07-07T09:23:52.000Z</time>
      </trkpt>
      <trkpt lat="46.8302" lon="6.53504">
        <ele>1249.5999755859</ele>
        <time>2017-07-07T09:23:53.000Z</time>
      </trkpt>
      <trkpt lat="46.83021" lon="6.53511">
        <ele>1248.5999755859</ele>
        <time>2017-07-07T09:23:54.000Z</time>
      </trkpt>
      <trkpt lat="46.83021" lon="6.53518">
        <ele>1247.5999755859</ele>
        <time>2017-07-07T09:23:55.000Z</time>
      </trkpt>
      <trkpt lat="46.83023" lon="6.53533">
        <ele>1246.1999511719</ele>
        <time>2017-07-07T09:23:57.000Z</time>
      </trkpt>
      <trkpt lat="46.83025" lon="6.53545">
        <ele>1244.8000488281</ele>
        <time>2017-07-07T09:23:59.000Z</time>
      </trkpt>
      <trkpt lat="46.83026" lon="6.53555">
        <ele>1243.8000488281</ele>
        <time>2017-07-07T09:24:01.000Z</time>
      </trkpt>
      <trkpt lat="46.83026" lon="6.53559">
        <ele>1243.4000244141</ele>
        <time>2017-07-07T09:24:02.000Z</time>
      </trkpt>
      <trkpt lat="46.83029" lon="6.53569">
        <ele>1242.1999511719</ele>
        <time>2017-07-07T09:24:05.000Z</time>
      </trkpt>
      <trkpt lat="46.8303" lon="6.53572">
        <ele>1241.5999755859</ele>
        <time>2017-07-07T09:24:06.000Z</time>
      </trkpt>
      <trkpt lat="46.83032" lon="6.53575">
        <ele>1240.8000488281</ele>
        <time>2017-07-07T09:24:07.000Z</time>
      </trkpt>
      <trkpt lat="46.83041" lon="6.53587">
        <ele>1241.4000244141</ele>
        <time>2017-07-07T09:24:11.000Z</time>
      </trkpt>
      <trkpt lat="46.83048" lon="6.53592">
        <ele>1242.1999511719</ele>
        <time>2017-07-07T09:24:14.000Z</time>
      </trkpt>
      <trkpt lat="46.83054" lon="6.53599">
        <ele>1243.4000244141</ele>
        <time>2017-07-07T09:24:17.000Z</time>
      </trkpt>
      <trkpt lat="46.83056" lon="6.53601">
        <ele>1243.5999755859</ele>
        <time>2017-07-07T09:24:18.000Z</time>
      </trkpt>
      <trkpt lat="46.83057" lon="6.53605">
        <ele>1243.8000488281</ele>
        <time>2017-07-07T09:24:19.000Z</time>
      </trkpt>
      <trkpt lat="46.83061" lon="6.53612">
        <ele>1244.1999511719</ele>
        <time>2017-07-07T09:24:21.000Z</time>
      </trkpt>
      <trkpt lat="46.83065" lon="6.53621">
        <ele>1244.5999755859</ele>
        <time>2017-07-07T09:24:23.000Z</time>
      </trkpt>
      <trkpt lat="46.83068" lon="6.53628">
        <ele>1244.8000488281</ele>
        <time>2017-07-07T09:24:25.000Z</time>
      </trkpt>
      <trkpt lat="46.83073" lon="6.53639">
        <ele>1245</ele>
        <time>2017-07-07T09:24:28.000Z</time>
      </trkpt>
      <trkpt lat="46.83074" lon="6.53644">
        <ele>1245</ele>
        <time>2017-07-07T09:24:29.000Z</time>
      </trkpt>
      <trkpt lat="46.83078" lon="6.53659">
        <ele>1244.4000244141</ele>
        <time>2017-07-07T09:24:33.000Z</time>
      </trkpt>
      <trkpt lat="46.83079" lon="6.53662">
        <ele>1244.4000244141</ele>
        <time>2017-07-07T09:24:34.000Z</time>
      </trkpt>
      <trkpt lat="46.83084" lon="6.53671">
        <ele>1244.1999511719</ele>
        <time>2017-07-07T09:24:36.000Z</time>
      </trkpt>
      <trkpt lat="46.83088" lon="6.53676">
        <ele>1243.5999755859</ele>
        <time>2017-07-07T09:24:37.000Z</time>
      </trkpt>
      <trkpt lat="46.8309" lon="6.53681">
        <ele>1243</ele>
        <time>2017-07-07T09:24:38.000Z</time>
      </trkpt>
      <trkpt lat="46.8309" lon="6.53685">
        <ele>1242</ele>
        <time>2017-07-07T09:24:39.000Z</time>
      </trkpt>
      <trkpt lat="46.83089" lon="6.53686">
        <ele>1241.4000244141</ele>
        <time>2017-07-07T09:24:40.000Z</time>
      </trkpt>
      <trkpt lat="46.83086" lon="6.53685">
        <ele>1240.8000488281</ele>
        <time>2017-07-07T09:24:41.000Z</time>
      </trkpt>
      <trkpt lat="46.83082" lon="6.53688">
        <ele>1239.4000244141</ele>
        <time>2017-07-07T09:24:43.000Z</time>
      </trkpt>
      <trkpt lat="46.8308" lon="6.53697">
        <ele>1238.4000244141</ele>
        <time>2017-07-07T09:24:44.000Z</time>
      </trkpt>
      <trkpt lat="46.8308" lon="6.53711">
        <ele>1236.8000488281</ele>
        <time>2017-07-07T09:24:46.000Z</time>
      </trkpt>
      <trkpt lat="46.8308" lon="6.53732">
        <ele>1236.4000244141</ele>
        <time>2017-07-07T09:24:49.000Z</time>
      </trkpt>
      <trkpt lat="46.83079" lon="6.53739">
        <ele>1236.4000244141</ele>
        <time>2017-07-07T09:24:50.000Z</time>
      </trkpt>
      <trkpt lat="46.83082" lon="6.53758">
        <ele>1236.1999511719</ele>
        <time>2017-07-07T09:24:53.000Z</time>
      </trkpt>
      <trkpt lat="46.83084" lon="6.53771">
        <ele>1236</ele>
        <time>2017-07-07T09:24:56.000Z</time>
      </trkpt>
      <trkpt lat="46.83087" lon="6.53785">
        <ele>1236</ele>
        <time>2017-07-07T09:25:00.000Z</time>
      </trkpt>
      <trkpt lat="46.83087" lon="6.53787">
        <ele>1236</ele>
        <time>2017-07-07T09:25:01.000Z</time>
      </trkpt>
      <trkpt lat="46.8309" lon="6.53803">
        <ele>1236</ele>
        <time>2017-07-07T09:25:05.000Z</time>
      </trkpt>
      <trkpt lat="46.83088" lon="6.53822">
        <ele>1235.5999755859</ele>
        <time>2017-07-07T09:25:07.000Z</time>
      </trkpt>
      <trkpt lat="46.83086" lon="6.53856">
        <ele>1234.8000488281</ele>
        <time>2017-07-07T09:25:12.000Z</time>
      </trkpt>
      <trkpt lat="46.83089" lon="6.53875">
        <ele>1235.4000244141</ele>
        <time>2017-07-07T09:25:17.000Z</time>
      </trkpt>
      <trkpt lat="46.83096" lon="6.53883">
        <ele>1237.1999511719</ele>
        <time>2017-07-07T09:25:21.000Z</time>
      </trkpt>
      <trkpt lat="46.83098" lon="6.53886">
        <ele>1237.8000488281</ele>
        <time>2017-07-07T09:25:22.000Z</time>
      </trkpt>
      <trkpt lat="46.83102" lon="6.53888">
        <ele>1238.8000488281</ele>
        <time>2017-07-07T09:25:24.000Z</time>
      </trkpt>
      <trkpt lat="46.83108" lon="6.53892">
        <ele>1239.5999755859</ele>
        <time>2017-07-07T09:25:27.000Z</time>
      </trkpt>
      <trkpt lat="46.8311" lon="6.53893">
        <ele>1240.4000244141</ele>
        <time>2017-07-07T09:25:28.000Z</time>
      </trkpt>
      <trkpt lat="46.83113" lon="6.53896">
        <ele>1241.5999755859</ele>
        <time>2017-07-07T09:25:30.000Z</time>
      </trkpt>
      <trkpt lat="46.83117" lon="6.53897">
        <ele>1242.5999755859</ele>
        <time>2017-07-07T09:25:32.000Z</time>
      </trkpt>
      <trkpt lat="46.83119" lon="6.53898">
        <ele>1242.8000488281</ele>
        <time>2017-07-07T09:25:33.000Z</time>
      </trkpt>
      <trkpt lat="46.83121" lon="6.53899">
        <ele>1243.1999511719</ele>
        <time>2017-07-07T09:25:34.000Z</time>
      </trkpt>
      <trkpt lat="46.83123" lon="6.53904">
        <ele>1243.8000488281</ele>
        <time>2017-07-07T09:25:36.000Z</time>
      </trkpt>
      <trkpt lat="46.83124" lon="6.53907">
        <ele>1244</ele>
        <time>2017-07-07T09:25:37.000Z</time>
      </trkpt>
      <trkpt lat="46.83129" lon="6.53913">
        <ele>1244.5999755859</ele>
        <time>2017-07-07T09:25:41.000Z</time>
      </trkpt>
      <trkpt lat="46.83136" lon="6.5393">
        <ele>1244.5999755859</ele>
        <time>2017-07-07T09:25:46.000Z</time>
      </trkpt>
      <trkpt lat="46.83143" lon="6.53945">
        <ele>1244.1999511719</ele>
        <time>2017-07-07T09:25:51.000Z</time>
      </trkpt>
      <trkpt lat="46.83136" lon="6.5394">
        <ele>1243.5999755859</ele>
        <time>2017-07-07T09:25:54.000Z</time>
      </trkpt>
      <trkpt lat="46.83135" lon="6.53939">
        <ele>1243.1999511719</ele>
        <time>2017-07-07T09:25:55.000Z</time>
      </trkpt>
      <trkpt lat="46.83131" lon="6.53935">
        <ele>1242.5999755859</ele>
        <time>2017-07-07T09:25:59.000Z</time>
      </trkpt>
      <trkpt lat="46.83127" lon="6.53935">
        <ele>1242.1999511719</ele>
        <time>2017-07-07T09:26:02.000Z</time>
      </trkpt>
      <trkpt lat="46.83126" lon="6.53938">
        <ele>1241.1999511719</ele>
        <time>2017-07-07T09:26:04.000Z</time>
      </trkpt>
      <trkpt lat="46.83127" lon="6.53941">
        <ele>1240.5999755859</ele>
        <time>2017-07-07T09:26:05.000Z</time>
      </trkpt>
      <trkpt lat="46.83128" lon="6.53944">
        <ele>1239.8000488281</ele>
        <time>2017-07-07T09:26:07.000Z</time>
      </trkpt>
      <trkpt lat="46.83127" lon="6.53945">
        <ele>1239.8000488281</ele>
        <time>2017-07-07T09:26:08.000Z</time>
      </trkpt>
      <trkpt lat="46.83126" lon="6.53946">
        <ele>1239.4000244141</ele>
        <time>2017-07-07T09:26:09.000Z</time>
      </trkpt>
      <trkpt lat="46.83122" lon="6.53941">
        <ele>1238.5999755859</ele>
        <time>2017-07-07T09:26:12.000Z</time>
      </trkpt>
      <trkpt lat="46.83121" lon="6.53936">
        <ele>1238.1999511719</ele>
        <time>2017-07-07T09:26:14.000Z</time>
      </trkpt>
      <trkpt lat="46.83119" lon="6.53936">
        <ele>1238</ele>
        <time>2017-07-07T09:26:15.000Z</time>
      </trkpt>
      <trkpt lat="46.83118" lon="6.53935">
        <ele>1237.8000488281</ele>
        <time>2017-07-07T09:26:16.000Z</time>
      </trkpt>
      <trkpt lat="46.83117" lon="6.53934">
        <ele>1237.5999755859</ele>
        <time>2017-07-07T09:26:17.000Z</time>
      </trkpt>
      <trkpt lat="46.83116" lon="6.53933">
        <ele>1237.4000244141</ele>
        <time>2017-07-07T09:26:18.000Z</time>
      </trkpt>
      <trkpt lat="46.83114" lon="6.53936">
        <ele>1236.8000488281</ele>
        <time>2017-07-07T09:26:20.000Z</time>
      </trkpt>
      <trkpt lat="46.8311" lon="6.53945">
        <ele>1236</ele>
        <time>2017-07-07T09:26:22.000Z</time>
      </trkpt>
      <trkpt lat="46.83109" lon="6.53947">
        <ele>1234.5999755859</ele>
        <time>2017-07-07T09:26:23.000Z</time>
      </trkpt>
      <trkpt lat="46.8311" lon="6.53951">
        <ele>1234</ele>
        <time>2017-07-07T09:26:24.000Z</time>
      </trkpt>
      <trkpt lat="46.8311" lon="6.53953">
        <ele>1233.5999755859</ele>
        <time>2017-07-07T09:26:25.000Z</time>
      </trkpt>
      <trkpt lat="46.83109" lon="6.53955">
        <ele>1233</ele>
        <time>2017-07-07T09:26:27.000Z</time>
      </trkpt>
      <trkpt lat="46.83108" lon="6.53959">
        <ele>1232.8000488281</ele>
        <time>2017-07-07T09:26:28.000Z</time>
      </trkpt>
      <trkpt lat="46.83105" lon="6.53962">
        <ele>1232.5999755859</ele>
        <time>2017-07-07T09:26:29.000Z</time>
      </trkpt>
      <trkpt lat="46.831" lon="6.5396">
        <ele>1231.5999755859</ele>
        <time>2017-07-07T09:26:33.000Z</time>
      </trkpt>
      <trkpt lat="46.83098" lon="6.53962">
        <ele>1231.4000244141</ele>
        <time>2017-07-07T09:26:34.000Z</time>
      </trkpt>
      <trkpt lat="46.83095" lon="6.53966">
        <ele>1230.1999511719</ele>
        <time>2017-07-07T09:26:36.000Z</time>
      </trkpt>
      <trkpt lat="46.83092" lon="6.5397">
        <ele>1228.8000488281</ele>
        <time>2017-07-07T09:26:38.000Z</time>
      </trkpt>
      <trkpt lat="46.83089" lon="6.53971">
        <ele>1227.8000488281</ele>
        <time>2017-07-07T09:26:41.000Z</time>
      </trkpt>
      <trkpt lat="46.83087" lon="6.53973">
        <ele>1227.5999755859</ele>
        <time>2017-07-07T09:26:42.000Z</time>
      </trkpt>
      <trkpt lat="46.83086" lon="6.53981">
        <ele>1226.4000244141</ele>
        <time>2017-07-07T09:26:44.000Z</time>
      </trkpt>
      <trkpt lat="46.83081" lon="6.53993">
        <ele>1224.5999755859</ele>
        <time>2017-07-07T09:26:47.000Z</time>
      </trkpt>
      <trkpt lat="46.83079" lon="6.53998">
        <ele>1224</ele>
        <time>2017-07-07T09:26:48.000Z</time>
      </trkpt>
      <trkpt lat="46.83079" lon="6.5401">
        <ele>1222.5999755859</ele>
        <time>2017-07-07T09:26:50.000Z</time>
      </trkpt>
      <trkpt lat="46.83079" lon="6.54015">
        <ele>1221.5999755859</ele>
        <time>2017-07-07T09:26:51.000Z</time>
      </trkpt>
      <trkpt lat="46.8308" lon="6.54019">
        <ele>1220.8000488281</ele>
        <time>2017-07-07T09:26:52.000Z</time>
      </trkpt>
      <trkpt lat="46.83081" lon="6.54023">
        <ele>1220.4000244141</ele>
        <time>2017-07-07T09:26:53.000Z</time>
      </trkpt>
      <trkpt lat="46.83087" lon="6.54038">
        <ele>1220</ele>
        <time>2017-07-07T09:26:57.000Z</time>
      </trkpt>
      <trkpt lat="46.8309" lon="6.54045">
        <ele>1220.4000244141</ele>
        <time>2017-07-07T09:26:59.000Z</time>
      </trkpt>
      <trkpt lat="46.83089" lon="6.54053">
        <ele>1220.5999755859</ele>
        <time>2017-07-07T09:27:01.000Z</time>
      </trkpt>
      <trkpt lat="46.83078" lon="6.54072">
        <ele>1219.8000488281</ele>
        <time>2017-07-07T09:27:04.000Z</time>
      </trkpt>
      <trkpt lat="46.83075" lon="6.54078">
        <ele>1218.8000488281</ele>
        <time>2017-07-07T09:27:05.000Z</time>
      </trkpt>
      <trkpt lat="46.83071" lon="6.5409">
        <ele>1216.8000488281</ele>
        <time>2017-07-07T09:27:07.000Z</time>
      </trkpt>
      <trkpt lat="46.83068" lon="6.54093">
        <ele>1215.8000488281</ele>
        <time>2017-07-07T09:27:08.000Z</time>
      </trkpt>
      <trkpt lat="46.83065" lon="6.54093">
        <ele>1215.1999511719</ele>
        <time>2017-07-07T09:27:09.000Z</time>
      </trkpt>
      <trkpt lat="46.83057" lon="6.54091">
        <ele>1214.1999511719</ele>
        <time>2017-07-07T09:27:11.000Z</time>
      </trkpt>
      <trkpt lat="46.83051" lon="6.5409">
        <ele>1213.5999755859</ele>
        <time>2017-07-07T09:27:12.000Z</time>
      </trkpt>
      <trkpt lat="46.8304" lon="6.54087">
        <ele>1212.5999755859</ele>
        <time>2017-07-07T09:27:14.000Z</time>
      </trkpt>
      <trkpt lat="46.83029" lon="6.54091">
        <ele>1211.1999511719</ele>
        <time>2017-07-07T09:27:16.000Z</time>
      </trkpt>
      <trkpt lat="46.83023" lon="6.54088">
        <ele>1210</ele>
        <time>2017-07-07T09:27:18.000Z</time>
      </trkpt>
      <trkpt lat="46.83022" lon="6.54085">
        <ele>1209.4000244141</ele>
        <time>2017-07-07T09:27:19.000Z</time>
      </trkpt>
      <trkpt lat="46.8302" lon="6.54079">
        <ele>1208.5999755859</ele>
        <time>2017-07-07T09:27:21.000Z</time>
      </trkpt>
      <trkpt lat="46.83017" lon="6.5408">
        <ele>1207.5999755859</ele>
        <time>2017-07-07T09:27:24.000Z</time>
      </trkpt>
      <trkpt lat="46.83017" lon="6.54081">
        <ele>1207.5999755859</ele>
        <time>2017-07-07T09:27:25.000Z</time>
      </trkpt>
      <trkpt lat="46.82982" lon="6.53851">
        <ele>1213</ele>
        <time>2017-07-07T09:29:16.000Z</time>
      </trkpt>
      <trkpt lat="46.82981" lon="6.53846">
        <ele>1213</ele>
        <time>2017-07-07T09:29:17.000Z</time>
      </trkpt>
      <trkpt lat="46.8297" lon="6.53817">
        <ele>1212.5999755859</ele>
        <time>2017-07-07T09:29:23.000Z</time>
      </trkpt>
      <trkpt lat="46.82966" lon="6.53812">
        <ele>1212.4000244141</ele>
        <time>2017-07-07T09:29:24.000Z</time>
      </trkpt>
      <trkpt lat="46.82954" lon="6.53801">
        <ele>1212</ele>
        <time>2017-07-07T09:29:27.000Z</time>
      </trkpt>
      <trkpt lat="46.82947" lon="6.53793">
        <ele>1211</ele>
        <time>2017-07-07T09:29:29.000Z</time>
      </trkpt>
      <trkpt lat="46.82938" lon="6.53783">
        <ele>1209.1999511719</ele>
        <time>2017-07-07T09:29:32.000Z</time>
      </trkpt>
      <trkpt lat="46.8293" lon="6.53774">
        <ele>1207.8000488281</ele>
        <time>2017-07-07T09:29:35.000Z</time>
      </trkpt>
      <trkpt lat="46.82928" lon="6.53771">
        <ele>1207.4000244141</ele>
        <time>2017-07-07T09:29:36.000Z</time>
      </trkpt>
      <trkpt lat="46.82923" lon="6.53764">
        <ele>1206.5999755859</ele>
        <time>2017-07-07T09:29:38.000Z</time>
      </trkpt>
      <trkpt lat="46.8292" lon="6.53762">
        <ele>1206</ele>
        <time>2017-07-07T09:29:40.000Z</time>
      </trkpt>
      <trkpt lat="46.82916" lon="6.53766">
        <ele>1205.5999755859</ele>
        <time>2017-07-07T09:29:42.000Z</time>
      </trkpt>
      <trkpt lat="46.82914" lon="6.53773">
        <ele>1204.8000488281</ele>
        <time>2017-07-07T09:29:44.000Z</time>
      </trkpt>
      <trkpt lat="46.82913" lon="6.53786">
        <ele>1204.4000244141</ele>
        <time>2017-07-07T09:29:47.000Z</time>
      </trkpt>
      <trkpt lat="46.82914" lon="6.53791">
        <ele>1204.4000244141</ele>
        <time>2017-07-07T09:29:48.000Z</time>
      </trkpt>
      <trkpt lat="46.82917" lon="6.538">
        <ele>1204.4000244141</ele>
        <time>2017-07-07T09:29:50.000Z</time>
      </trkpt>
      <trkpt lat="46.82921" lon="6.53812">
        <ele>1204.5999755859</ele>
        <time>2017-07-07T09:29:53.000Z</time>
      </trkpt>
      <trkpt lat="46.82926" lon="6.5383">
        <ele>1204.8000488281</ele>
        <time>2017-07-07T09:29:57.000Z</time>
      </trkpt>
      <trkpt lat="46.82931" lon="6.53848">
        <ele>1204.8000488281</ele>
        <time>2017-07-07T09:30:02.000Z</time>
      </trkpt>
      <trkpt lat="46.82937" lon="6.53871">
        <ele>1204</ele>
        <time>2017-07-07T09:30:08.000Z</time>
      </trkpt>
      <trkpt lat="46.82942" lon="6.53886">
        <ele>1204.1999511719</ele>
        <time>2017-07-07T09:30:15.000Z</time>
      </trkpt>
    </trkseg>
  </trk>
</gpx>